[[{"header":{"parameterUnit":"m.s-1","parameterCategory":1,"la1":30.6,"la2":28.766,"lo1":-90.7593,"lo2":-88.6598,"dy":0.0162,"dx":0.0183,"nx":116,"ny":114,"refTime":"2023-09-22T18:00:00:Z","depth":0,"parameterNumber":2,"parameterNumberName":"U-component_of_WINDS"},"data":[0.0,0.0,0.0,0.0,0.0,0.0,0.0,0.0,0.0,0.0,0.0,0.0,0.0,0.0,0.0,0.0,0.0,0.0,0.0,0.0,0.0,0.0,0.0,0.0,0.0,0.0,0.0,0.0,0.0,0.0,0.0,0.0,0.0,0.0,0.0,0.0,0.0,0.0,0.0,0.0,0.0,0.0,0.0,0.0,0.0,0.0,0.0,0.0,0.0,0.0,0.0,0.0,0.0,0.0,0.0,0.0,0.0,0.0,0.0,0.0,0.0,0.0,0.0,0.0,0.0,0.0,0.0,0.0,0.0,0.0,0.0,0.0,0.0,0.0,0.0,0.0,0.0,0.0,0.0,0.0,0.0,0.0,0.0,0.0,0.0,0.0,0.0,0.0,0.0,0.0,0.0,0.0,0.0,0.0,0.0,0.0,0.0,0.0,0.0,0.0,0.0,0.0,0.0,0.0,0.0,0.0,0.0,0.0,0.0,0.0,0.0,0.0,0.0,0.0,0.0,0.0,0.0,0.0,0.0,0.0,0.0,0.0,0.0,0.0,0.0,0.0,0.0,0.0,0.0,0.0,0.0,0.0,0.0,0.0,0.0,0.0,0.0,0.0,0.0,0.0,0.0,0.0,0.0,0.0,0.0,0.0,0.0,0.0,0.0,0.0,0.0,0.0,0.0,0.0,0.0,0.0,0.0,0.0,0.0,0.0,0.0,0.0,0.0,0.0,0.0,0.0,0.0,0.0,0.0,0.0,0.0,0.0,0.0,0.0,0.0,0.0,0.0,0.0,0.0,0.0,0.0,0.0,0.0,0.0,0.0,0.0,0.0,0.0,0.0,0.0,0.0,0.0,0.0,0.0,0.0,0.0,0.0,0.0,0.0,0.0,0.0,0.0,0.0,0.0,0.0,0.0,0.0,0.0,0.0,0.0,0.0,0.0,0.0,0.0,0.0,0.0,0.0,0.0,0.0,0.0,0.0,0.0,0.0,0.0,0.0,0.0,0.0,0.0,0.0,0.0,0.0,0.0,0.0,0.0,0.0,0.0,0.0,0.0,0.0,0.0,0.0,0.0,0.0,0.0,0.0,0.0,0.0,0.0,0.0,0.0,0.0,0.0,0.0,0.0,0.0,0.0,0.0,0.0,0.0,0.0,0.0,0.0,0.0,0.0,0.0,0.0,0.0,0.0,0.0,0.0,0.0,0.0,0.0,0.0,0.0,0.0,0.0,0.0,0.0,0.0,0.0,0.0,0.0,0.0,0.0,0.0,0.0,0.0,0.0,0.0,0.0,0.0,0.0,0.0,0.0,0.0,0.0,0.0,0.0,0.0,0.0,0.0,0.0,0.0,0.0,0.0,0.0,0.0,0.0,0.0,0.0,0.0,0.0,0.0,0.0,0.0,0.0,0.0,0.0,0.0,0.0,0.0,0.0,0.0,0.0,0.0,0.0,0.0,0.0,0.0,0.0,0.0,0.0,0.0,0.0,0.0,0.0,0.0,0.0,0.0,0.0,0.0,0.0,0.0,0.0,0.0,0.0,0.0,0.0,0.0,0.0,0.0,0.0,0.0,0.0,0.0,0.0,0.0,0.0,0.0,0.0,0.0,0.0,0.0,0.0,0.0,0.0,0.0,0.0,0.0,0.0,0.0,0.0,0.0,0.0,0.0,0.0,0.0,0.0,0.0,0.0,0.0,0.0,0.0,0.0,0.0,0.0,0.0,0.0,0.0,0.0,0.0,0.0,0.0,0.0,0.0,0.0,0.0,0.0,0.0,0.0,0.0,0.0,0.0,0.0,0.0,0.0,0.0,0.0,0.0,0.0,0.0,0.0,0.0,0.0,0.0,0.0,0.0,0.0,0.0,0.0,0.0,0.0,0.0,0.0,0.0,0.0,0.0,0.0,0.0,0.0,0.0,0.0,0.0,0.0,0.0,0.0,0.0,0.0,0.0,0.0,0.0,0.0,0.0,0.0,0.0,0.0,0.0,0.0,0.0,0.0,0.0,0.0,0.0,0.0,0.0,0.0,0.0,0.0,0.0,0.0,0.0,0.0,0.0,0.0,0.0,0.0,0.0,0.0,0.0,0.0,0.0,0.0,0.0,0.0,0.0,0.0,0.0,0.0,0.0,0.0,0.0,0.0,0.0,0.0,0.0,0.0,0.0,0.0,0.0,0.0,0.0,0.0,0.0,0.0,0.0,0.0,0.0,0.0,0.0,0.0,0.0,0.0,0.0,0.0,0.0,0.0,0.0,0.0,0.0,0.0,0.0,0.0,0.0,0.0,0.0,0.0,0.0,0.0,0.0,0.0,0.0,0.0,0.0,0.0,0.0,0.0,0.0,0.0,0.0,0.0,0.0,0.0,0.0,0.0,0.0,0.0,0.0,0.0,0.0,0.0,0.0,0.0,0.0,0.0,0.0,0.0,0.0,0.0,0.0,0.0,0.0,0.0,0.0,0.0,0.0,0.0,0.0,0.0,0.0,0.0,0.0,0.0,0.0,0.0,0.0,0.0,0.0,0.0,0.0,0.0,0.0,0.0,0.0,0.0,0.0,0.0,0.0,0.0,0.0,0.0,0.0,0.0,0.0,0.0,0.0,0.0,0.0,0.0,0.0,0.0,0.0,0.0,0.0,0.0,0.0,0.0,0.0,0.0,0.0,0.0,0.0,0.0,0.0,0.0,0.0,0.0,0.0,0.0,0.0,0.0,0.0,0.0,0.0,0.0,0.0,0.0,0.0,0.0,0.0,0.0,0.0,0.0,0.0,0.0,0.0,0.0,0.0,0.0,0.0,0.0,0.0,0.0,0.0,0.0,0.0,0.0,0.0,0.0,0.0,0.0,0.0,0.0,0.0,0.0,0.0,0.0,0.0,0.0,0.0,0.0,0.0,0.0,0.0,0.0,0.0,0.0,0.0,0.0,0.0,0.0,0.0,0.0,0.0,0.0,0.0,0.0,0.0,0.0,0.0,0.0,0.0,0.0,0.0,0.0,0.0,0.0,0.0,0.0,0.0,0.0,0.0,0.0,0.0,0.0,0.0,0.0,0.0,0.0,0.0,0.0,0.0,0.0,0.0,0.0,0.0,0.0,0.0,0.0,0.0,0.0,0.0,0.0,0.0,0.0,0.0,0.0,0.0,0.0,0.0,0.0,0.0,0.0,0.0,0.0,0.0,0.0,0.0,0.0,0.0,0.0,0.0,0.0,0.0,0.0,0.0,0.0,0.0,0.0,0.0,0.0,0.0,0.0,0.0,0.0,0.0,0.0,0.0,0.0,0.0,0.0,0.0,0.0,0.0,0.0,0.0,0.0,0.0,0.0,0.0,0.0,0.0,0.0,0.0,0.0,0.0,0.0,0.0,0.0,0.0,0.0,0.0,0.0,0.0,0.0,0.0,0.0,0.0,0.0,0.0,0.0,0.0,0.0,0.0,0.0,0.0,0.0,0.0,0.0,0.0,0.0,0.0,0.0,0.0,0.0,0.0,0.0,0.0,0.0,0.0,0.0,0.0,0.0,0.0,0.0,0.0,0.0,0.0,0.0,0.0,0.0,0.0,0.0,0.0,0.0,0.0,0.0,0.0,0.0,0.0,0.0,0.0,0.0,0.0,0.0,0.0,0.0,0.0,0.0,0.0,0.0,0.0,0.0,0.0,0.0,0.0,0.0,0.0,0.0,0.0,0.0,0.0,0.0,0.0,0.0,0.0,0.0,0.0,0.0,0.0,0.0,0.0,0.0,0.0,0.0,0.0,0.0,0.0,0.0,0.0,0.0,0.0,0.0,0.0,0.0,0.0,0.0,0.0,0.0,0.0,0.0,0.0,0.0,0.0,0.0,0.0,0.0,0.0,0.0,0.0,0.0,0.0,0.0,0.0,0.0,0.0,0.0,0.0,0.0,0.0,0.0,0.0,0.0,0.0,0.0,0.0,0.0,0.0,0.0,0.0,0.0,0.0,0.0,0.0,0.0,0.0,0.0,0.0,0.0,0.0,0.0,0.0,0.0,0.0,0.0,0.0,0.0,0.0,0.0,0.0,0.0,0.0,0.0,0.0,0.0,0.0,0.0,0.0,0.0,0.0,0.0,0.0,0.0,0.0,0.0,0.0,0.0,0.0,0.0,0.0,0.0,0.0,0.0,0.0,0.0,0.0,0.0,0.0,0.0,0.0,0.0,0.0,0.0,0.0,0.0,0.0,0.0,0.0,0.0,0.0,0.0,0.0,0.0,0.0,0.0,0.0,0.0,0.0,0.0,0.0,0.0,0.0,0.0,0.0,0.0,0.0,0.0,0.0,0.0,0.0,0.0,0.0,0.0,0.0,0.0,0.0,0.0,0.0,0.0,0.0,0.0,0.0,0.0,0.0,0.0,0.0,0.0,0.0,0.0,0.0,0.0,0.0,0.0,0.0,0.0,0.0,0.0,0.0,0.0,0.0,0.0,0.0,0.0,0.0,0.0,0.0,0.0,0.0,0.0,0.0,0.0,0.0,0.0,0.0,0.0,0.0,0.0,0.0,0.0,0.0,0.0,0.0,0.0,0.0,0.0,0.0,0.0,0.0,0.0,0.0,0.0,0.0,0.0,0.0,0.0,0.0,0.0,0.0,0.0,0.0,0.0,0.0,0.0,0.0,0.0,0.0,0.0,0.0,0.0,0.0,0.0,0.0,0.0,0.0,0.0,0.0,0.0,0.0,0.0,0.0,0.0,0.0,0.0,0.0,0.0,0.0,0.0,0.0,0.0,0.0,0.0,0.0,0.0,0.0,0.0,0.0,0.0,0.0,0.0,0.0,0.0,0.0,0.0,0.0,0.0,0.0,0.0,0.0,0.0,0.0,0.0,0.0,0.0,0.0,0.0,0.0,0.0,0.0,0.0,0.0,0.0,0.0,0.0,0.0,0.0,0.0,0.0,0.0,0.0,0.0,0.0,0.0,0.0,0.0,0.0,0.0,0.0,0.0,0.0,0.0,0.0,0.0,0.0,0.0,0.0,0.0,0.0,0.0,0.0,0.0,0.0,0.0,0.0,0.0,0.0,0.0,0.0,0.0,0.0,0.0,0.0,0.0,0.0,0.0,0.0,0.0,0.0,0.0,0.0,0.0,0.0,0.0,0.0,0.0,0.0,0.0,0.0,0.0,0.0,0.0,0.0,0.0,0.0,0.0,0.0,0.0,0.0,0.0,0.0,0.0,0.0,0.0,0.0,0.0,0.0,0.0,0.0,0.0,0.0,0.0,0.0,0.0,0.0,0.0,0.0,0.0,0.0,0.0,0.0,0.0,0.0,0.0,0.0,0.0,0.0,0.0,0.0,0.0,0.0,0.0,0.0,0.0,0.0,0.0,0.0,0.0,0.0,0.0,0.0,0.0,0.0,0.0,0.0,0.0,0.0,0.0,0.0,0.0,0.0,0.0,0.0,0.0,0.0,0.0,0.0,0.0,0.0,0.0,0.0,0.0,0.0,0.0,0.0,0.0,0.0,0.0,0.0,0.0,0.0,0.0,0.0,0.0,0.0,0.0,0.0,0.0,0.0,0.0,0.0,0.0,0.0,0.0,0.0,0.0,0.0,0.0,0.0,0.0,0.0,0.0,0.0,0.0,0.0,0.0,0.0,0.0,0.0,0.0,0.0,0.0,0.0,0.0,0.0,0.0,0.0,0.0,0.0,0.0,0.0,0.0,0.0,0.0,0.0,0.0,0.0,0.0,0.0,0.0,0.0,0.0,0.0,0.0,0.0,0.0,0.0,0.0,0.0,0.0,0.0,0.0,0.0,0.0,0.0,0.0,0.0,0.0,0.0,0.0,0.0,0.0,0.0,0.0,0.0,0.0,0.0,0.0,0.0,0.0,0.0,0.0,0.0,0.0,0.0,0.0,0.0,0.0,0.0,0.0,0.0,0.0,0.0,0.0,0.0,0.0,0.0,0.0,0.0,0.0,0.0,0.0,0.0,0.0,0.0,0.0,0.0,0.0,0.0,0.0,0.0,0.0,0.0,0.0,0.0,0.0,0.0,0.0,0.0,0.0,0.0,0.0,0.0,0.0,0.0,0.0,0.0,0.0,0.0,0.0,0.0,0.0,0.0,0.0,0.0,0.0,0.0,0.0,0.0,0.0,0.0,0.0,-3.0267,0.0,0.0,0.0,0.0,0.0,0.0,0.0,0.0,0.0,0.0,0.0,0.0,0.0,0.0,0.0,0.0,0.0,0.0,0.0,0.0,0.0,0.0,0.0,0.0,0.0,0.0,0.0,0.0,0.0,0.0,0.0,0.0,0.0,0.0,0.0,0.0,0.0,0.0,-2.8509,-2.8756,-2.9477,-3.0638,-3.2177,-3.26,-3.2036,0.0,0.0,0.0,0.0,0.0,0.0,0.0,0.0,0.0,0.0,0.0,0.0,0.0,0.0,0.0,0.0,0.0,0.0,0.0,0.0,0.0,0.0,0.0,0.0,0.0,0.0,0.0,0.0,0.0,0.0,0.0,0.0,0.0,0.0,0.0,0.0,0.0,0.0,0.0,0.0,0.0,0.0,0.0,0.0,0.0,0.0,0.0,0.0,0.0,0.0,0.0,0.0,0.0,0.0,0.0,0.0,0.0,0.0,0.0,0.0,0.0,0.0,0.0,0.0,0.0,0.0,0.0,0.0,0.0,0.0,0.0,-3.0567,0.0,0.0,0.0,0.0,0.0,0.0,0.0,0.0,0.0,0.0,0.0,0.0,0.0,0.0,0.0,0.0,0.0,0.0,0.0,0.0,0.0,0.0,0.0,-2.9235,-3.0419,-3.2684,-3.2669,-3.2126,0.0,0.0,0.0,0.0,0.0,0.0,-2.8427,-2.8536,-2.8737,-2.9059,-2.895,-2.9856,-3.1648,-3.1498,-3.1094,-3.0576,-3.105,0.0,0.0,0.0,0.0,0.0,0.0,0.0,0.0,0.0,0.0,0.0,0.0,0.0,0.0,0.0,0.0,0.0,0.0,0.0,0.0,0.0,0.0,0.0,0.0,0.0,0.0,0.0,0.0,0.0,0.0,0.0,0.0,0.0,0.0,0.0,0.0,0.0,0.0,0.0,0.0,0.0,0.0,0.0,0.0,0.0,0.0,0.0,0.0,0.0,0.0,0.0,0.0,0.0,0.0,0.0,0.0,0.0,0.0,0.0,0.0,0.0,0.0,0.0,-3.2088,-3.2115,-3.1556,-3.2048,-3.18,-3.1067,-3.1446,-3.1431,-3.1102,0.0,0.0,0.0,0.0,0.0,0.0,0.0,0.0,0.0,0.0,0.0,0.0,0.0,0.0,0.0,0.0,0.0,0.0,0.0,0.0,0.0,0.0,-2.8767,-2.9964,-3.2199,-3.132,-3.0647,-3.0592,0.0,0.0,0.0,0.0,0.0,-2.775,-2.8304,-2.8033,-2.6903,-2.7158,-2.8463,-3.0663,-3.0675,-3.0841,-3.1174,-3.0784,-3.1034,-3.1601,0.0,0.0,0.0,0.0,0.0,0.0,0.0,0.0,0.0,0.0,0.0,0.0,0.0,0.0,0.0,0.0,0.0,0.0,0.0,0.0,0.0,0.0,0.0,0.0,0.0,0.0,0.0,0.0,0.0,0.0,0.0,0.0,0.0,0.0,0.0,0.0,0.0,0.0,0.0,0.0,0.0,-2.9829,-2.9753,0.0,0.0,0.0,0.0,0.0,0.0,0.0,0.0,0.0,0.0,0.0,0.0,0.0,-3.1749,-3.2252,-3.2525,-3.2447,-3.2063,-3.317,-3.3386,-3.2853,-3.2916,-3.3341,-3.3964,-3.3993,0.0,-2.9776,-2.9789,0.0,0.0,0.0,0.0,0.0,0.0,0.0,0.0,0.0,0.0,0.0,0.0,0.0,0.0,0.0,0.0,0.0,0.0,0.0,0.0,0.0,-2.8578,-3.0034,-3.223,-3.2535,-3.2022,-3.059,-3.0345,0.0,0.0,0.0,-2.8449,-2.8158,-2.8036,-2.7524,-2.6594,-2.7696,-2.8643,-2.941,-2.9366,-2.9554,-2.9988,-2.9766,-3.0211,-3.1144,-3.0155,0.0,0.0,0.0,0.0,0.0,0.0,0.0,0.0,0.0,0.0,0.0,0.0,0.0,0.0,0.0,0.0,0.0,0.0,0.0,0.0,0.0,0.0,0.0,0.0,0.0,0.0,0.0,0.0,0.0,0.0,0.0,0.0,0.0,0.0,0.0,0.0,0.0,0.0,0.0,-3.0186,-3.0646,-2.8713,-3.0271,-3.03,0.0,0.0,0.0,0.0,0.0,0.0,0.0,0.0,0.0,-3.3794,-3.3301,-3.327,-3.3845,-3.3921,-3.4035,-3.4053,-3.4542,-3.47,-3.4449,-3.4148,-3.4205,-3.4605,-3.4285,-3.3325,-3.1941,-3.1707,-3.0265,-2.8251,0.0,0.0,0.0,0.0,-2.8825,-2.8739,0.0,0.0,0.0,0.0,0.0,0.0,0.0,0.0,0.0,0.0,0.0,0.0,-2.7148,-2.8526,-3.0223,-3.2552,-3.329,-3.2728,-3.0624,-3.0529,-2.9342,-2.6617,-2.7676,-2.8337,-2.8338,-2.7448,-2.6886,-2.6692,-2.7618,-2.8195,-2.8425,-2.8432,-2.8758,-2.9241,-2.9364,-2.9853,-3.0508,-2.9698,-2.8883,-2.8003,0.0,0.0,0.0,0.0,0.0,0.0,0.0,0.0,0.0,0.0,0.0,0.0,0.0,0.0,0.0,0.0,0.0,0.0,0.0,0.0,0.0,0.0,0.0,0.0,0.0,0.0,0.0,0.0,0.0,0.0,0.0,0.0,0.0,0.0,0.0,0.0,0.0,-3.1073,-3.1394,-2.8702,-3.1504,-3.1913,0.0,0.0,0.0,0.0,0.0,0.0,-3.3355,-3.3193,-3.3888,-3.5649,-3.5073,-3.5002,-3.5554,-3.5567,-3.5705,-3.5922,-3.5922,-3.5846,-3.5742,-3.5328,-3.514,-3.5115,-3.4713,-3.4449,-3.4237,-3.342,-3.1849,-2.9897,-2.9821,-2.9135,-2.8339,-2.9794,-3.0006,-2.974,0.0,0.0,0.0,0.0,0.0,0.0,0.0,0.0,0.0,0.0,0.0,-2.519,-2.7254,-2.8555,-3.042,-3.32,-3.2271,-3.1253,-3.0556,-2.8741,-2.7364,-2.6537,-2.7173,-2.7591,-2.766,-2.6248,-2.591,-2.6687,-2.558,-2.6017,-2.7916,-2.8389,-2.9077,-2.9987,-3.0404,-3.0652,-3.0517,-2.7534,-2.7308,-2.8612,-2.6191,0.0,0.0,0.0,0.0,0.0,0.0,0.0,0.0,0.0,0.0,0.0,0.0,0.0,0.0,0.0,0.0,0.0,0.0,0.0,0.0,0.0,0.0,0.0,0.0,0.0,0.0,0.0,0.0,0.0,0.0,0.0,0.0,0.0,0.0,0.0,0.0,0.0,0.0,-3.1599,-3.3091,0.0,0.0,0.0,0.0,-3.2275,-3.2346,-3.3057,-3.452,-3.4582,-3.5349,-3.7056,-3.7071,-3.7287,-3.7839,-3.7839,-3.7588,-3.7098,-3.7098,-3.6822,-3.6367,-3.6342,-3.6317,-3.6317,-3.6304,-3.5943,-3.5282,-3.3721,-3.2391,-3.1254,-3.0725,-3.0184,-2.9705,-2.9794,-3.0108,-3.0459,0.0,0.0,0.0,0.0,0.0,0.0,0.0,0.0,-1.9966,-2.1363,-2.2518,-2.4116,-2.6399,-2.8066,-2.9697,-3.1486,-3.1654,-3.1001,-2.9422,-2.808,-2.724,-2.6973,-2.6442,-2.5965,-2.556,-2.5414,-2.5268,-2.5069,-2.4891,-2.5582,-2.711,-2.6857,-2.7225,-2.8097,-2.8553,-2.8788,-2.8755,-2.8304,-2.7917,-2.7487,-2.6146,-2.5777,0.0,0.0,0.0,0.0,0.0,0.0,0.0,0.0,0.0,0.0,0.0,0.0,0.0,0.0,0.0,0.0,0.0,0.0,0.0,0.0,0.0,0.0,0.0,0.0,0.0,0.0,0.0,0.0,0.0,0.0,0.0,0.0,0.0,0.0,0.0,0.0,0.0,-3.2495,-3.513,0.0,-3.2323,-3.3262,-3.4034,-3.3927,-3.4611,-3.5522,-3.6761,-3.7172,-3.7826,-3.8768,-3.8793,-3.8718,-3.8567,-3.8567,-3.8103,-3.7186,-3.7186,-3.6945,-3.6405,-3.5994,-3.6031,-3.6392,-3.5994,-3.5931,-3.6019,-3.5487,-3.4167,-3.2466,-3.2265,-3.1637,-3.0871,-3.1223,-3.1474,-3.1612,0.0,0.0,0.0,0.0,0.0,0.0,0.0,0.0,-1.9254,-2.0445,-2.1782,-2.3454,-2.5675,-2.7482,-2.9038,-3.0281,-3.0713,-3.0126,-2.8265,-2.717,-2.6471,-2.6219,-2.5416,-2.4803,-2.4421,-2.4341,-2.4166,-2.3886,-2.3587,-2.4194,-2.5723,-2.4984,-2.5339,-2.6574,-2.7055,-2.7157,-2.7012,-2.8009,-2.7864,-2.686,-2.617,-2.5973,-2.6008,0.0,0.0,0.0,0.0,0.0,0.0,0.0,0.0,0.0,0.0,0.0,0.0,0.0,0.0,0.0,0.0,0.0,0.0,0.0,0.0,0.0,0.0,0.0,0.0,0.0,0.0,0.0,0.0,0.0,0.0,0.0,0.0,0.0,0.0,0.0,-3.4643,-3.3447,-3.649,-3.7456,-3.4237,-3.5247,-3.6157,-3.6113,-3.6801,-3.7614,-3.854,-3.8969,-3.932,-3.9685,-3.9697,-3.9521,-3.9145,-3.9145,-3.858,-3.7462,-3.7462,-3.7073,-3.6405,-3.5994,-3.6019,-3.6392,-3.5981,-3.6031,-3.6392,-3.6157,-3.5115,-3.3658,-3.3834,-3.3106,-3.2026,-3.2579,-3.2667,-3.2411,0.0,0.0,0.0,0.0,0.0,0.0,0.0,-1.704,-1.8645,-1.98,-2.1472,-2.3254,-2.5186,-2.6931,-2.8465,-2.9788,-2.938,-2.8456,-2.7142,-2.5849,-2.4846,-2.4261,-2.4103,-2.4116,-2.4285,-2.2926,-2.2535,-2.3165,-2.1475,-2.1674,-2.3642,-2.2864,-2.3608,-2.5557,-2.6088,-2.5914,-2.537,-2.6491,-2.6904,-2.6855,-2.6156,-2.6151,-2.6441,0.0,0.0,0.0,0.0,0.0,0.0,0.0,0.0,0.0,0.0,0.0,0.0,0.0,0.0,0.0,0.0,0.0,0.0,0.0,0.0,0.0,0.0,0.0,0.0,0.0,0.0,0.0,0.0,0.0,0.0,0.0,0.0,0.0,-3.2193,-3.3887,-3.4927,-3.4643,-3.7162,-3.8047,-3.5876,-3.7115,-3.83,-3.8896,-3.8908,-3.9162,-3.9685,-3.9697,-3.9697,-3.9697,-3.9697,-3.9697,-3.9697,-3.9697,-3.9132,-3.8002,-3.8002,-3.7425,-3.6405,-3.6405,-3.6405,-3.6405,-3.6405,-3.6405,-3.6367,-3.5721,-3.5123,-3.4673,-3.5199,-3.441,-3.3088,-3.3583,-3.3421,-3.2641,0.0,0.0,0.0,0.0,0.0,0.0,0.0,-1.5788,-1.7354,-1.8546,-2.0182,-2.2201,-2.4753,-2.6142,-2.721,-2.7994,-2.7541,-2.687,-2.6055,-2.4562,-2.3344,-2.2598,-2.2572,-2.246,-2.2225,-2.0684,-2.0125,-2.0625,-1.9547,-1.9653,-2.0825,-2.081,-2.1257,-2.2225,-2.3839,-2.3913,-2.2972,-2.4792,-2.5125,-2.4453,-2.5391,-2.5896,-2.6012,0.0,0.0,0.0,0.0,0.0,0.0,0.0,0.0,0.0,0.0,0.0,0.0,0.0,0.0,0.0,0.0,0.0,0.0,0.0,0.0,0.0,0.0,0.0,0.0,0.0,0.0,0.0,0.0,0.0,0.0,0.0,0.0,-3.2815,-3.3059,-3.4791,-3.6286,-3.6963,-3.8466,-3.9239,-3.863,-3.8985,-3.9328,-3.9442,-3.9506,-3.9519,-3.9685,-3.9697,-3.9697,-3.9697,-3.9697,-3.9697,-3.9697,-3.9697,-3.9132,-3.8002,-3.8002,-3.7425,-3.6405,-3.6405,-3.6405,-3.6405,-3.6405,-3.6405,-3.6273,-3.478,-3.3869,-3.3361,-3.3119,-3.2514,-3.1613,-3.0896,-3.0059,-2.9213,0.0,0.0,0.0,0.0,0.0,0.0,0.0,-1.4887,-1.5928,-1.6586,-1.83,-2.0147,-2.1935,-2.3333,-2.4393,-2.4996,-2.4477,-2.4044,-2.3882,-2.2831,-2.2043,-2.1631,-2.114,-2.0793,-2.0661,-1.9228,-1.8605,-1.8935,-1.7937,-1.8112,-1.9418,-1.9081,-1.9472,-2.057,-2.1789,-2.2034,-2.1602,-2.3065,-2.3346,-2.2958,-2.4082,-2.511,-2.5898,-2.5107,-2.5617,-2.6689,-2.6095,-2.5837,-2.5746,-2.5083,0.0,0.0,0.0,0.0,0.0,0.0,0.0,0.0,0.0,0.0,0.0,0.0,0.0,0.0,0.0,0.0,0.0,0.0,0.0,0.0,0.0,0.0,0.0,0.0,-3.3038,-3.4512,-3.5251,-3.6341,-3.7394,-3.8291,-3.9143,-3.9697,-3.9697,-3.9697,-3.9697,-3.9697,-3.9697,-3.9697,-3.9697,-3.9697,-3.9697,-3.9697,-3.9697,-3.9697,-3.9697,-3.9471,-3.874,-3.745,-3.7046,-3.6185,-3.4978,-3.475,-3.4691,0.0,-3.4691,-3.4691,-3.4606,-3.3297,-3.2494,0.0,0.0,0.0,0.0,0.0,-2.8022,-2.6878,0.0,0.0,0.0,0.0,0.0,0.0,0.0,-1.4213,-1.4556,-1.4427,-1.6225,-1.7673,-1.8104,-1.9591,-2.0879,-2.167,-2.1152,-2.0959,-2.1421,-2.108,-2.0861,-2.0848,-1.9649,-1.9046,-1.9222,-1.7982,-1.746,-1.7743,-1.6517,-1.6823,-1.8574,-1.7501,-1.7911,-1.9589,-1.9819,-2.0105,-2.0509,-2.1412,-2.1755,-2.1868,-2.2336,-2.3784,-2.5613,-2.4386,-2.5685,-2.8031,-2.6689,-2.6747,-2.7297,-2.6334,0.0,0.0,0.0,0.0,0.0,0.0,0.0,0.0,0.0,0.0,0.0,0.0,0.0,0.0,0.0,0.0,0.0,0.0,0.0,0.0,0.0,0.0,0.0,0.0,-3.4793,-3.631,-3.7889,-3.8163,-3.8388,-3.8921,-3.9417,-3.9658,-3.9553,-3.9503,-3.9387,-3.928,-3.9231,-3.9181,-3.9183,0.0,0.0,0.0,0.0,-3.9203,-3.9203,-3.8672,-3.7751,-3.6377,-3.5434,-3.4272,-3.2929,-3.2482,-3.228,-3.228,-3.228,-3.228,-3.2247,-3.1556,-3.0947,-3.0411,-3.0548,-2.9691,-2.831,-2.7866,-2.6715,-2.5382,0.0,0.0,0.0,0.0,0.0,0.0,0.0,-1.3592,-1.3923,-1.379,-1.4956,-1.617,-1.7144,-1.795,-1.9062,-2.0714,-2.0715,-2.0765,-2.1067,-2.0439,-1.9599,-1.8595,-1.7621,-1.7052,-1.6876,-1.5762,-1.5496,-1.6129,-1.5249,-1.5014,-1.5389,-1.5655,-1.594,-1.6374,-1.7958,-1.8087,-1.739,-1.9812,-2.0571,-2.0069,-2.0084,-2.1402,-2.3325,-2.3062,-2.3823,-2.4938,-2.4662,-2.5469,-2.6486,-2.5607,-2.5671,-2.5899,-2.4708,-2.4357,0.0,0.0,0.0,0.0,0.0,0.0,0.0,0.0,0.0,0.0,0.0,0.0,0.0,0.0,0.0,0.0,0.0,0.0,0.0,-3.4111,-3.6175,-3.7801,-3.8592,-3.9093,-3.9417,-3.9519,-3.962,-3.9355,-3.8491,-3.8101,-3.759,-3.6681,-3.6337,-3.6156,-3.6135,-3.6124,0.0,-3.6162,-3.6153,-3.6168,-3.6168,-3.5688,-3.5039,-3.4366,0.0,0.0,-3.2426,-3.2325,-3.228,-3.228,-3.228,-3.228,-3.2197,-3.0676,-2.8963,-2.7329,-2.7998,-2.7264,-2.5742,-2.5289,-2.4721,-2.4078,0.0,0.0,0.0,0.0,0.0,0.0,0.0,-1.3146,-1.319,-1.2767,-1.3681,-1.4552,-1.5005,-1.5598,-1.6471,-1.7733,-1.8195,-1.8322,-1.8153,-1.8114,-1.7737,-1.6898,-1.6237,-1.5852,-1.576,-1.4973,-1.4408,-1.3987,-1.3618,-1.3231,-1.2923,-1.3848,-1.4397,-1.4712,-1.632,-1.7028,-1.7079,-1.8665,-1.9492,-1.975,-1.986,-2.0631,-2.1743,-2.1736,-2.2477,-2.3636,-2.4541,-2.5078,-2.5381,-2.5669,-2.579,-2.5575,-2.4316,-2.3935,-2.3814,0.0,0.0,0.0,0.0,0.0,0.0,0.0,0.0,0.0,0.0,0.0,0.0,0.0,0.0,-3.0084,0.0,0.0,-3.4379,-3.6094,-3.7538,-3.863,-3.9207,-3.9521,-3.9697,-3.9697,-3.9697,-3.9188,-3.7929,-3.7619,-3.7304,-3.6726,-3.5808,-3.5593,-3.634,-3.5683,-3.5297,-3.5302,-3.5272,-3.5314,-3.5323,-3.4553,-3.3859,-3.3074,-3.2175,-3.1359,-3.0577,-3.0391,-3.0317,-3.0317,-3.0317,-3.0317,-3.0193,-2.8886,-2.7712,-2.6666,-2.6426,-2.5692,-2.4668,-2.4014,-2.3598,-2.3437,0.0,0.0,0.0,0.0,0.0,0.0,0.0,-1.2779,-1.2425,-1.1698,-1.2416,-1.2881,-1.2672,-1.3252,-1.4057,-1.5018,-1.5727,-1.5882,-1.5326,-1.5919,-1.5992,-1.5335,-1.4964,-1.4691,-1.4569,-1.4004,-1.3102,-1.1974,-1.1966,-1.1705,-1.1214,-1.2312,-1.3189,-1.3868,-1.4927,-1.6157,-1.7468,-1.7901,-1.8738,-1.9809,-2.0329,-2.0665,-2.0839,-2.076,-2.1555,-2.2808,-2.4014,-2.4324,-2.4279,-2.5381,-2.5408,-2.4784,-2.3676,-2.3276,-2.3034,-2.2178,-2.2369,0.0,0.0,0.0,0.0,0.0,0.0,0.0,0.0,0.0,-2.7332,-2.8586,-3.0415,-3.2331,-3.4066,-3.5278,-3.6448,-3.7939,-3.8743,-3.9257,-3.926,-3.9332,-3.928,-3.8886,-3.9092,-3.8712,-3.7322,-3.6865,-3.6565,-3.6326,-3.5144,-3.4977,-3.614,-3.5068,-3.4479,-3.4447,-3.4449,-3.447,-3.4458,-3.3475,-3.2597,-3.1834,-3.0506,-2.9513,-2.8774,-2.8456,-2.8291,-2.8291,-2.8291,-2.8252,-2.8101,-2.7309,-2.6955,-2.6766,-2.5488,-2.4734,-2.4326,-2.353,-2.3188,-2.3091,0.0,0.0,0.0,0.0,0.0,0.0,0.0,0.0,-1.1674,-1.0997,-1.1014,-1.1102,-1.1049,-1.1648,-1.2909,-1.4999,-1.5592,-1.5691,-1.5323,-1.5668,-1.5163,-1.3636,-1.3317,-1.2783,-1.1944,-1.0921,-1.0532,-1.0768,-1.0776,-1.0798,-1.0857,-1.1288,-1.2226,-1.3459,-1.3921,-1.4981,-1.653,-1.7628,-1.8581,-1.9357,-2.0488,-2.0934,-2.0989,-2.099,-2.1318,-2.1695,-2.0755,-2.1704,-2.3457,-2.3501,-2.3972,-2.4407,-2.3896,-2.3511,-2.3008,-2.2142,-2.1658,-2.1429,-2.1359,-2.2375,-2.3364,-2.3214,-2.4525,-2.616,0.0,0.0,-2.9365,-3.17,-3.2733,-3.3858,-3.5756,-3.6985,-3.7965,-3.8668,-3.9647,-3.973,-3.7974,-3.8138,-3.7815,-3.601,-3.6944,-3.7292,-3.6166,-3.457,-3.3224,-3.2246,-3.17,-3.1492,-3.1622,-3.1498,-3.1402,-3.1374,-3.1385,-3.1385,-3.1384,-3.0528,-2.9995,-2.9928,-2.8952,-2.8441,-2.8364,-2.833,-2.8291,-2.8291,-2.8291,-2.8086,-2.7705,-2.7192,-2.6773,-2.6317,-2.5011,-2.4446,-2.4329,-2.3868,-2.3475,-2.3091,0.0,0.0,0.0,0.0,0.0,0.0,0.0,0.0,0.0,-1.143,-1.1039,-1.0964,-1.1348,-1.1641,-1.2194,-1.313,-1.3413,-1.3126,-1.2155,-1.2625,-1.2323,-1.093,-1.0754,-1.0665,-1.0557,-1.0147,-0.9791,-0.963,-0.9601,-0.9394,-0.8939,-0.9827,-1.0665,-1.1453,-1.2475,-1.3723,-1.5207,-1.6537,-1.7775,-1.8868,-1.9939,-2.0793,-2.1354,-2.0486,-2.0557,-2.1159,-2.1258,-2.1502,0.0,-2.34,-2.4103,-2.4337,-2.3933,-2.3499,-2.2974,-2.2144,-2.1934,-2.2026,-2.2239,-2.2934,0.0,0.0,-2.4897,-2.6069,-2.695,-2.8097,-2.9376,-3.0669,-3.3076,-3.5196,-3.6027,-3.7705,-3.917,0.0,-3.9414,-3.8861,-3.8082,-3.7336,-3.6395,-3.5048,-3.5676,-3.5702,-3.4373,-3.4359,-3.3845,-3.2533,-3.1478,-3.1271,-3.2129,-3.1383,-3.0889,-3.0889,-3.0889,-3.0743,-3.05,-2.9889,-2.9477,-2.9184,-2.8584,-2.8291,-2.8291,-2.8291,-2.8167,-2.7935,-2.7956,-2.77,-2.7255,-2.6823,-2.6379,-2.5908,-2.4834,-2.4251,-2.3974,-2.3555,-2.3252,-2.3003,0.0,0.0,0.0,0.0,0.0,0.0,0.0,0.0,0.0,0.0,-1.0833,-1.0783,-1.1444,-1.1525,-1.1472,-1.1376,-1.1504,-1.0929,-0.9444,-1.0123,-1.0083,-0.8939,-0.8731,-0.8894,-0.9349,-0.9141,-0.8819,-0.8424,-0.8424,-0.7919,-0.7054,-0.7973,-0.8796,-0.9478,-1.0537,-1.2073,-1.3944,-1.5362,-1.6613,-1.7796,-1.9166,-2.0166,-2.0772,-1.9917,-1.9791,-2.0304,-2.1108,-2.0935,-2.0539,-2.24,-2.3259,-2.3454,-2.3175,-2.2926,-2.2651,-2.2076,-2.2106,-2.2402,-2.2814,0.0,0.0,-2.4466,-2.5317,-2.6179,-2.662,-2.78,-2.9033,-2.9912,-3.2523,-3.4996,-3.6016,-3.7702,-3.9129,-3.9717,-3.8978,-3.8013,-3.7142,-3.608,-3.4845,-3.3538,-3.3956,-3.378,-3.245,-3.3757,-3.4097,-3.258,-3.1513,-3.1383,-3.2426,-3.1498,-3.0889,-3.0889,-3.0889,-3.0655,-3.0189,-2.9795,-2.9346,-2.888,-2.8462,-2.8291,-2.8291,-2.8291,-2.8083,-2.771,-2.7713,-2.736,-2.6813,-2.6537,-2.6045,-2.5478,-2.4717,-2.3968,-2.3266,-2.2798,-2.2599,-2.2476,0.0,0.0,0.0,0.0,0.0,0.0,0.0,0.0,0.0,0.0,0.0,0.0,0.0,-1.0837,-1.0662,-1.0286,-1.0558,-1.0029,-0.8357,-0.9168,-0.9349,-0.8474,-0.7842,-0.7709,-0.8045,-0.721,-0.6903,-0.7143,-0.7143,-0.664,-0.5653,-0.5704,-0.6571,-0.8041,-0.8084,-0.9804,-1.2757,-1.4206,-1.51,-1.5731,-1.8195,-1.895,-1.8682,-1.9399,-1.9344,-1.8871,-1.8916,-1.9156,-1.9453,-1.9525,-2.0318,-2.13,-2.1277,-2.1597,-2.1932,-2.19,-2.1887,-2.2001,-2.2402,0.0,-2.4021,-2.4844,-2.6024,-2.7107,-2.7531,-2.8009,-2.8817,-3.0672,-3.1148,-3.2378,-3.6079,-3.6836,-3.7195,-3.8005,-3.8587,-3.7717,-3.4299,-3.3912,-3.3038,-3.0631,-3.1278,-3.1461,0.0,-3.2013,-3.258,-3.1054,-3.0957,-3.0889,-3.0947,-3.0947,-3.0889,-3.0889,-3.0889,-3.0655,-3.0189,-2.9808,-2.9377,-2.8882,-2.8466,-2.8291,-2.8291,-2.8291,-2.8094,-2.769,-2.7692,-2.7232,-2.6396,-2.6436,-2.5869,-2.5086,-2.459,-2.3444,-2.2007,-2.1536,-2.1347,-2.1356,0.0,0.0,0.0,0.0,0.0,0.0,0.0,0.0,0.0,0.0,0.0,0.0,0.0,0.0,0.0,0.0,-0.882,-0.836,-0.671,-0.7087,-0.7034,-0.6238,-0.6229,-0.6057,-0.5668,-0.5551,-0.527,-0.4765,-0.4798,-0.4659,-0.4391,-0.441,-0.4761,-0.54,-0.6429,-0.8,-1.0125,-1.2543,-1.4292,-1.5512,-1.6938,-1.7951,-1.8465,-1.8399,-1.8458,-1.8502,0.0,-1.8745,-1.9494,-2.0012,-2.0654,-2.1263,-2.158,-2.1539,-2.1329,-2.0798,-2.0287,-2.0263,-2.177,0.0,-2.4083,-2.5586,-2.6712,-2.7609,-2.798,-2.8218,-2.8396,-2.8763,-2.962,-3.0626,-3.1577,-3.3767,-3.5417,-3.5497,-3.5997,-3.5793,-3.4074,-3.2957,-3.1698,-2.9977,-3.1507,0.0,0.0,0.0,0.0,-3.0986,-3.0605,-3.0566,-3.0869,-3.0889,-3.0889,-3.0889,-3.062,-3.0229,-2.9791,-2.9377,-2.893,-2.85,-2.8364,-2.8291,-2.8291,-2.8009,-2.7664,-2.7209,-2.6939,-2.5977,-2.459,-2.4634,-2.3617,-2.21,-2.1921,-2.124,-2.0312,-2.0175,-1.9596,-1.8888,0.0,0.0,0.0,0.0,0.0,0.0,0.0,0.0,0.0,0.0,0.0,0.0,0.0,0.0,0.0,0.0,0.0,-0.6844,-0.5502,-0.5426,-0.505,-0.429,-0.4498,-0.4452,-0.4026,-0.4205,-0.407,-0.3609,-0.36,-0.3416,-0.3099,-0.3103,-0.3168,-0.3337,-0.4825,-0.6327,-0.8007,-1.136,-1.3336,-1.4384,-1.5915,-1.6975,-1.7492,-1.7074,-1.73,0.0,-1.7305,-1.7727,-1.8602,-1.8921,-1.9323,-1.9724,-2.0061,-2.0278,-2.0232,-1.9722,-1.9331,-1.9389,-2.1049,-2.2567,-2.4043,-2.5524,-2.6917,-2.7937,-2.808,-2.8184,-2.808,-2.7406,-2.7965,-2.8697,-2.893,-3.0807,-3.2403,-3.2812,-3.3186,-3.3266,-3.2653,-3.1543,-3.0576,-2.9875,-3.102,0.0,0.0,0.0,0.0,-3.0653,-3.0518,-3.0576,-3.0869,-3.0889,-3.0801,-3.0663,-3.0369,-2.9931,-2.9335,-2.906,-2.871,-2.8291,-2.8291,-2.798,-2.7317,-2.7091,-2.637,-2.5321,-2.5066,-2.4199,-2.2968,-2.2996,-2.2032,-2.0618,-2.0618,-1.9896,-1.8856,-1.8878,-1.8064,-1.7077,0.0,0.0,0.0,0.0,0.0,0.0,0.0,0.0,0.0,0.0,0.0,0.0,0.0,0.0,0.0,0.0,0.0,0.0,-0.4614,-0.4145,-0.3525,-0.2722,-0.2815,-0.2916,-0.2914,-0.3079,-0.3169,-0.328,-0.328,-0.2696,-0.1538,-0.1545,-0.1666,-0.1896,-0.3257,-0.4747,-0.6473,-1.0528,-1.2197,-1.232,-1.5089,-1.5983,-1.5692,-1.5488,-1.6025,-1.6772,-1.5831,-1.6129,-1.6903,-1.6426,-1.6581,-1.6997,-1.7154,-1.7879,-1.8691,-1.8751,-1.8949,-1.9366,-2.0302,-2.2022,-2.3821,-2.4761,-2.661,-2.8091,-2.7754,-2.7939,-2.7842,-2.6582,-2.6289,-2.6665,-2.8051,0.0,-2.8391,-3.0032,-3.0432,-3.046,-3.0276,-2.9893,-2.9775,0.0,0.0,0.0,0.0,0.0,0.0,-3.0052,0.0,-3.0859,-3.0762,-3.0772,-3.0519,-2.9964,-2.9937,-2.9528,-2.8682,-2.8642,-2.8466,-2.8048,-2.8077,-2.7166,-2.5521,-2.544,-2.428,-2.2308,-2.2257,-2.2013,-2.1587,-2.153,-2.1095,-2.0361,-2.0369,-1.9241,-1.7591,-1.7617,-1.6847,-1.5961,0.0,0.0,0.0,0.0,0.0,0.0,0.0,0.0,0.0,0.0,0.0,0.0,0.0,0.0,0.0,0.0,0.0,0.0,-0.2902,-0.2725,-0.2569,-0.2347,-0.2588,-0.2094,-0.0677,-0.0861,-0.0305,0.1096,0.1096,0.1299,0.1703,0.1693,0.135,0.0591,-0.1558,-0.3294,-0.483,-0.8769,-1.0566,-1.0902,-1.337,-1.4448,-1.4582,-1.5159,-1.559,-1.5772,-1.5298,-1.5133,-1.5348,-1.6491,-1.7441,-1.8186,-1.82,-1.7859,-1.7556,-1.7995,-1.7766,-1.7725,-1.9412,-2.0794,-2.2338,-2.4703,-2.5726,-2.6405,-2.7466,-2.7256,-2.6602,-2.5605,-2.4893,-2.4385,-2.4117,0.0,0.0,-2.7412,-2.963,0.0,-3.0797,-3.0625,0.0,-3.0225,0.0,-3.0342,-2.9785,-3.0234,0.0,0.0,-2.9652,-2.9978,-2.908,-2.9039,-2.8355,-2.6791,-2.6444,-2.6044,-2.5621,-2.5305,-2.5022,-2.495,-2.4953,-2.4629,-2.395,-2.3623,-2.3028,-2.2292,-2.1702,-2.0853,-1.9829,-1.9552,-1.8664,-1.74,-1.7386,-1.694,-1.6292,-1.6278,-1.6096,-1.5872,0.0,0.0,0.0,0.0,0.0,0.0,0.0,0.0,0.0,0.0,0.0,0.0,0.0,0.0,0.0,0.0,0.0,0.0,0.0,-0.0641,-0.0279,-0.0279,-0.0462,-0.003,0.1057,0.1077,0.1386,0.2014,0.2529,0.2602,0.22,0.2183,0.194,0.1365,-0.0976,-0.2713,-0.4114,-0.7486,-0.9238,0.0,0.0,-1.2789,-1.2925,-1.3542,-1.3808,-1.3855,-1.3547,-1.3782,-1.4392,-1.5504,0.0,-1.7591,-1.7709,-1.7541,-1.7315,-1.7691,0.0,-1.7524,-1.8589,-1.9976,-2.1652,-2.3945,-2.496,-2.5642,-2.6618,-2.6445,-2.5693,-2.4248,-2.3564,0.0,-2.2363,-2.3797,0.0,0.0,0.0,0.0,-2.9956,-3.0195,-3.0351,0.0,-3.0732,0.0,-2.9164,-3.0171,-2.9808,0.0,-2.8504,-2.8781,-2.7425,-2.7383,-2.6713,-2.5343,-2.5069,-2.4655,-2.4192,-2.3784,-2.3606,-2.3606,-2.3483,-2.2958,-2.2013,-2.1743,-2.1159,-2.0219,0.0,-1.8998,-1.831,-1.7946,-1.7225,-1.6304,-1.6305,-1.6122,-1.5784,-1.5784,-1.5784,-1.5784,0.0,0.0,0.0,0.0,0.0,0.0,0.0,0.0,0.0,0.0,0.0,0.0,0.0,0.0,0.0,0.0,0.0,0.0,0.0,0.0,0.2212,0.2211,0.2211,0.2268,0.2387,0.2691,0.2452,0.1638,0.2701,0.2762,0.1862,0.186,0.1758,0.1419,-0.0657,-0.2311,-0.3714,-0.6308,-0.787,-0.874,-1.045,-1.1075,-1.1064,0.0,-1.174,-1.1831,-1.1632,-1.2559,-1.3969,-1.4297,-1.5381,-1.6545,-1.6868,-1.7291,-1.7742,-1.7802,-1.7955,-1.8063,-1.8153,-1.952,-2.1227,-2.2797,-2.4065,-2.5017,-2.5336,-2.5412,-2.4834,-2.2842,0.0,-2.2217,-2.1787,-2.2148,-2.2949,-2.4287,0.0,-2.709,-2.8838,-2.9414,-2.9961,-3.0791,-3.0704,-3.002,-2.8545,-2.9484,-2.8906,-2.5849,-2.6902,-2.7073,-2.5667,-2.5607,-2.5177,-2.4277,-2.423,-2.3884,-2.3215,-2.2925,-2.2802,-2.2802,-2.2492,-2.1498,-1.9969,-1.9969,-1.9112,-1.7562,0.0,0.0,-1.71,-1.6731,-1.6453,-1.6213,-1.6213,-1.6052,-1.5784,-1.5784,-1.5784,-1.5784,0.0,0.0,0.0,0.0,0.0,0.0,0.0,0.0,0.0,0.0,0.2296,0.0,0.0,0.0,0.0,0.0,0.0,0.0,0.0,0.0,0.0,0.2204,0.2204,0.2569,0.3332,0.3527,0.3866,0.4399,0.4766,0.4933,0.4855,0.4859,0.4048,0.2581,0.1296,-0.0355,-0.228,-0.447,-0.563,-0.6222,-0.8334,-0.9376,-0.9767,-1.0941,0.0,0.0,-1.1826,-1.2732,-1.4035,-1.4811,-1.622,-1.7764,-1.8083,-1.8269,-1.8446,-1.8952,-1.8795,-1.8515,-1.9005,-1.9407,-2.0042,-2.1568,-2.2196,-2.2738,-2.3668,-2.3749,0.0,0.0,-2.1709,-2.1278,-2.0918,-2.1738,-2.3047,-2.4687,0.0,0.0,0.0,0.0,-3.0293,0.0,0.0,0.0,0.0,0.0,0.0,0.0,0.0,-2.3644,-2.3627,-2.3574,-2.2802,-2.1067,-2.0572,-2.0317,-2.0155,-1.9849,-1.9689,-1.9689,-1.9382,-1.8974,-1.8414,-1.8414,-1.8137,-1.7555,-1.7001,0.0,-1.6714,-1.6214,-1.5925,-1.5905,-1.5905,-1.5872,-1.5784,-1.5784,-1.5784,-1.5784,0.0,0.0,0.0,0.0,0.0,0.0,0.0,0.0,0.0,0.5912,0.5268,0.4263,0.0,0.0,0.0,0.0,0.0,0.0,0.0,0.0,0.0,0.0,0.34,0.3599,0.4052,0.4279,0.4348,0.4319,0.0,0.5169,0.4785,0.4843,0.4141,0.276,0.1868,-0.0039,-0.263,-0.3683,-0.4904,-0.6273,-0.7343,-0.8025,-0.8502,0.0,0.0,0.0,0.0,-1.0806,-1.2265,-1.3524,-1.519,-1.7003,-1.8304,-1.8831,-1.9048,-1.9465,-1.9424,-1.9263,-1.9526,-1.9616,-1.9951,-2.1246,-2.1284,-2.1143,-2.1809,0.0,0.0,0.0,-1.934,-1.9303,-1.9676,-2.0602,0.0,0.0,0.0,0.0,0.0,0.0,0.0,0.0,0.0,0.0,0.0,0.0,0.0,0.0,0.0,-2.2171,-2.1612,-2.1484,-2.0976,-2.0013,-1.9593,-1.9292,-1.9138,-1.8844,-1.8624,-1.8408,-1.8163,-1.7943,-1.7802,-1.7802,-1.7722,-1.7549,-1.6961,0.0,-1.666,-1.6072,-1.5784,-1.5784,-1.5784,-1.5784,-1.5784,-1.5784,-1.5391,-1.48,0.0,0.0,0.0,0.0,0.0,0.0,0.0,0.6676,0.7296,0.8011,0.7903,0.6919,0.4611,0.5002,0.4861,0.0,0.0,0.0,0.0,0.0,0.0,0.0,0.0,0.0,0.0,0.0,0.0,0.0,0.4939,0.0,0.0,0.0,0.0,0.0,0.1571,-0.0347,-0.2973,-0.3454,-0.4784,0.0,0.0,-0.7177,0.0,0.0,0.0,0.0,0.0,-0.9008,-1.0524,-1.1927,-1.3534,-1.5382,-1.7504,-1.8695,-1.934,-1.9627,-1.9746,-1.9796,-1.9826,-1.9806,-2.0037,-2.0903,-2.0527,-1.9985,-2.0076,-1.9494,0.0,0.0,-1.7302,-1.7577,-1.847,-1.9167,-2.0183,0.0,-2.2953,0.0,0.0,0.0,0.0,0.0,0.0,0.0,0.0,0.0,0.0,0.0,0.0,0.0,-2.0181,-1.9867,-1.9733,-1.98,-1.9519,-1.9225,-1.8925,-1.8637,-1.8343,-1.7989,-1.7736,-1.7582,-1.7582,-1.7582,-1.7582,-1.7549,-1.6961,0.0,0.0,-1.6072,-1.5635,-1.5391,-1.5391,-1.5194,-1.4956,-1.4956,-1.4316,-1.3488,0.0,0.0,0.0,0.0,0.0,0.0,0.0,0.8469,0.8884,0.9919,1.0022,0.9279,0.7359,0.7205,0.6837,0.0,0.0,0.0,0.0,0.0,0.0,0.0,0.0,0.0,0.0,0.0,0.0,0.0,0.0,0.0,0.0,0.0,0.0,0.0,0.0,0.0,-0.1886,-0.3765,0.0,0.0,0.0,0.0,0.0,0.0,0.0,0.0,0.0,-0.8863,-1.0134,-1.0865,0.0,-1.3412,-1.5311,-1.7293,-1.9022,-1.9344,0.0,0.0,-1.9818,-1.9802,-1.9799,-1.9665,-1.9511,-1.9295,-1.8664,0.0,-1.825,-1.745,-1.7302,-1.7334,-1.7423,-1.7514,-1.8096,-1.976,-2.0093,-2.1043,0.0,0.0,0.0,0.0,0.0,0.0,0.0,0.0,0.0,0.0,0.0,0.0,-1.982,-1.9566,-1.9533,-1.9793,-1.9519,-1.9225,-1.8925,-1.8637,-1.8343,-1.7989,-1.7736,-1.7582,-1.7582,-1.7582,-1.7582,-1.7549,-1.6961,0.0,0.0,-1.6072,-1.5099,-1.407,-1.407,-1.3349,-1.2237,-1.2237,-1.2188,-1.2091,0.0,0.0,0.0,0.0,0.0,0.0,0.0,0.9084,0.9715,1.0651,1.0121,0.9394,0.8777,0.8062,0.7013,0.0,0.0,0.0,0.0,0.0,0.0,0.0,0.0,0.0,0.0,0.0,0.0,0.0,0.0,0.0,0.0,0.0,0.0,0.0,0.0,0.0,0.0,0.0,0.0,0.0,0.0,0.0,0.0,0.0,0.0,0.0,0.0,0.0,-0.8931,0.0,0.0,0.0,-1.36,-1.5253,0.0,0.0,-1.9037,-1.9285,-1.9482,-2.0319,-2.0861,-1.9665,-1.9403,-1.9021,-1.7632,0.0,-1.5928,-1.5482,-1.5387,-1.5612,-1.6411,-1.6454,-1.6938,-1.8827,-1.8803,-1.9392,0.0,0.0,0.0,0.0,0.0,0.0,0.0,0.0,0.0,0.0,0.0,0.0,-1.9533,-1.9491,-1.9419,-1.9539,-1.9252,-1.8958,-1.8664,-1.837,-1.807,-1.7762,-1.7642,-1.7582,-1.7582,-1.6658,-1.6674,-1.7243,-1.5113,0.0,0.0,-1.4279,-1.3638,-1.3824,-1.3006,-1.2382,-1.1896,-1.1896,-1.1414,-1.0779,0.0,0.0,0.0,0.0,0.0,0.0,0.9226,0.9766,1.0355,1.1083,0.9925,0.9019,0.8925,0.7876,0.6604,0.5078,0.0,0.0,0.0,0.0,0.0,0.0,0.0,0.0,0.0,0.0,0.0,0.4921,0.0,0.0,0.0,0.0,0.0,0.0,0.0,0.0,0.0,0.0,0.0,0.0,0.0,0.0,0.0,0.0,0.0,0.0,0.0,0.0,0.0,0.0,0.0,-1.0801,-1.2786,-1.3808,-1.4731,-1.7134,-1.829,-1.8844,-1.9052,-2.0162,-2.0894,-1.9588,-1.9047,-1.8455,0.0,0.0,-1.4569,-1.4275,-1.4148,-1.4423,-1.5419,-1.543,-1.5712,-1.7278,-1.7231,-1.7598,-1.9384,0.0,0.0,0.0,0.0,0.0,0.0,0.0,0.0,0.0,0.0,0.0,0.0,-1.9424,-1.9424,-1.9424,-1.9078,-1.8552,-1.7854,-1.7515,-1.7003,-1.6333,-1.6253,-1.6268,-1.6209,-1.5118,-1.535,-1.6446,0.0,0.0,0.0,-1.3144,-1.2479,-1.3199,-1.1848,-1.1121,-1.073,-1.073,-1.0194,-0.941,0.0,0.0,0.0,0.0,0.0,0.0,0.0,1.0788,1.0902,1.1245,0.9775,0.8389,0.7614,0.662,0.5762,0.5146,0.0,0.0,0.0,0.0,0.0,0.0,0.0,0.0,0.0,0.0,0.4678,0.3813,0.4063,0.3204,0.0,0.0,0.0,0.0,0.0,0.0,0.0,0.0,0.0,0.0,0.0,0.0,0.0,0.0,0.0,0.0,0.0,0.0,0.0,0.0,0.0,0.0,0.0,-1.3228,-1.3463,-1.5689,-1.7341,-1.8497,-1.8497,-1.8981,-1.9357,-1.8998,-1.825,-1.74,0.0,-1.5638,-1.4921,-1.4576,-1.4282,-1.4175,-1.4462,-1.4282,-1.4224,-1.4482,-1.4814,-1.5355,-1.6201,0.0,0.0,0.0,0.0,0.0,0.0,0.0,0.0,0.0,0.0,0.0,0.0,-1.9424,-1.9424,-1.9424,-1.9078,-1.8075,-1.636,-1.6044,-1.5072,-1.3318,-1.3138,-1.3031,-1.3021,-1.2915,-1.3721,0.0,0.0,0.0,0.0,-1.3215,-1.1901,-1.1799,-1.0534,-0.9217,-0.8038,-0.8038,-0.8038,-0.8038,0.0,0.0,0.0,0.0,0.0,0.0,0.0,1.0788,1.0577,0.9955,0.8738,0.7593,0.6711,0.5783,0.5175,0.4982,0.0,0.0,0.0,0.0,0.0,0.0,0.0,0.0,0.0,0.0,0.3885,0.3186,0.252,0.1959,0.1486,0.0829,-0.0252,0.0,0.0,0.0,0.0,0.0,0.0,0.0,0.0,0.0,0.0,0.0,0.0,0.0,0.0,0.0,0.0,0.0,0.0,0.0,0.0,0.0,0.0,-1.5081,-1.6181,-1.7112,-1.7514,-1.8635,-1.9392,-1.8293,-1.7995,-1.7604,-1.6265,-1.5137,-1.4335,-1.4242,-1.4155,-1.4175,-1.4469,-1.4282,-1.4315,-1.5003,-1.503,-1.5176,0.0,0.0,0.0,0.0,0.0,0.0,0.0,0.0,0.0,0.0,0.0,0.0,0.0,-1.6418,-1.6344,-1.751,-1.7252,-1.6304,-1.4534,-1.4249,-1.3823,-1.3318,-1.3085,-1.3026,-1.2968,-1.1869,0.0,0.0,0.0,0.0,0.0,-1.0385,-0.9752,-1.0489,-0.9167,-0.8382,-0.7988,-0.7988,-0.7988,-0.7988,0.0,0.0,0.0,0.0,0.0,0.0,0.0,1.0593,1.0074,0.9146,0.7964,0.6949,0.6211,0.5393,0.4962,0.5077,0.0,0.0,0.0,0.0,0.0,0.0,0.0,0.0,0.0,0.3489,0.3039,0.2285,0.1629,0.1207,0.0989,0.0298,-0.0603,-0.1676,-0.1676,0.0,0.0,0.0,0.0,0.0,0.0,0.0,-0.869,0.0,0.0,0.0,0.0,0.0,0.0,0.0,0.0,0.0,0.0,0.0,0.0,0.0,-1.5397,-1.598,-1.6677,-1.781,-1.8581,-1.7676,-1.7435,0.0,-1.59,-1.493,-1.4249,-1.4249,-1.4162,-1.4175,-1.4469,-1.4282,-1.4302,-1.4957,-1.501,-1.5109,0.0,0.0,0.0,0.0,0.0,0.0,0.0,0.0,0.0,0.0,0.0,0.0,0.0,-1.468,-1.4287,-1.4737,-1.5109,-1.4516,-1.2877,-1.2612,-1.2186,-1.1642,-1.142,-1.1287,-1.1278,-1.0193,0.0,0.0,0.0,0.0,0.0,-0.9145,-0.8775,-0.985,-0.8531,-0.7988,-0.7988,-0.7988,-0.7988,-0.7988,0.0,0.0,0.0,0.0,0.0,0.0,0.0,0.0,0.0,0.0,0.7374,0.6365,0.5955,0.5309,0.5036,0.0,0.0,0.0,0.0,0.0,0.0,0.0,0.0,0.0,0.0,0.2931,0.2156,0.1212,0.1193,0.0784,0.0,0.0,-0.0585,-0.166,-0.166,0.0,0.0,0.0,0.0,0.0,-0.8013,-0.8672,0.0,0.0,0.0,0.0,0.0,0.0,0.0,0.0,0.0,0.0,0.0,0.0,0.0,0.0,0.0,0.0,0.0,-1.6636,-1.7079,-1.7079,0.0,0.0,-1.5464,-1.4897,0.0,-1.4489,-1.4275,-1.4175,-1.4469,-1.4282,-1.4188,-1.4502,-1.4783,0.0,0.0,0.0,0.0,0.0,0.0,0.0,0.0,0.0,0.0,0.0,0.0,0.0,0.0,-1.3825,-1.2993,-1.1367,-1.2617,-1.2673,-1.1303,-1.1067,-1.0221,-0.8865,-0.8615,-0.8465,-0.8459,-0.817,0.0,0.0,0.0,0.0,0.0,-0.9134,-0.8726,-0.9756,-0.8482,-0.7988,-0.7988,-0.7988,-0.7988,-0.7988,0.0,0.0,0.0,0.0,0.0,0.0,0.0,0.0,0.0,0.0,0.6303,0.5606,0.5212,0.5009,0.5036,0.0,0.0,0.0,0.0,0.0,0.0,0.0,0.0,0.0,0.0,0.1652,0.1183,0.0311,0.0286,0.0213,0.0,0.0,-0.0138,-0.0413,-0.0413,-0.1832,0.0,0.0,0.0,0.0,-0.8761,-0.9462,0.0,0.0,0.0,0.0,-1.4489,-1.5099,0.0,0.0,0.0,0.0,0.0,0.0,0.0,0.0,-1.5167,-1.5313,-1.5323,0.0,-1.5812,-1.5812,-1.5538,-1.5223,0.0,-1.4449,-1.4188,-1.4188,-1.4135,-1.4175,-1.4469,-1.4282,-1.4255,-1.4821,-1.4961,0.0,0.0,0.0,0.0,0.0,0.0,0.0,0.0,0.0,0.0,0.0,0.0,0.0,0.0,-1.0871,-0.9957,-0.9536,-0.9738,-0.9734,-0.9536,-0.9323,-0.9082,-0.876,-0.8462,-0.8371,-0.8316,-0.8126,0.0,0.0,0.0,0.0,-0.8977,-0.8297,-0.8187,-0.8432,-0.8137,-0.7988,-0.7988,-0.7988,-0.7988,-0.7988,0.0,0.0,0.0,0.0,0.0,0.0,0.0,0.0,0.0,0.0,0.0,0.0,0.0,0.0,0.0,0.0,0.0,0.0,0.0,0.0,0.0,0.0,0.0,0.1656,0.1194,0.0404,-0.0303,-0.0836,-0.1321,-0.1325,-0.084,-0.0813,-0.055,-0.0046,-0.1212,-0.2849,0.0,0.0,0.0,0.0,-0.9988,0.0,0.0,0.0,0.0,0.0,-1.5488,-1.5784,0.0,-1.5784,-1.5784,-1.5758,0.0,0.0,0.0,0.0,-1.4881,-1.4979,-1.5008,-1.528,-1.5591,-1.5591,-1.5277,-1.4968,-1.4763,-1.4396,-1.4088,-1.4088,0.0,-1.4135,-1.4295,-1.4302,-1.4256,-1.4103,-1.4184,0.0,0.0,0.0,0.0,0.0,0.0,0.0,0.0,0.0,0.0,0.0,0.0,0.0,0.0,-0.935,-0.8832,-0.8832,-0.8686,-0.8679,-0.8832,-0.8682,-0.8604,-0.8604,-0.8377,-0.8323,-0.8316,-0.8109,-0.7988,0.0,0.0,0.0,-0.7988,-0.7988,-0.7988,-0.7988,-0.7988,-0.7988,-0.7939,-0.7285,-0.7083,-0.6983,0.0,0.0,0.0,0.0,0.0,0.0,0.0,0.0,0.0,0.0,0.0,0.0,0.0,0.0,0.0,0.0,0.0,0.0,0.0,0.0,0.0,0.0,0.0,0.0661,0.0624,-0.0993,-0.1898,-0.2036,-0.2947,-0.285,-0.1795,-0.1784,-0.1272,-0.037,-0.2975,-0.4757,0.0,0.0,0.0,0.0,-1.1311,0.0,0.0,0.0,0.0,0.0,0.0,0.0,0.0,-1.5731,-1.5718,-1.5712,-1.5424,0.0,0.0,0.0,0.0,0.0,-1.4926,-1.5394,-1.5778,-1.573,-1.5405,-1.5044,-1.4921,-1.4526,-1.4142,0.0,0.0,0.0,-1.394,-1.3937,0.0,0.0,0.0,0.0,0.0,0.0,0.0,0.0,0.0,0.0,0.0,0.0,0.0,0.0,0.0,0.0,0.0,-0.876,-0.8676,-0.8676,-0.853,-0.8513,-0.8642,-0.8516,-0.8452,-0.8448,-0.8303,-0.8235,-0.8231,-0.8099,-0.7988,0.0,0.0,0.0,-0.7988,-0.7988,-0.7988,-0.7988,-0.7786,-0.7686,-0.7537,-0.6179,-0.5677,-0.5525,0.0,0.0,0.0,0.0,0.0,0.0,0.0,0.0,0.0,0.0,0.0,0.0,0.0,0.0,0.0,0.0,0.0,0.0,0.0,0.0,0.0,0.0,-0.1096,-0.1581,-0.2389,-0.2722,-0.2966,-0.3167,-0.3303,-0.2852,-0.1783,-0.1789,-0.1703,-0.1665,-0.4403,-0.5731,-0.5986,0.0,0.0,-1.0177,-1.2263,0.0,0.0,0.0,0.0,0.0,0.0,0.0,0.0,-1.5545,-1.5464,-1.5411,-1.5169,0.0,0.0,0.0,0.0,0.0,-1.4922,-1.5394,-1.573,-1.5514,-1.5388,-1.518,-1.4692,-1.4491,-1.4382,0.0,0.0,0.0,0.0,-1.2171,0.0,0.0,0.0,0.0,0.0,0.0,0.0,0.0,0.0,0.0,0.0,0.0,0.0,0.0,0.0,0.0,0.0,-0.8601,-0.8516,-0.8516,-0.8377,-0.8368,-0.8336,-0.8368,-0.8354,-0.835,-0.8147,-0.8025,-0.8025,-0.8002,-0.7988,0.0,0.0,-0.7988,-0.7988,-0.7988,-0.7988,-0.7889,-0.6731,-0.6331,-0.6129,-0.482,-0.4316,-0.4268,0.0,0.0,0.0,0.0,0.0,0.0,0.0,0.0,0.0,0.0,0.0,0.0,0.0,0.0,0.0,0.0,0.0,0.0,0.0,0.0,0.0,-0.4059,-0.421,-0.4103,-0.3904,-0.5001,-0.5392,-0.504,-0.5679,-0.5164,-0.3566,-0.3091,-0.3213,-0.3926,-0.534,-0.6328,-0.6996,-0.91,-1.0391,-1.1151,0.0,0.0,0.0,0.0,0.0,0.0,0.0,0.0,0.0,0.0,-1.4741,-1.4176,-1.3893,0.0,0.0,0.0,0.0,0.0,-1.2793,-1.3134,-1.3387,-1.3495,-1.4045,-1.4288,-1.316,-1.2777,-1.2629,0.0,0.0,0.0,0.0,0.0,0.0,0.0,0.0,0.0,0.0,0.0,0.0,0.0,0.0,0.0,0.0,0.0,0.0,0.0,0.0,0.0,0.0,0.0,-0.8367,-0.8367,-0.8225,-0.8147,-0.8147,-0.8147,-0.8147,-0.8143,-0.8022,-0.7988,-0.7988,-0.7988,-0.7988,-0.7988,0.0,-0.7988,-0.7939,-0.7235,-0.6933,-0.6783,-0.5422,-0.492,-0.477,-0.3416,-0.2464,-0.1862,0.0,0.0,0.0,0.0,0.0,0.0,0.0,0.0,0.0,0.0,0.0,0.0,0.0,0.0,0.0,0.0,0.0,0.0,0.0,0.0,-0.2898,-0.6361,-0.7168,-0.6941,-0.573,-0.7263,-0.7748,-0.7109,-0.8059,-0.762,-0.5866,-0.5062,-0.5141,-0.5997,-0.6303,-0.6955,-0.7901,-0.938,-1.0583,-1.1541,0.0,0.0,0.0,0.0,0.0,0.0,0.0,0.0,0.0,0.0,0.0,0.0,0.0,0.0,0.0,-1.0661,-1.0611,-1.0659,-1.0992,-1.1234,-1.1355,-1.1327,-1.2384,-1.3067,-1.1943,-1.1419,-1.1253,0.0,0.0,0.0,0.0,0.0,0.0,0.0,0.0,0.0,0.0,0.0,0.0,0.0,0.0,0.0,0.0,0.0,0.0,0.0,0.0,0.0,0.0,0.0,-0.8218,-0.8218,-0.8102,-0.7988,-0.7988,-0.7988,-0.7988,-0.7988,-0.7988,-0.7988,-0.7988,-0.7988,-0.7988,-0.7988,-0.7686,-0.7537,-0.7437,-0.6077,-0.5525,-0.5375,-0.4067,-0.3316,-0.2916,-0.1913,-0.0857,0.0,0.0,0.0,0.0,0.0,0.0,0.0,0.0,0.0,0.0,0.0,0.0,0.0,0.0,0.0,0.0,0.0,0.0,0.0,0.0,0.0,-0.5368,-0.6795,-0.9429,-1.0253,-0.8988,-0.9102,-0.9206,-0.9291,-0.9355,-0.8984,-0.8165,-0.7504,-0.7201,-0.7214,-0.7661,-0.7831,-0.7904,-0.9364,-1.0047,-1.0243,-1.1492,0.0,0.0,0.0,0.0,0.0,0.0,0.0,0.0,0.0,0.0,0.0,0.0,0.0,-1.0631,-1.0616,-1.0611,-1.0656,-1.0991,-1.1276,-1.1206,-0.9988,-1.0754,-1.192,-1.2122,-1.1887,0.0,-1.1652,0.0,0.0,0.0,0.0,0.0,0.0,0.0,0.0,0.0,0.0,0.0,0.0,0.0,0.0,0.0,0.0,0.0,0.0,0.0,0.0,0.0,0.0,0.0,-0.8005,-0.7995,-0.7988,-0.7988,-0.7988,-0.7988,-0.7988,-0.7988,-0.7988,-0.7988,-0.7988,-0.7988,-0.7939,-0.6681,-0.6129,-0.6029,-0.4718,-0.4166,-0.4017,-0.2665,-0.136,-0.0252,-0.0202,-0.0101,0.0,0.0,0.0,0.0,0.0,0.0,0.0,0.0,0.0,0.0,0.0,0.0,0.0,0.0,0.0,0.0,0.0,0.0,0.0,0.0,-0.4461,-0.6758,-0.8697,-1.024,-1.1218,-1.1467,-1.1259,-1.0879,-1.0318,-1.0897,-1.1147,-1.1058,-1.1192,-1.0806,-1.0016,-0.9469,-0.9239,-0.9151,-0.8852,-0.9217,-1.0047,-1.0534,-1.1138,0.0,0.0,0.0,0.0,0.0,0.0,0.0,0.0,-1.1304,-1.0328,-1.025,-0.9357,-0.8444,-0.8444,-0.8444,-0.846,-0.8569,-0.888,-0.9088,-0.8573,-0.8935,-0.9448,0.0,-0.9745,-0.9697,-0.9709,-0.9485,0.0,0.0,0.0,0.0,0.0,0.0,0.0,0.0,0.0,0.0,0.0,0.0,0.0,0.0,0.0,0.0,0.0,0.0,0.0,0.0,0.0,0.0,-0.6781,-0.6731,-0.6376,-0.552,-0.552,-0.552,-0.552,-0.6376,-0.6731,-0.6734,-0.5874,-0.552,-0.547,-0.497,-0.477,-0.467,-0.3316,-0.2764,-0.2614,-0.126,-0.0454,0.0,0.0,0.0,0.0,0.0,0.0,0.0,0.0,0.0,0.0,0.0,0.0,0.0,0.0,0.0,0.0,0.0,0.0,0.0,0.0,0.0,0.0,-0.4491,-0.6402,-0.8369,-1.0437,-1.0881,-1.1656,-1.2893,-1.2505,-1.1959,-1.1273,-1.213,-1.2911,-1.3632,-1.3417,-1.2735,-1.163,-1.0511,-0.9826,-0.938,-0.8428,-0.8531,-0.9361,-0.9361,-0.9786,0.0,0.0,0.0,0.0,0.0,0.0,0.0,0.0,-0.9836,-0.889,-0.889,-0.8057,-0.7095,-0.7095,-0.7129,-0.7214,-0.7214,-0.7438,-0.7685,-0.7733,-0.7855,-0.8045,-0.8343,-0.8486,-0.8608,-0.8798,-0.8852,0.0,0.0,0.0,0.0,0.0,0.0,0.0,0.0,0.0,0.0,0.0,0.0,0.0,0.0,0.0,0.0,0.0,0.0,0.0,0.0,0.0,0.0,0.0,-0.5575,-0.492,-0.4016,-0.4016,-0.4016,-0.4016,-0.452,-0.4972,-0.5322,-0.4418,-0.4016,-0.3966,-0.3565,-0.3364,-0.3265,-0.1913,-0.136,-0.126,-0.0353,0.0,0.0,0.0,0.0,0.0,0.0,0.0,0.0,0.0,0.0,0.0,0.0,0.0,0.0,0.0,0.0,0.0,0.0,0.0,0.0,0.0,0.0,0.0,-0.7834,-0.9042,-1.037,-1.1828,-1.1453,-1.1864,-1.32,-1.2619,-1.2311,-1.2311,-1.2919,-1.4065,-1.5684,-1.3882,-1.2562,-1.1671,-1.0511,-0.9392,-0.8323,-0.8073,-0.7988,-0.7988,-0.7988,-0.7897,-0.7887,0.0,0.0,0.0,0.0,0.0,0.0,0.0,-0.9836,-0.889,-0.889,-0.8061,-0.7098,-0.7095,-0.7251,-0.7415,-0.7415,-0.7415,-0.7456,-0.7563,0.0,0.0,-0.8577,-0.8713,-0.8882,-0.9483,-0.9127,-0.871,0.0,0.0,0.0,0.0,0.0,0.0,0.0,0.0,0.0,0.0,0.0,0.0,0.0,0.0,0.0,0.0,0.0,0.0,0.0,0.0,0.0,0.0,-0.4668,-0.3964,-0.3966,-0.3964,-0.3964,-0.3964,-0.2613,-0.2663,-0.3966,-0.3966,-0.3966,-0.3865,-0.2564,-0.1962,-0.1862,-0.0555,0.0,0.0,0.0,0.0,0.0,0.0,0.0,0.0,0.0,0.0,0.0,0.0,0.0,0.0,0.0,0.0,0.0,0.0,0.0,0.0,0.0,0.0,0.0,0.0,0.0,0.0,-0.9339,-0.9882,-1.0484,-1.1118,-1.2373,-1.3475,-1.4297,-1.4154,-1.4052,-1.4052,-1.4779,-1.5499,-1.632,-1.6297,-1.5705,-1.4489,-1.2328,-1.1133,-1.069,-0.8812,-0.7988,-0.7988,-0.7988,-0.784,-0.7706,0.0,0.0,0.0,0.0,0.0,0.0,0.0,0.0,0.0,-0.7621,-0.7481,-0.7282,-0.7129,-0.7251,-0.735,-0.7238,-0.7366,0.0,-0.7712,0.0,0.0,0.0,-0.8862,0.0,0.0,-0.9055,0.0,0.0,0.0,0.0,0.0,0.0,0.0,0.0,0.0,0.0,0.0,0.0,0.0,0.0,0.0,0.0,0.0,0.0,0.0,0.0,0.0,0.0,0.0,-0.2823,-0.2156,-0.1209,-0.1177,-0.1169,-0.1185,-0.078,-0.1276,-0.2564,-0.1611,-0.1209,-0.1159,-0.0756,-0.0605,-0.0555,-0.0151,0.0,0.0,0.0,0.0,0.0,0.0,0.0,0.0,0.0,0.0,0.0,0.0,0.0,0.0,0.0,0.0,0.0,0.0,0.0,0.0,0.0,0.0,0.0,0.0,0.0,0.0,0.0,-1.1401,-1.1248,-1.1577,-1.2803,-1.4186,-1.5677,-1.5394,-1.5225,-1.5225,-1.5189,-1.5666,-1.6602,-1.6742,-1.594,-1.4322,-1.2613,-1.1331,-1.0229,-0.8687,-0.7955,-0.7904,-0.7965,-0.7816,-0.76,0.0,0.0,0.0,0.0,0.0,0.0,0.0,0.0,0.0,-0.7095,-0.7204,-0.7275,-0.7241,-0.7299,-0.7377,-0.74,-0.7502,0.0,-0.7929,-0.8197,-0.8391,-0.8164,0.0,0.0,0.0,0.0,0.0,0.0,0.0,0.0,0.0,0.0,0.0,0.0,0.0,0.0,0.0,0.0,0.0,0.0,0.0,0.0,0.0,0.0,0.0,0.0,0.0,0.0,0.0,-0.1484,-0.0819,0.0,0.0,0.0,0.0,0.0,-0.0434,-0.1182,-0.0345,0.0,0.0,0.0,0.0,0.0,0.0,0.0,0.0,0.0,0.0,0.0,0.0,0.0,0.0,0.0,0.0,0.0,0.0,0.0,0.0,0.0,0.0,0.0,0.0,-1.2294,0.0,0.0,0.0,0.0,0.0,0.0,0.0,0.0,0.0,-1.2415,-1.2804,-1.3158,-1.4543,-1.7175,-1.6489,-1.602,-1.5782,-1.4677,-1.489,-1.6242,-1.5584,-1.4171,-1.2178,-1.1869,-1.0409,-0.8163,-0.8004,-0.787,-0.7804,-0.7894,-0.7821,-0.7556,-0.7556,0.0,0.0,0.0,0.0,0.0,0.0,0.0,0.0,-0.7051,-0.7105,-0.7142,-0.7312,-0.7405,-0.7477,-0.7699,-0.7689,-0.7709,-0.8207,-0.8258,0.0,-0.6799,-0.8014,0.0,0.0,0.0,0.0,0.0,0.0,0.0,0.0,0.0,0.0,0.0,0.0,0.0,0.0,0.0,0.0,0.0,0.0,0.0,0.0,0.0,0.0,0.0,0.0,0.0,-0.1805,-0.0617,0.0,0.0,0.0,0.0,0.0,0.0,0.0,0.0,0.0,0.0,0.0,0.0,0.0,0.0,0.0,0.0,0.0,0.0,0.0,0.0,0.0151,0.0202,0.0202,0.0,0.0,0.0,0.0,0.0,0.0,0.0,0.0,0.0,0.0,0.0,0.0,0.0,0.0,0.0,0.0,0.0,0.0,0.0,0.0,-1.2744,-1.3006,-1.5265,-1.7025,-1.8094,-1.7973,-1.6861,-1.4797,-1.4788,-1.4461,-1.3787,-1.4094,-1.3423,-1.1908,-1.0773,-0.9918,-0.9336,-0.8166,-0.7675,-0.7648,-0.7682,-0.7512,-0.7193,-0.7193,-0.7085,0.0,0.0,0.0,0.0,0.0,0.0,0.0,-0.6827,-0.7224,-0.7305,-0.7217,-0.7275,-0.7433,-0.7448,-0.7533,0.0,0.0,-0.7754,-0.7147,-0.7008,-0.6432,0.0,0.0,0.0,0.0,0.0,0.0,0.0,0.0,0.0,0.0,0.0,0.0,0.0,0.0,0.0,0.0,0.0,0.0,0.0,0.0,0.0,0.0,0.0,0.0,0.0,-0.0419,-0.0138,0.0,0.0,0.0,0.0,0.0,0.0,0.0,0.0,0.0,0.0,0.0,0.0,0.0,0.0,0.0,0.0,0.0,0.0,0.0,0.0151,0.1159,0.1561,0.1711,0.0,0.0,0.0,0.0,0.0,0.0,0.0,0.0,0.0,0.0,0.0,0.0,0.0,0.0,0.0,0.0,0.0,0.0,0.0,0.0,-1.3666,-1.3895,-1.5748,-1.7219,-1.8194,-1.7852,-1.6985,-1.5617,-1.5188,-1.4308,-1.303,-1.3637,-1.2861,-1.0965,-1.0184,-0.9386,-0.8693,-0.7911,-0.7556,-0.7492,-0.7492,-0.735,-0.7088,-0.7021,-0.6597,-0.5969,-0.5317,0.0,0.0,0.0,0.0,0.0,0.0,0.0,-0.6177,-0.5692,-0.5894,-0.6358,-0.6659,0.0,0.0,-0.6231,0.0,-0.56,-0.4925,-0.4136,0.0,0.0,0.0,0.0,0.0,0.0,0.0,0.0,0.0,0.0,0.0,0.0,0.0,0.0,0.0,0.0,0.0,0.0,0.0,0.0,0.0,0.0,0.0,0.0,0.0,0.0,0.0,0.0,0.0,0.0,0.0,0.0,0.0,0.0,0.0,0.0,0.0,0.0,0.0,0.0,0.0,0.0,0.0344,0.0884,0.0883,0.1226,0.1815,0.2572,0.2879,0.298,0.0,0.0,0.0,0.0,0.0,0.0,0.0,0.0,0.0,0.0,0.0,0.0,0.0,0.0,0.0,0.0,0.0,0.0,0.0,0.0,0.0,-1.4826,-1.5506,-1.6469,-1.7661,-1.711,-1.6689,-1.6382,-1.5452,-1.4308,-1.3024,-1.3349,-1.2121,-0.9604,-0.9497,-0.8752,-0.756,-0.7533,-0.7431,-0.7292,-0.731,-0.7163,-0.697,-0.6665,-0.5937,-0.5029,-0.4642,-0.3966,-0.3285,-0.3285,0.0,0.0,0.0,0.0,-0.4719,-0.3993,-0.4257,-0.4961,-0.5501,0.0,-0.3933,-0.4172,-0.4177,0.0,-0.2507,0.0,0.0,0.0,0.0,0.0,0.0,0.0,0.0,0.0,0.0,0.0,0.0,0.0,0.0,0.0,0.0,0.0,0.0,0.0,0.0,0.0,0.0,0.0,0.0,0.0,0.0,0.0,0.0,0.0,0.0,0.0,0.0,0.0,0.0,0.0,0.0,0.0228,0.0184,0.0,0.0235,0.0332,0.0334,0.0531,0.1204,0.2095,0.2122,0.2739,0.3661,0.3962,0.4141,0.4212,0.0,0.0,0.0,0.0,0.0,0.0,0.0,0.0,0.0,0.0,0.0,0.0,0.0,0.0,0.0,0.0,0.0,0.0,-1.7573,0.0,0.0,-1.4942,-1.5587,-1.6095,-1.6507,-1.672,-1.6155,-1.4831,-1.4925,-1.4308,-1.2979,-1.2181,-1.0505,-0.808,-0.8059,-0.7844,-0.7394,-0.7258,-0.7075,-0.6976,-0.6844,-0.6698,-0.6491,-0.5518,-0.505,-0.4671,-0.2776,-0.2049,-0.2045,-0.2045,-0.2019,0.0,0.0,0.0,-0.379,-0.3644,-0.3727,-0.3862,-0.4033,0.0,-0.4194,0.0,-0.3463,-0.246,0.0,0.0,0.0,0.0,0.0,0.0,0.0,0.0,0.0,0.0,0.0,0.0,0.0,0.0,0.0,0.0,0.0,0.0,0.0,0.0,0.0,0.0,0.0,0.0,0.0,0.0,0.0,0.0,0.0,0.0,0.0,0.0,0.0,0.0,0.0,0.0,0.0045,0.1079,0.0999,0.0046,0.1112,0.1546,0.1663,0.2665,0.3233,0.3365,0.3362,0.3466,0.3749,0.4944,0.5437,0.5715,0.0,0.0,0.0,0.0,0.0,0.0,0.0,0.0,0.0,0.0,0.0,0.0,0.0,0.0,0.0,-1.8852,-1.8032,-1.6931,-1.5358,-1.45,-1.3886,-1.3506,-1.3938,-1.429,-1.4568,-1.471,-1.4601,-1.4282,-1.4242,-1.3887,-1.3182,-1.1894,-1.0466,-0.8999,-0.8099,-0.7621,-0.7432,-0.6529,-0.6458,-0.6777,-0.5375,-0.5102,-0.5478,-0.4337,-0.3522,-0.2928,0.0,0.0,0.0,-0.081,-0.0805,-0.0884,-0.1402,0.0,0.0,0.0,-0.2011,-0.2366,-0.1817,-0.2295,-0.2817,0.0,-0.1479,-0.0956,-0.0946,0.0,0.0,0.0,0.0,0.0,0.0,0.0,0.0,0.0,0.0,0.0,0.0,0.0,0.0,0.0,0.0,0.0,0.0,0.0,0.0,0.0,0.0,0.0,0.0,0.0,0.0,0.0,0.0,0.0,0.0,0.0,0.0,0.0,0.0702,0.1019,0.1031,0.2236,0.2157,0.109,0.2266,0.2823,0.2847,0.3357,0.4,0.4589,0.4599,0.5009,0.5646,0.6363,0.6711,0.6885,0.0,0.0,0.0,0.0,0.0,0.0,0.0,0.0,0.0,0.0,0.0,0.0,0.0,0.0,0.0,0.0,-1.7787,-1.6397,-1.3567,-1.3631,-1.3296,-1.2237,-1.2516,-1.2817,-1.3086,-1.3173,-1.3427,-1.3861,-1.3673,-1.3645,-1.3664,-1.2242,-1.1182,-1.0378,-0.8523,-0.7648,-0.7469,-0.6068,0.0,-0.634,-0.4121,-0.372,-0.4307,-0.3157,-0.2256,-0.1561,0.0,0.0,0.0,0.0,0.0,0.0,0.0,0.0,0.0,0.0,0.0,0.0,0.0,0.0,-0.125,-0.0251,0.0,0.0,0.0,0.0,0.0,0.0,0.0,0.0,0.0,0.0,0.0,0.0,0.0,0.0,0.0,0.0,0.0,0.0,0.0,0.0,0.0,0.0,0.0,0.0,0.0,0.0,0.0,0.0,0.0,0.0,0.0,0.0,0.0,0.0252,0.0423,0.0478,0.1648,0.219,0.2281,0.3527,0.3571,0.2772,0.366,0.4061,0.4065,0.4355,0.5023,0.5813,0.5814,0.6334,0.7109,0.7272,0.7434,0.7614,0.0,0.0,0.0,0.0,0.0,0.0,0.0,0.0,0.0,0.0,0.0,0.0,-2.1623,-2.1124,-2.0206,-1.8773,-1.802,-1.6397,-1.3567,-1.3435,-1.2976,-1.197,-1.2171,0.0,-1.2804,-1.306,-1.3227,-1.3253,-1.3473,-1.3878,-1.4432,-1.3363,-1.2497,-1.1702,-0.9099,-0.778,-0.7324,0.0,0.0,0.0,0.0,0.0,0.0,0.0,0.0,0.0,0.0,0.0,0.0,0.0,0.0,0.0,0.0,0.0,0.0,0.0,0.0,0.0,0.0,-0.0044,0.0,0.0,0.0,0.0,0.0,0.0,0.0,0.0,0.0,0.0,0.0,0.0,0.0,0.0,0.0,0.0,0.0,0.0,0.0,0.0,0.0,0.0,0.0,0.0,0.0,0.0,0.0,0.0,0.0,0.0,0.0,0.0,0.0,0.0,0.0,0.1018,0.158,0.1734,0.2728,0.3327,0.3525,0.4776,0.527,0.5225,0.527,0.5314,0.5403,0.6479,0.6966,0.7007,0.7013,0.7058,0.7098,0.7105,0.7343,0.76,0.0,0.0,0.0,0.0,0.0,0.0,0.0,0.0,0.0,0.0,0.0,0.0,0.0,-2.0231,-1.9336,-1.7468,-1.6887,-1.5633,-1.3299,-1.3753,-1.3341,-1.1653,-1.2044,-1.2351,-1.2496,-1.2572,-1.2719,-1.2951,-1.3213,-1.3667,-1.4206,-1.2436,-1.1514,-1.1308,-0.9673,-0.8408,-0.7403,-0.523,0.0,0.0,0.0,0.0,0.0,0.0,0.0,0.0,0.0,0.0,0.0,0.0,0.0,0.0,0.0,0.0,0.0,0.0,0.0,0.0,0.0,0.0,0.0,0.0,0.0,0.0,0.0,0.0,0.0,0.0,0.0,0.0,0.0,0.0,0.0,0.0,0.0,0.0,0.0,0.0,0.0,0.0,0.0,0.0,0.0,0.0,0.0,0.0,0.0,0.0,0.0,0.0,0.0,0.0,0.0,0.0331,0.1033,0.2173,0.2757,0.2755,0.3843,0.4471,0.4774,0.5859,0.6393,0.6473,0.6473,0.6473,0.6517,0.6918,0.7095,0.7095,0.7095,0.7095,0.7095,0.7095,0.7272,0.7468,0.0,0.0,0.0,0.0,0.0,0.0,0.0,0.0,0.0,0.0,0.0,0.0,0.0,0.0,-1.8887,-1.6913,-1.6477,-1.5467,-1.3514,-1.4008,-1.3541,-1.1646,-1.2044,-1.2305,-1.2305,-1.2398,-1.2536,-1.2636,-1.2906,-1.3187,-1.3336,-1.195,-1.1042,-1.0514,-0.9766,-0.8706,0.0,0.0,0.0,-0.4439,0.0,0.0,-0.1004,0.0,0.0,0.0,0.0,0.0,0.0,0.0,0.0,0.0,0.0,0.0,0.0,0.0,0.0,0.0,0.0,0.0,0.0,0.0,0.0,0.0,0.0,0.0,0.0,0.0,0.0,0.0,0.0,0.0,0.0,0.0,0.0,0.0,0.0,0.0,0.0,0.0,0.0,0.0,0.0,0.0,0.0,0.0,0.0,0.0,0.0,0.0,0.0175,0.0511,0.0541,0.1052,0.2075,0.3256,0.3845,0.3851,0.4971,0.5618,0.5857,0.6559,0.6937,0.7024,0.7024,0.7051,0.7095,0.7095,0.7095,0.7095,0.7095,0.7095,0.7095,0.7095,0.7238,0.7439,0.0,0.0,0.0,0.0,0.0,0.0,0.0,0.0,0.0,-2.1465,0.0,0.0,0.0,0.0,0.0,-1.7364,-1.6908,-1.5964,-1.423,-1.4115,-1.3432,-1.1921,-1.2121,-1.2238,-1.2238,-1.2523,-1.2523,-1.2238,-1.2536,-1.2406,-1.1857,-1.2078,-1.1224,-0.9494,-0.9323,-0.8529,-0.7311,0.0,-0.4912,-0.3646,0.0,-0.1079,0.0,0.0,0.0,0.0,0.0047,0.0821,0.0,0.0,0.0,0.0,0.0,0.0,0.0,0.0,0.0,0.0,0.0,0.0,0.0,0.0,0.0,0.0,0.0,0.0,0.0,0.0,0.0,0.0,0.0,0.0,0.0,0.0,0.0,0.0,0.0,0.0,0.0,0.0,0.0,0.0,0.0,0.0,0.0,0.0,0.0,0.0,0.0044,0.0087,0.0554,0.1626,0.1667,0.2154,0.3124,0.4219,0.4828,0.498,0.6125,0.6692,0.6705,0.6851,0.6876,0.6886,0.6886,0.6967,0.7095,0.7095,0.7095,0.7095,0.7095,0.7095,0.7095,0.7095,0.7238,0.7433,0.0,0.0,0.0,0.0,0.0,0.0,0.0,0.0,-2.1808,0.0,0.0,0.0,-1.9837,-1.8676,-1.7943,-1.7793,-1.7073,-1.6024,-1.4622,-1.406,-1.2899,-1.0916,-1.1173,-1.1033,-1.0291,-1.0362,-1.0362,-1.0253,-1.0571,-1.0637,-1.0447,-1.0051,-0.9551,-0.9034,-0.8101,-0.7512,-0.7111,-0.5955,0.0,0.0,-0.2257,-0.1059,0.0,0.0,0.0,0.0,0.0,0.1652,0.0,0.0,0.3395,0.3376,0.0,0.0,0.0,0.0,0.0,0.0,0.0,0.0,0.0,0.0,0.0,0.0,0.0,0.0,0.0,0.0,0.0,0.0,0.0,0.0,0.0,0.0,0.0,0.0,0.0,0.0,0.0,0.0,0.0,0.0,0.0,0.0,0.0,0.0,0.0,0.0403,0.1244,0.1981,0.2463,0.2675,0.354,0.4055,0.4256,0.5401,0.6029,0.6067,0.6291,0.6495,0.6698,0.663,0.6719,0.6886,0.6886,0.6967,0.7095,0.7095,0.7095,0.7095,0.7095,0.7095,0.7095,0.7095,0.7122,0.7241,0.0,0.0,0.0,0.0,0.0,0.0,0.0,0.0,-2.2765,0.0,0.0,0.0,-2.0282,-1.8684,-1.7706,-1.7602,-1.683,-1.5804,-1.4565,-1.4133,-1.2914,-1.0645,-1.0983,-1.0656,-0.9536,-0.9677,-0.9727,-0.9592,-0.9757,-0.9627,-0.9271,-0.8879,-0.8514,-0.8101,0.0,0.0,0.0,0.0,0.0,0.0,-0.2796,0.0,0.0,0.0,0.0,0.0,0.0,0.0,0.2824,0.3411,0.3924,0.0,0.0,0.0,0.0,0.0,0.0,0.0,0.0,0.0,0.0,0.0,0.0,0.0,0.1437,0.1402,0.0,0.0,0.0,0.0,0.0,0.0,0.0,0.0,0.0,0.0,0.0,0.0,0.0,0.0,0.0,0.0,0.0,0.0,0.0,0.0,0.0454,0.1245,0.2354,0.2974,0.3424,0.3752,0.4468,0.4993,0.5354,0.6061,0.6422,0.6422,0.6399,0.645,0.6515,0.6525,0.6569,0.6742,0.6807,0.6873,0.7014,0.7071,0.7095,0.7095,0.7095,0.7095,0.7102,0.7214,0.7238,0.7282,0.0,0.0,0.0,0.0,0.0,0.0,0.0,0.0,0.0,0.0,-2.3941,-2.3309,-2.1868,-1.973,-1.8087,-1.7321,-1.6426,-1.5494,-1.4418,-1.4155,-1.3044,-1.0761,-1.1065,-1.0658,-0.9222,-0.9613,-0.9687,-0.9377,-0.9377,-0.8981,-0.8233,-0.8254,-0.7829,-0.7095,0.0,0.0,0.0,0.0,0.0,-0.3431,-0.3547,-0.2141,0.0,0.0,0.0,0.0,0.0191,0.1683,0.3588,0.3579,0.4227,0.0,0.0,0.0,0.0,0.0,0.2517,0.0,0.0,0.0,0.0,0.0,0.0,0.0,0.3434,0.3411,0.3381,0.0,0.0,0.0,0.0,0.0,0.0,0.0,0.0,0.0,0.0,0.0,0.0,0.0,0.0,0.0,0.0,0.0188,0.0278,0.037,0.154,0.2589,0.3442,0.3601,0.4059,0.4851,0.4882,0.5354,0.63,0.63,0.63,0.6303,0.6426,0.6422,0.6303,0.6429,0.6497,0.6518,0.6617,0.6773,0.6896,0.7021,0.7082,0.7095,0.7095,0.7095,0.7115,0.7316,0.7415,0.746,0.0,0.0,0.0,0.0,0.0,0.0,0.0,0.0,-2.4141,-2.4598,-2.3649,-2.3151,-2.3666,-2.0806,-1.8863,-1.8945,-1.678,-1.5443,-1.5404,-1.3949,-1.2126,-1.0025,-1.0006,-0.9163,-0.7304,-0.746,-0.7502,-0.7427,-0.7427,-0.736,-0.7186,-0.7302,-0.7244,-0.7051,-0.616,0.0,0.0,0.0,0.0,-0.2235,-0.3201,0.0,0.0,0.0,0.0,0.014,0.121,0.1947,0.2628,0.0,0.5129,0.5069,0.0,0.0,0.0,0.0,0.0,0.0,0.0,0.0,0.0,0.0,0.0,0.0,0.3345,0.3462,0.3473,0.0,0.0,0.0,0.0,0.0,0.0,0.0,0.0,0.0,0.0,0.0,0.0,0.0,0.0,0.0,0.0,0.1437,0.1832,0.2813,0.4021,0.4649,0.4578,0.5527,0.6028,0.5993,0.5983,0.6103,0.63,0.63,0.63,0.63,0.6327,0.6327,0.6303,0.6327,0.6405,0.6515,0.6545,0.6675,0.6886,0.6916,0.6994,0.7095,0.7095,0.7095,0.7115,0.7316,0.7415,0.746,0.0,0.0,0.0,0.0,0.0,0.0,0.0,0.0,-2.428,-2.446,-2.3607,-2.3194,-2.3746,-2.0747,-1.8711,-1.8711,-1.6503,-1.4993,-1.4682,0.0,-1.1617,-0.9792,-0.917,-0.819,-0.674,-0.6851,-0.692,-0.6991,-0.6991,-0.6991,-0.6994,-0.7061,-0.6791,-0.624,-0.5645,0.0,0.0,0.0,-0.2894,-0.1843,-0.2479,0.0,0.0,0.0,0.0,0.0093,0.0739,0.1777,0.3165,0.5451,0.6172,0.0,0.0,0.511,0.4986,0.0,0.4688,0.5118,0.0,0.0,0.0,0.5349,0.0,0.0,0.0,0.5152,0.516,0.0,0.0,0.0,0.0,0.0,0.0,0.0,0.0,0.0,0.0,0.0,0.0,0.0,0.0,0.0,0.0,0.2452,0.3297,0.452,0.5105,0.5523,0.5794,0.6367,0.6566,0.631,0.63,0.63,0.63,0.63,0.63,0.63,0.63,0.63,0.63,0.63,0.6337,0.6409,0.648,0.6559,0.6712,0.6865,0.6927,0.6997,0.7068,0.7142,0.7268,0.7415,0.7944,0.8644,-2.1074,0.0,0.0,0.0,0.0,0.0,0.0,0.0,-2.3995,-2.4056,-2.3766,-2.3553,-2.3594,-2.064,0.0,0.0,-1.6345,-1.471,0.0,0.0,0.0,0.0,-0.8693,-0.7647,-0.674,-0.6878,-0.698,-0.7095,-0.7095,-0.7095,-0.7095,-0.6874,-0.628,-0.5399,-0.4898,0.0,0.0,0.0,0.0,-0.1463,0.0,-0.0861,0.0,0.0,0.0137,0.037,0.0601,0.2115,0.4237,0.6019,0.0,0.6843,0.5695,0.6071,0.0,0.0,0.0,0.0,0.0,0.0,0.0,0.0,0.0,0.7095,0.0,0.0,0.0,0.6736,0.0,0.0,0.0,0.0,0.0,0.0,0.0,0.0,0.0,0.0,0.0,0.0,0.0,0.0,0.0,0.3757,0.4847,0.5823,0.5771,0.6017,0.6718,0.6715,0.6576,0.6351,0.6313,0.63,0.63,0.63,0.63,0.63,0.63,0.63,0.63,0.63,0.6313,0.6347,0.6698,0.6863,0.6938,0.7407,0.7578,0.7619,0.7486,0.7526,0.774,0.8082,0.9005,1.0113,-2.0073,-1.9808,0.0,0.0,0.0,0.0,0.0,0.0,-2.32,-2.3525,-2.4105,-2.4482,0.0,0.0,0.0,0.0,0.0,0.0,-1.5551,0.0,0.0,0.0,0.0,0.0,-0.6743,-0.693,-0.7082,-0.7095,-0.7095,-0.7095,-0.7095,-0.6071,-0.5528,-0.5292,-0.3151,0.0,0.0,0.0,-0.0318,0.0,-0.0185,-0.0141,0.0,0.0,0.0646,0.1755,0.281,0.405,0.5253,0.0,0.6171,0.6927,0.0,0.6714,0.0,0.0,0.0,0.0,0.0,0.0,0.0,0.0,0.7244,0.0,0.0,0.0,0.6994,0.6759,0.0,0.0,0.0,0.0,0.0,0.0,0.0,0.0,0.0,0.0,0.0,0.0,0.0,0.0,0.0,0.0,0.678,0.69,0.6928,0.6893,0.6869,0.6773,0.6624,0.6494,0.6364,0.63,0.63,0.63,0.63,0.63,0.63,0.63,0.63,0.63,0.6368,0.6531,0.7573,0.8162,0.8548,0.9587,1.0054,1.0058,0.9096,0.8727,0.8853,0.9999,1.0754,1.1164,-1.9515,-1.9601,0.0,0.0,0.0,0.0,0.0,0.0,-2.2746,-2.2886,-2.3428,0.0,0.0,0.0,0.0,0.0,0.0,-1.6553,0.0,0.0,0.0,0.0,0.0,0.0,0.0,0.0,-0.6705,-0.6115,-0.6115,-0.5758,-0.5041,-0.4596,-0.3992,-0.3246,-0.2247,0.0,-0.0715,0.0,0.0,0.0,0.0,0.0,0.0,0.0278,0.0727,0.2039,0.3982,0.4992,0.5481,0.0,0.653,0.0,0.0,0.0,0.0,0.0,0.0,0.0,0.0,0.0,0.0,0.0,0.0,0.0,0.0,0.0,0.7061,0.0,0.0,0.0,0.0,0.0,0.0,0.0,0.0,0.0,0.0,0.0,0.0,0.0,0.0,0.0,0.0,0.0,0.0,0.0,0.0,0.6997,0.681,0.6736,0.663,0.6518,0.6375,0.6337,0.6422,0.6422,0.6422,0.6422,0.6422,0.6774,0.7399,0.7399,0.7847,0.8653,0.9136,0.9437,0.9611,1.018,1.0412,1.0513,1.077,1.0517,1.0058,1.0611,1.1529,1.254,-1.9209,0.0,0.0,0.0,0.0,0.0,0.0,0.0,0.0,0.0,0.0,0.0,-2.4082,-2.2382,0.0,0.0,0.0,-1.7376,0.0,0.0,-1.2871,0.0,0.0,0.0,0.0,0.0,0.0,-0.491,-0.491,-0.4463,-0.3614,-0.326,-0.266,-0.1794,0.0,-0.0798,0.0,0.0,0.0,0.0095,0.1322,0.1993,0.2237,0.1697,0.2024,0.3038,0.5134,0.5849,0.5954,0.6593,0.6896,0.0,0.6702,0.0,0.0,0.0,0.0,0.0,0.7014,0.0,0.0,0.0,0.0,0.0,0.0,0.0,0.0,0.0,0.0,0.0,0.0,0.0,0.0,0.0,0.0,0.0,0.0,0.0,0.0,0.0,0.0,0.0,0.0,0.0,0.0,0.7051,0.7038,0.6947,0.6773,0.6722,0.6651,0.6539,0.6474,0.645,0.6511,0.6555,0.6694,0.7009,0.7009,0.7608,0.8768,0.8768,0.9316,1.029,1.058,1.0735,1.081,1.1227,1.1425,1.1531,1.251,1.247,1.1811,1.182,1.2723,1.3944,-1.9209,-1.9619,0.0,0.0,0.0,0.0,0.0,0.0,0.0,0.0,0.0,0.0,0.0,0.0,0.0,0.0,0.0,-1.7217,-1.7146,0.0,-1.3192,0.0,0.0,-0.8231,0.0,0.0,0.0,0.0,-0.3659,-0.3659,-0.357,-0.2413,-0.1834,-0.1743,-0.0571,-0.0045,0.0,0.0,0.0,0.0093,0.1294,0.251,0.3678,0.0,0.5272,0.5447,0.6605,0.0,0.0,0.7085,0.6997,0.0,0.0,0.0,0.0,0.0,0.0,0.0,0.0,0.0,0.0,0.7095,0.0,0.0,0.0,0.0,0.7322,0.0,0.0,0.0,0.0,0.0,0.0,0.0,0.0,0.0,0.0,0.0,0.0,0.0,0.0,0.0,0.0,0.0,0.0,0.6903,0.6893,0.6889,0.6879,0.678,0.6698,0.6695,0.6688,0.6617,0.6515,0.662,0.7263,0.8348,0.8348,0.8964,1.0151,1.0151,1.0228,1.047,1.1568,1.2129,1.2304,1.3493,1.3984,1.4017,1.4303,1.4422,1.4385,1.4372,1.4787,1.5345,0.0,0.0,0.0,0.0,0.0,0.0,0.0,-2.0296,0.0,0.0,0.0,0.0,0.0,0.0,-2.1807,0.0,0.0,-1.8622,-1.7553,-1.565,0.0,0.0,0.0,-0.8419,0.0,0.0,0.0,0.0,0.0,-0.2013,-0.121,-0.0807,-0.0628,-0.0583,0.0,0.0,0.0,0.0,0.0,0.0,0.0,0.3716,0.4917,0.0,0.0,0.5536,0.6694,0.7095,0.0,0.6915,0.6885,0.6852,0.6692,0.6695,0.6766,0.6715,0.6803,0.0,0.0,0.0,0.7071,0.698,0.0,0.0,0.0,0.0,0.0,0.0,0.0,0.0,0.0,0.0,0.0,0.0,0.0,0.0,0.0,0.0,0.0,0.0,0.0,0.0,0.0,0.0,0.0,0.6647,0.6719,0.6732,0.663,0.6675,0.6702,0.6702,0.6702,0.6725,0.6773,0.7613,0.822,0.8593,0.9377,1.0331,1.146,1.146,1.1969,1.2855,1.3245,1.3471,1.3512,1.3913,1.4088,1.4115,1.4409,1.4643,1.481,1.481,1.5064,1.5424,-1.8674,0.0,0.0,0.0,0.0,0.0,0.0,0.0,0.0,0.0,-2.1811,0.0,-2.2946,0.0,-2.1611,0.0,-2.0201,-1.8796,-1.7014,-1.556,0.0,-1.1631,-1.048,0.0,0.0,0.0,0.0,0.0,0.0,-0.0768,0.0,0.0,0.0,0.0,0.0,0.0,0.0,0.0,0.0,0.0,0.0,0.4552,0.0,0.0,0.6411,0.5547,0.0,0.7095,0.7065,0.6919,0.6888,0.6852,0.6698,0.6732,0.6827,0.6729,0.6797,0.6871,0.6739,0.68,0.0,0.6858,0.7168,0.0,0.765,0.0,0.0,0.0,0.0,0.0,0.0,0.0,0.0,0.0,0.0,0.0,0.0,0.6542,0.0,0.0,0.0,0.0,0.0,0.0,0.6803,0.6535,0.6563,0.66,0.0,0.0,0.6725,0.678,0.6831,0.7045,0.7517,0.838,0.917,0.9969,1.0731,1.1704,1.2821,1.2821,1.3262,1.4088,1.4088,1.4088,1.4088,1.4088,1.4088,1.4115,1.4409,1.4703,1.5022,1.5122,1.5304,1.5578,0.0,0.0,0.0,0.0,-1.8386,0.0,0.0,0.0,-2.0677,0.0,-2.1454,-2.2274,-2.3135,-2.1676,-2.1004,-2.1838,-1.9765,0.0,-1.5773,-1.4977,0.0,0.0,-0.9916,-0.7996,-0.4065,0.0,0.0,0.0,0.0,0.0,0.0,0.0,0.0,0.0,0.0,0.0,0.0,0.0,0.009,0.0404,0.2726,0.5043,0.7017,0.7098,0.6376,0.5557,0.67,0.7095,0.7095,0.7088,0.6997,0.6886,0.6886,0.6827,0.6712,0.6712,0.6614,0.6573,0.6737,0.6675,0.6646,0.6819,0.0,0.0,0.0,0.0,1.0433,0.0,0.0,0.0,0.0,0.0,0.0,0.0,0.0,0.0,0.0,0.0,0.0,0.0,0.0,0.0,0.0,0.6862,0.6783,0.6525,0.6541,0.661,0.0,0.0,0.6853,0.7047,0.7152,0.7719,0.8789,0.897,1.0183,1.2285,1.2382,1.2997,1.4088,1.4102,1.4102,1.4088,1.4088,1.4088,1.4088,1.4102,1.4108,1.4135,1.4442,1.4743,1.5082,1.5317,1.5591,1.5784,-1.7301,-1.6453,-1.6008,0.0,-1.6342,-1.655,0.0,0.0,0.0,0.0,-2.0236,-2.0314,-2.0924,-2.0434,-2.0148,-2.0351,-1.8397,0.0,0.0,0.0,0.0,-1.057,-0.8435,-0.6239,-0.404,-0.3003,0.0,0.0,0.0,0.0,0.0,0.0,0.0,0.0,0.0,0.0,0.0,0.0,0.1031,0.2814,0.433,0.5318,0.0,0.0,0.6376,0.5557,0.67,0.7095,0.7082,0.6974,0.6916,0.6886,0.6886,0.6859,0.6829,0.6829,0.6873,0.703,0.7533,0.7804,0.8039,0.8653,0.9065,0.9359,0.0,0.0,0.0,0.0,0.0,0.0,0.0,0.0,0.0,0.0,0.0,0.0,0.0,0.0,0.0,0.798,0.0,0.0,0.0,0.659,0.6552,0.6368,0.7045,0.7583,0.0,0.0,0.0,0.9475,0.8832,0.8991,1.01,1.101,1.1724,1.2328,1.341,1.3982,1.4095,1.4309,1.4295,1.4088,1.4088,1.4088,1.4108,1.4322,1.4409,1.4462,1.497,1.5351,1.5618,1.5691,1.5718,1.5784,-1.6052,0.0,0.0,-1.4196,0.0,0.0,-1.7267,0.0,0.0,-1.9322,-1.9439,0.0,-1.982,-1.9205,-1.8712,-1.8657,-1.6709,0.0,0.0,0.0,0.0,-0.8829,-0.7195,-0.5317,-0.3167,-0.2369,0.0,0.0,0.0,0.0,0.0,0.0,0.0,0.0,0.0,0.0,0.0045,0.0584,0.1889,0.3707,0.4928,0.0,0.0,0.6859,0.6697,0.6214,0.6856,0.7095,0.7085,0.7004,0.6977,0.6977,0.6977,0.6977,0.6977,0.6977,0.7282,0.7646,0.8012,0.8447,0.8876,0.9306,0.9798,1.0192,1.0343,1.0792,1.1289,0.0,0.0,0.0,0.0,0.0,0.0,0.0,0.0,0.0,0.0,0.0,0.0,0.0,0.0,0.0,0.0,0.7148,0.6803,0.7569,0.7854,0.8216,0.0,0.0,0.0,1.0272,1.0029,1.0319,1.1343,1.2252,1.2883,1.3256,1.425,1.4629,1.4519,1.4643,1.4556,1.4275,1.4275,1.4275,1.4289,1.4449,1.4596,1.4756,1.5217,1.5498,1.5658,1.5785,1.5784,1.5784,0.0,0.0,0.0,0.0,0.0,0.0,0.0,-1.6769,0.0,-1.7873,0.0,-1.881,-1.8771,-1.7742,-1.6977,-1.6827,0.0,-1.2926,-1.1391,-1.0874,-0.9339,-0.6403,-0.6138,-0.4757,-0.2063,-0.1828,0.0,0.0,0.0,0.0,0.0,0.0,0.0,0.0,0.0,0.0,0.0,0.1522,0.2709,0.3937,0.5126,0.6204,0.7095,0.7095,0.7095,0.7095,0.7095,0.7095,0.7095,0.7095,0.7095,0.7095,0.7095,0.7095,0.7095,0.7095,0.755,0.8061,0.818,0.8666,0.9221,0.9314,0.9997,1.072,1.0956,1.1707,1.2454,1.2757,1.2213,1.1934,0.0,0.0,0.0,0.0,0.0,0.0,0.0,0.0,0.0,0.0,0.0,0.0,0.0,0.0,0.7692,0.9288,0.8911,0.0,0.0,0.0,0.0,1.0658,1.1104,1.1729,1.2595,0.0,1.3829,1.4583,1.4877,1.5042,1.5008,1.5048,1.4856,1.4583,1.4583,1.4583,1.4583,1.4616,1.481,1.5149,1.5351,1.5451,1.5484,1.5684,1.5784,1.5784,0.0,0.0,0.0,0.0,0.0,-1.3205,-1.4163,-1.4627,-1.4924,-1.5109,-1.5487,-1.5708,-1.5456,-1.5114,-1.4892,-1.4908,-1.3065,0.0,0.0,0.0,0.0,-0.6405,-0.5212,-0.3737,-0.2014,-0.094,-0.0245,0.0,0.0,0.0,0.0,0.0,0.0,0.0,0.0,0.0,0.1567,0.2769,0.0,0.5206,0.6346,0.6918,0.7095,0.7095,0.7095,0.7095,0.7095,0.7095,0.7095,0.7095,0.7095,0.7095,0.7095,0.7095,0.7095,0.7095,0.719,0.7436,0.8043,0.8354,0.8721,0.9296,0.9696,0.9922,0.9963,1.0094,1.0318,1.0677,1.059,1.0621,1.098,0.0,0.0,0.0,0.0,0.0,0.0,0.0,0.0,0.0,0.0,0.0,0.0,0.0,0.0,0.0,0.0,0.0,0.0,0.0,0.0,0.0,1.2672,0.0,0.0,0.0,1.4751,1.4934,1.5184,1.5197,1.5015,1.5211,1.5164,1.4928,1.4928,1.4928,1.4948,1.5144,1.5411,1.5678,1.5732,1.5752,1.5758,1.5764,1.5784,1.5784,0.0,0.0,0.0,0.0,0.0,0.0,0.0,-1.1882,0.0,-1.4094,-1.429,-1.4308,-1.4144,-1.3558,-1.3117,-1.3072,-1.1287,-1.0071,-0.9954,-0.9098,-0.7586,-0.5319,-0.4541,0.0,-0.1009,-0.0343,0.0,0.0,0.0,0.0,0.0,0.0,0.0,0.0045,0.0,0.1622,0.0,0.0,0.0,0.5485,0.6634,0.7095,0.7095,0.7095,0.7095,0.7095,0.7095,0.7095,0.7095,0.7095,0.7095,0.7095,0.7095,0.7095,0.7095,0.7095,0.7432,0.7849,0.8191,0.8676,0.916,0.9521,0.9666,0.9705,0.9705,0.9705,0.9735,0.9925,1.0076,1.0268,1.057,1.0482,0.0,0.0,0.0,0.0,0.0,0.0,0.0,0.0,0.0,0.0,0.0,0.0,0.0,0.0,0.0,0.0,0.0,0.0,0.0,0.0,0.0,0.0,0.0,0.0,0.0,1.519,1.5484,1.5545,1.5418,1.5558,1.5464,1.519,1.519,1.519,1.5211,1.5504,1.5705,1.5784,1.5784,1.5784,1.5784,1.5784,1.5784,1.5784,0.0,-1.083,0.0,0.0,-1.0044,0.0,-0.9717,-0.9812,-1.0771,-1.3022,-1.304,-1.2857,-1.2857,-1.2003,-1.1416,-1.1282,-0.9801,-0.8825,-0.8672,-0.852,-0.7162,-0.4263,-0.4157,-0.2858,-0.0051,0.0,0.0,0.0,0.0,0.0,0.0,0.0,0.0,0.0,0.0,0.0,0.0,0.0,0.5544,0.5847,0.6739,0.7095,0.7095,0.7095,0.7095,0.7095,0.7095,0.7095,0.7095,0.7095,0.7095,0.7095,0.7095,0.7095,0.7095,0.7095,0.7574,0.8111,0.8075,0.861,0.9133,0.9092,0.911,0.9142,0.9142,0.9142,0.9142,0.9142,0.9563,0.9984,1.0192,1.0438,0.0,0.0,0.0,0.0,0.0,0.0,0.0,0.0,0.0,0.0,0.0,0.0,0.0,0.0,0.0,0.0,0.0,0.0,0.0,0.0,0.0,1.485,1.4616,0.0,1.5712,0.0,1.5718,1.5784,1.5784,1.5784,1.5705,1.5491,1.5491,1.5491,1.5504,1.5684,1.5784,1.5784,1.5784,1.5784,1.5832,1.6109,1.6197,1.6244,0.0,0.0,0.0,0.0,0.0,0.0,0.0,-0.9652,-0.9941,-1.0355,-1.0232,-1.0194,-1.0194,-0.9842,-0.9627,-0.9613,-0.9092,-0.8665,-0.8513,-0.837,-0.7034,-0.413,-0.4026,-0.277,-0.0051,0.0,0.0,0.0,0.0,0.0,0.0,0.0,0.0,0.0,0.0,0.0,0.0,0.5364,0.5988,0.6935,0.7058,0.7095,0.7095,0.7095,0.7095,0.7095,0.7095,0.7095,0.7095,0.7095,0.7095,0.7095,0.7095,0.7095,0.7095,0.7095,0.7173,0.7176,0.7092,0.7184,0.7327,0.7193,0.726,0.7358,0.7358,0.7358,0.7358,0.7358,0.8241,0.9043,0.9061,0.9923,1.0956,0.0,0.0,0.0,0.0,0.0,0.0,0.0,0.0,0.0,0.0,0.0,0.0,0.0,0.0,0.0,0.0,0.0,0.0,1.3213,0.0,1.4995,1.4968,1.5524,1.5764,1.5744,1.5764,1.5784,1.5784,1.5784,1.5764,1.5744,1.5744,1.5744,1.5744,1.5771,1.5784,1.5784,1.5784,1.5784,1.592,1.7084,1.7498,1.7684,0.0,0.0,0.0,0.0,0.0,0.0,0.0,-0.7672,-0.8363,-0.8412,-0.9239,-0.9822,-0.9822,-0.9557,-0.9381,-0.9381,-0.8971,-0.8682,-0.8621,-0.7657,-0.6223,-0.4187,-0.3285,-0.1913,-0.0051,0.0,0.0,0.0,0.0,0.0,0.0,0.0,0.0,0.0,0.0,0.5438,0.6593,0.6462,0.6745,0.7272,0.7132,0.7095,0.7095,0.7095,0.7095,0.7095,0.7095,0.7095,0.7095,0.7095,0.7095,0.7095,0.7095,0.7095,0.7095,0.7095,0.7095,0.7085,0.7028,0.7055,0.7082,0.7024,0.7055,0.7095,0.7095,0.7095,0.7316,0.8013,0.91,1.0139,1.0826,1.15,1.2302,0.0,0.0,0.0,0.0,0.0,0.0,0.0,0.0,0.0,0.0,0.0,0.0,0.0,0.0,0.0,0.0,0.0,0.0,1.3734,0.0,1.5095,1.5224,1.5625,1.5784,1.5784,1.5784,1.5784,1.5784,1.5784,1.5784,1.5784,1.5784,1.5784,1.5784,1.5784,1.5784,1.5784,1.5784,1.6244,1.699,1.7505,1.831,1.9214,-1.008,0.0,-0.7689,0.0,-0.6575,-0.5988,-0.5023,-0.5894,-0.6689,-0.6689,-0.767,-0.8702,-0.964,-0.9534,-0.9364,-0.9317,-0.8944,-0.8494,-0.8056,-0.6948,-0.5469,-0.3615,-0.2539,0.0,-0.0051,0.0,0.0194,0.0572,0.1515,0.0,0.0,0.0,0.0,0.0,0.5799,0.6475,0.7299,0.7234,0.7272,0.7409,0.7251,0.7207,0.7204,0.7112,0.7095,0.7095,0.7095,0.7095,0.7095,0.7095,0.7095,0.7095,0.7095,0.7095,0.7095,0.7095,0.7095,0.7095,0.7095,0.7095,0.7095,0.7095,0.7095,0.7095,0.7095,0.7095,0.7445,0.8671,1.0048,1.1359,1.2293,1.2903,1.3598,1.4498,0.0,0.0,0.0,0.0,0.0,0.0,0.0,1.3313,1.2958,0.0,0.0,0.0,0.0,0.0,0.0,0.0,0.0,0.0,0.0,0.0,0.0,1.5685,1.5784,1.5784,1.5784,1.5784,1.5784,1.5784,1.5784,1.5784,1.5784,1.5784,1.5784,1.5784,1.6015,1.6339,1.6339,1.7124,1.8288,1.876,1.9687,2.075,-0.8881,-0.7555,-0.663,-0.702,-0.5895,-0.4914,-0.4916,-0.4916,-0.4916,-0.4916,-0.4977,-0.617,-0.9264,-0.9473,-0.932,-0.9224,-0.8882,-0.8056,-0.664,-0.637,-0.5004,0.0,0.0,-0.136,-0.0051,0.0,0.0632,0.1999,0.0,0.0,0.3798,0.0,0.5516,0.5453,0.6798,0.7285,0.7109,0.7305,0.7415,0.7415,0.7415,0.7412,0.7398,0.7156,0.7095,0.7095,0.7095,0.7095,0.7095,0.7095,0.7095,0.7095,0.7095,0.7095,0.7095,0.7095,0.7095,0.7095,0.7095,0.7095,0.7095,0.7095,0.7095,0.7095,0.7095,0.7095,0.7445,0.8671,1.0697,1.2361,1.275,1.3705,1.4572,1.4955,0.0,0.0,0.0,0.0,0.0,0.0,1.3901,1.3848,1.326,0.0,0.0,0.0,0.0,0.0,0.0,0.0,0.0,1.4088,1.4937,0.0,1.5398,1.5685,1.5784,1.5784,1.5784,1.5784,1.5784,1.5784,1.5784,1.5784,1.5784,1.5784,1.5784,1.5784,1.6527,1.7692,1.7692,1.8411,1.9675,2.135,2.1979,2.2217,-0.8745,-0.7427,-0.6243,-0.5445,-0.4191,-0.2858,-0.1723,-0.2524,-0.326,-0.326,-0.4243,-0.5255,-0.6133,-0.6212,-0.6197,0.0,-0.5929,-0.5652,0.0,-0.4124,-0.3093,-0.2162,-0.1193,0.0,0.131,0.1352,0.2027,0.3344,0.0,0.0,0.0,0.6703,0.6744,0.6561,0.7012,0.7244,0.7299,0.7395,0.7431,0.7529,0.7529,0.7465,0.7412,0.7316,0.7231,0.7095,0.7095,0.7095,0.7095,0.7095,0.7095,0.7095,0.7095,0.7095,0.7095,0.7095,0.7095,0.7095,0.7095,0.7095,0.7095,0.7095,0.7095,0.7095,0.7095,0.8356,0.9868,1.1286,1.2735,1.3885,1.4262,1.4752,1.515,1.5244,1.5424,0.0,0.0,0.0,0.0,0.0,1.3686,1.3593,0.0,1.3654,0.0,0.0,0.0,0.0,0.0,0.0,0.0,0.0,1.5144,0.0,1.5691,1.5785,1.5784,1.5832,1.6669,1.7537,1.8303,1.8303,1.7855,1.7084,1.7084,1.6622,1.5872,1.6763,1.749,1.8203,1.9028,2.025,2.1675,2.2229,2.3121,2.42,-0.8577,-0.6933,-0.5363,-0.4649,-0.2855,-0.1211,-0.0185,-0.0863,-0.1541,-0.1541,-0.2462,-0.3004,-0.2914,-0.2914,0.0,-0.4533,-0.4538,-0.4247,-0.3688,-0.2752,-0.1733,-0.0691,0.0262,0.1386,0.2716,0.0,0.0,0.4741,0.6051,0.6973,0.7512,0.746,0.7288,0.7095,0.7095,0.7224,0.7419,0.7434,0.7543,0.7678,0.7678,0.7621,0.7526,0.746,0.7312,0.7221,0.7119,0.7095,0.7095,0.7095,0.7095,0.7095,0.7095,0.7095,0.7095,0.7095,0.7095,0.7095,0.7095,0.7448,0.7797,0.7797,0.8191,0.8649,0.8714,1.0238,1.1833,1.2744,1.3863,1.4776,1.507,1.5277,1.5431,1.5538,1.5618,1.5504,1.5075,0.0,0.0,0.0,0.0,0.0,0.0,1.4075,0.0,0.0,0.0,0.0,0.0,0.0,0.0,1.5169,1.5858,0.0,1.652,1.6976,1.7203,1.721,1.8163,1.8945,1.9497,1.9683,1.9214,1.8365,1.8365,1.7902,1.7257,1.8041,1.8893,1.9768,2.0509,2.1824,2.3299,2.3495,2.4202,2.5135,-0.8425,-0.6066,0.0,0.0,-0.2021,0.0,0.0,0.0,0.0,0.0,0.0,0.0062,0.0185,0.018,-0.0936,-0.3613,0.0,0.0,0.0,-0.1874,-0.0704,0.2021,0.2144,0.2771,0.4119,0.4116,0.482,0.6129,0.7244,0.7672,0.7446,0.7426,0.7295,0.7112,0.7102,0.7221,0.7412,0.7529,0.7675,0.7797,0.7818,0.7821,0.778,0.7506,0.7443,0.7366,0.7224,0.7129,0.7129,0.7129,0.7129,0.7129,0.7129,0.7129,0.7125,0.7102,0.7095,0.7095,0.7183,0.8069,0.8955,0.9038,1.0102,1.1199,1.1547,1.2427,1.3223,1.3332,1.4256,1.5129,1.5371,1.5424,1.5518,1.5738,1.5585,1.5297,1.5048,0.0,0.0,0.0,0.0,0.0,0.0,1.4707,1.5028,0.0,0.0,0.0,0.0,0.0,1.5549,1.5529,1.7033,1.7854,1.7854,1.9012,1.9608,1.9708,2.0087,2.0117,1.9853,2.0235,2.0163,1.9708,1.9708,1.9662,1.9617,1.9662,2.0669,2.2106,2.2198,2.3148,2.4551,2.4961,2.5165,2.5223,0.0,0.0,-0.4123,-0.4448,-0.1987,0.0,0.0,0.0,0.0,0.0,0.0,0.0494,0.1787,0.1938,0.2078,0.2506,0.0341,-0.0448,0.1062,0.1169,0.1918,0.3613,0.3699,0.4259,0.5479,0.5525,0.6179,0.7537,0.7687,0.7777,0.7702,0.7478,0.7398,0.7312,0.7149,0.7115,0.7169,0.7485,0.7617,0.7672,0.7847,0.7916,0.7804,0.7733,0.7641,0.7543,0.7506,0.7489,0.7489,0.7489,0.7489,0.7489,0.7489,0.7489,0.7444,0.7166,0.7095,0.7316,0.8233,0.8814,0.9406,1.0336,1.0985,1.1663,1.2598,1.303,1.3498,1.4636,1.5107,1.5384,1.5671,1.5732,1.5752,1.5771,1.5585,1.5297,1.5048,1.4948,0.0,0.0,1.4683,1.4874,1.4807,1.5084,1.5204,0.0,0.0,0.0,0.0,1.7016,1.7038,1.6768,1.8558,1.9528,1.9528,2.0173,2.0929,2.1848,2.1937,2.2452,2.3258,2.3353,2.2834,2.1848,2.1848,2.1315,2.0551,2.1511,2.2268,2.3008,2.3985,2.4792,2.5391,2.5537,2.5586,2.5596,-0.8425,-0.6092,-0.4097,-0.4423,-0.2034,0.0,0.0,0.0672,0.1171,0.1171,0.1787,0.2585,0.3506,0.3579,0.388,0.4638,0.3154,0.2479,0.3187,0.3161,0.371,0.5094,0.5051,0.5637,0.6886,0.6933,0.7285,0.7988,0.7907,0.7879,0.7804,0.758,0.7438,0.7409,0.721,0.7136,0.7261,0.7499,0.7638,0.7716,0.7897,0.7941,0.7909,0.7838,0.7763,0.7689,0.7624,0.76,0.76,0.76,0.76,0.76,0.76,0.76,0.7657,0.8068,0.8189,0.8324,0.9,1.0106,1.1398,1.2734,1.3185,1.3458,1.4244,1.4368,1.4598,1.5418,1.5591,1.5645,1.5751,1.5784,1.5738,1.5651,1.5498,1.5297,1.5048,1.5008,0.0,1.4743,1.4983,1.511,1.5022,1.5344,1.5471,1.5184,1.5578,0.0,1.7362,1.8118,1.8455,1.8251,2.0012,2.0974,2.0974,2.1957,2.2784,2.342,2.3655,2.3983,2.4424,2.4619,2.4273,2.342,2.342,2.3074,2.2492,2.3168,2.3655,2.4125,2.4821,2.5342,2.5693,2.5693,2.5693,2.5693,-0.7789,-0.5618,-0.3771,-0.4126,-0.1857,0.0,0.0,0.1401,0.2524,0.2524,0.3873,0.4977,0.5223,0.5282,0.5327,0.5418,0.5448,0.524,0.4868,0.4685,0.5204,0.6603,0.649,0.689,0.8029,0.8002,0.7988,0.7988,0.7988,0.7924,0.7841,0.7699,0.7563,0.7431,0.7278,0.7282,0.746,0.7567,0.7702,0.7824,0.7928,0.7988,0.7975,0.7896,0.7845,0.7831,0.7709,0.7665,0.7665,0.7665,0.7665,0.7712,0.7902,0.7946,0.8222,0.9469,1.0021,1.0147,1.0089,1.1757,1.3844,1.5153,1.5464,1.5524,1.5772,1.5784,1.5791,1.5885,1.5858,1.5798,1.5885,1.5811,1.5752,1.5504,1.5424,1.5311,1.5109,0.0,1.5095,1.5135,1.5351,1.5451,1.529,1.5671,1.5858,1.5611,1.6008,1.6802,1.8061,1.9293,2.0066,2.0249,2.1596,2.2456,2.2584,2.3914,2.4619,2.4619,2.499,2.4971,2.4629,2.5,2.4971,2.4619,2.4619,2.4619,2.4619,2.4619,2.4834,2.5166,2.5166,2.54,2.5693,2.5762,2.5791,2.5791,-0.4843,-0.3502,-0.2365,-0.2508,-0.1153,0.0,0.0,0.1452,0.2524,0.2524,0.3873,0.5468,0.6872,0.704,0.7535,0.8744,0.8725,0.8015,0.6434,0.6349,0.69,0.8246,0.8206,0.817,0.8238,0.8106,0.7988,0.7988,0.7988,0.7978,0.7951,0.7848,0.7767,0.7736,0.7594,0.7543,0.7573,0.7719,0.779,0.7824,0.7928,0.7988,0.7988,0.7965,0.7955,0.7951,0.7931,0.7921,0.7921,0.7921,0.7921,0.8115,0.9282,0.9624,0.9864,1.1168,1.2315,1.3134,1.2722,1.3835,1.516,1.5644,1.5758,1.5724,1.5771,1.5784,1.5899,1.6152,1.6005,1.5905,1.6159,1.5999,1.5764,1.5718,1.5558,1.5384,1.5337,0.0,1.5424,1.5665,1.5959,1.6219,1.6413,1.6513,1.6553,1.6506,1.7604,1.8832,2.007,2.141,2.261,2.3602,2.39,2.4388,2.5131,2.5353,2.5479,2.5479,2.5557,2.5547,2.5489,2.5557,2.5547,2.5479,2.5479,2.5479,2.5479,2.5479,2.5528,2.5635,2.5635,2.5625,2.5732,2.6152,2.6289,2.6338,-0.4161,-0.3027,-0.2042,-0.2167,-0.0971,0.0,0.0,0.2145,0.3766,0.3766,0.5987,0.7856,0.859,0.8711,0.8966,0.9562,0.9544,0.9081,0.8108,0.7898,0.8036,0.8594,0.8445,0.8299,0.815,0.8025,0.7988,0.7988,0.7988,0.7988,0.7985,0.7882,0.7811,0.7804,0.7662,0.76,0.7607,0.775,0.7811,0.7824,0.7928,0.7988,0.7988,0.7988,0.7988,0.7988,0.7988,0.7988,0.8088,0.8825,0.9069,0.9312,1.0632,1.1023,1.1263,1.2571,1.3445,1.4017,1.4453,1.5098,1.5665,1.5751,1.5952,1.6072,1.6072,1.6186,1.6339,1.648,1.6393,1.6346,1.648,1.6266,1.6072,1.6072,1.5818,0.0,0.0,1.5765,1.5919,1.6052,1.6326,1.656,1.6693,1.6707,1.6707,1.6707,1.7924,1.9277,2.0521,2.1877,2.3279,2.4709,2.4766,2.5078,2.5684,2.5693,2.5693,2.5693,2.5693,2.5693,2.5693,2.5693,2.5693,2.5693,2.5693,2.5693,2.5693,2.5693,2.5693,2.5693,2.5693,2.583,2.6113,2.6309,2.6533,2.6758,-0.3215,-0.2338,-0.1559,-0.1668,-0.0738,0.0,0.0,0.276,0.4843,0.4922,0.7758,0.9785,0.9819,0.9822,0.9778,0.9666,0.9629,0.9496,0.9279,0.896,0.8747,0.8594,0.8414,0.8248,0.8096,0.8008,0.7988,0.7988,0.7988,0.7988,0.7988,0.787,0.7865,0.7862,0.775,0.7702,0.7709,0.7818,0.7865,0.7875,0.7941,0.7988,0.7988,0.7988,0.7988,0.7988,0.7988,0.7988,0.8137,0.9167,0.9752,1.0243,1.1512,1.1896,1.215,1.3562,1.3765,1.3837,1.5035,1.5143,1.5044,1.5386,1.5654,1.5967,1.6324,1.6547,1.6727,1.6794,1.6807,1.6834,1.6894,1.6673,1.6529,1.6529,0.0,0.0,0.0,1.6233,1.64,1.6522,1.6673,1.6834,1.6901,1.6907,1.7059,1.7356,1.8631,1.9945,2.1263,2.259,2.3908,2.5215,2.5225,2.5391,2.5684,2.5693,2.5742,2.584,2.5732,2.5742,2.584,2.5732,2.5693,2.5693,2.5693,2.5693,2.5693,2.5801,2.584,2.5849,2.5947,2.624,2.6543,2.665,2.6894,2.7178,-0.0318,-0.0213,-0.0162,-0.0167,-0.0057,0.0,0.0,0.2675,0.4783,0.4913,0.763,0.9676,0.9805,0.9822,0.9819,0.9805,0.9686,0.954,0.9374,0.9268,0.9055,0.8854,0.8621,0.8397,0.8255,0.8113,0.7988,0.7988,0.7988,0.7988,0.7988,0.7978,0.7971,0.7971,0.7961,0.7958,0.7958,0.7968,0.7971,0.7975,0.7985,0.7988,0.7988,0.7988,0.7988,0.7988,0.7988,0.7988,0.8041,0.8137,0.897,1.0243,1.1512,1.1896,1.2181,1.3675,1.3351,1.2719,1.3759,1.3263,1.2791,1.4077,1.453,1.4978,1.6367,1.6693,1.678,1.7112,1.7166,1.7253,1.7468,1.7333,1.7132,1.7132,0.0,0.0,1.664,1.666,1.678,1.7105,1.7159,1.7273,1.7488,1.7515,1.8025,1.9302,2.0715,2.2072,2.3394,2.472,2.5509,2.5635,2.5635,2.5654,2.5693,2.5693,2.5937,2.6338,2.5937,2.5947,2.6328,2.5918,2.5693,2.5693,2.5693,2.5693,2.5713,2.6172,2.6338,2.6387,2.6768,2.6943,2.7021,2.7422,2.764,2.7676,0.0,0.0,0.0,0.0,0.0,0.0,0.0,0.2689,0.4763,0.49,0.7635,0.9663,0.9805,0.9741,0.969,0.969,0.9642,0.9503,0.9313,0.933,0.9144,0.8811,0.8594,0.8414,0.8327,0.8214,0.8136,0.7988,0.7988,0.7988,0.7988,0.7988,0.7988,0.7988,0.7988,0.7988,0.7988,0.7988,0.7988,0.7988,0.7988,0.7988,0.7988,0.7988,0.7988,0.7988,0.7988,0.7988,0.8137,0.897,0.9558,1.0261,1.1658,1.2098,1.2193,1.2869,1.2128,1.1232,1.1636,1.2005,1.246,1.3111,1.4153,1.5223,1.5929,1.6972,1.7849,1.7956,1.8037,1.8016,1.8123,1.7896,1.7749,1.7949,0.0,1.7315,1.7456,1.7535,1.7529,1.7689,1.7869,1.8023,1.8136,1.8982,1.9706,2.0233,2.2424,2.3943,2.4473,2.5553,2.6016,2.5693,2.5693,2.5693,2.5693,2.5693,2.5957,2.6387,2.6221,2.6367,2.6768,2.6602,2.6387,2.6162,2.6416,2.6377,2.6172,2.6602,2.6777,2.6797,2.6953,2.7178,2.7441,2.7607,2.7885,2.8076,0.0,0.0,0.0,0.0,0.0,0.0,0.0,0.2652,0.4693,0.4853,0.7634,0.9608,0.9798,0.9734,0.9676,0.9676,0.9635,0.952,0.9367,0.9361,0.915,0.8798,0.8635,0.8509,0.8411,0.8364,0.8262,0.8113,0.8113,0.8039,0.7988,0.7988,0.7988,0.7988,0.7988,0.7988,0.7988,0.7988,0.7988,0.7988,0.7988,0.7988,0.7988,0.7988,0.7988,0.7988,0.7988,0.8022,0.821,0.9149,0.978,1.0301,1.1401,1.176,1.1747,1.1489,1.0756,1.0026,1.0081,1.0737,1.1594,1.2035,1.3529,1.5106,1.5673,1.7208,1.849,1.849,1.8564,1.8631,1.8631,1.845,1.837,1.8591,1.8196,1.7943,1.8156,1.8135,1.8135,1.8135,1.8364,1.849,1.849,1.9811,2.087,2.1302,2.3588,2.5185,2.5618,2.6263,2.6445,2.6103,2.6093,2.6093,2.6093,2.582,2.6025,2.6582,2.6455,2.668,2.7217,2.708,2.6855,2.6602,2.6894,2.6846,2.6621,2.7041,2.7217,2.7236,2.7363,2.7598,2.7861,2.7861,2.8047,2.831,0.0,0.0,0.0,0.0,0.0,0.0,0.0056,0.2573,0.4637,0.4904,0.7558,0.9493,0.9788,0.9819,0.9819,0.9819,0.969,0.9608,0.9605,0.932,0.9086,0.8888,0.8794,0.8713,0.871,0.856,0.8414,0.8323,0.8323,0.8194,0.7992,0.7992,0.7992,0.7992,0.7988,0.7988,0.7988,0.7988,0.7988,0.7988,0.7988,0.7988,0.7988,0.7988,0.7988,0.7992,0.7992,0.814,0.8323,0.8323,0.923,1.0425,1.0621,1.08,1.0649,0.9557,0.921,0.9245,0.9398,0.9439,0.9709,1.0824,1.2497,1.4272,1.5749,1.7346,1.8497,1.8497,1.8724,1.8925,1.8925,1.8925,1.8925,1.8925,1.8684,1.8497,1.8497,1.8497,1.8497,1.8497,1.8497,1.8497,1.8497,1.9873,2.1256,2.2642,2.4132,2.5628,2.691,2.7021,2.7021,2.7012,2.7012,2.7012,2.7012,2.6122,2.6172,2.7012,2.6602,2.6846,2.7708,2.7217,2.7021,2.7021,2.7021,2.7021,2.7051,2.749,2.7718,2.7767,2.8135,2.8301,2.8301,2.8301,2.8301,2.8359,0.0,0.0,0.033,0.1339,0.1566,0.1901,0.3019,0.4804,0.6133,0.6262,0.8089,0.9456,0.9652,0.9673,0.9673,0.9673,0.9537,0.9405,0.9296,0.911,0.8984,0.8885,0.8841,0.8821,0.8713,0.8665,0.8567,0.8418,0.8418,0.8394,0.8347,0.8248,0.8201,0.8197,0.8089,0.7988,0.7988,0.7988,0.7988,0.7988,0.7988,0.7988,0.7988,0.7988,0.8106,0.8201,0.8201,0.8296,0.8418,0.8418,0.8776,0.9269,0.9541,0.9736,0.9988,1.0776,1.1016,1.1253,1.2377,1.2781,1.2463,1.052,1.1313,1.2987,1.4659,1.6275,1.7796,1.8926,1.9172,1.9232,1.9232,1.9232,1.9232,1.9232,1.9158,1.9105,1.9105,1.9105,1.9105,1.9105,1.9105,1.9549,2.0585,2.2013,2.35,2.4974,2.6463,2.7396,2.749,2.7471,2.7334,2.7021,2.7012,2.7012,2.7012,2.6758,2.6914,2.7471,2.7344,2.7578,2.8096,2.7969,2.7754,2.749,2.7783,2.7744,2.75,2.793,2.8105,2.8144,2.8564,2.873,2.873,2.873,2.873,2.875,0.0,0.0487,0.1154,0.2062,0.2682,0.3409,0.4359,0.5753,0.674,0.6902,0.8353,0.9439,0.9591,0.9659,0.9693,0.9693,0.9608,0.9466,0.9313,0.9218,0.915,0.9028,0.9022,0.8954,0.8804,0.8801,0.8726,0.857,0.857,0.854,0.8479,0.8336,0.8323,0.8313,0.8109,0.7988,0.7988,0.7988,0.7988,0.7995,0.8106,0.813,0.8136,0.8194,0.8272,0.8353,0.8353,0.8859,0.947,0.9583,0.9806,0.9924,0.9502,0.9852,1.0635,1.1691,1.2351,1.3053,1.4054,1.4407,1.4069,1.2201,1.2925,1.4435,1.5471,1.7018,1.8548,1.9529,1.9713,1.9713,1.9713,1.9713,1.9673,1.9559,1.9539,1.9499,1.9379,1.9424,1.9424,1.9424,1.9424,1.9758,2.0644,2.2597,2.4654,2.6825,2.7789,2.8184,2.793,2.792,2.7793,2.7529,2.7519,2.7519,2.7519,2.7519,2.7568,2.7718,2.7718,2.7891,2.8291,2.8291,2.8154,2.793,2.8184,2.8144,2.7939,2.8193,2.8291,2.831,2.8574,2.8672,2.8672,2.8672,2.8672,2.8701,0.0,0.1188,0.2249,0.2397,0.3688,0.4751,0.4862,0.6031,0.6961,0.7061,0.8462,0.9435,0.9574,0.9727,0.9822,0.9822,0.9808,0.9683,0.9401,0.951,0.9466,0.9245,0.9217,0.9093,0.8905,0.8892,0.8814,0.873,0.873,0.8659,0.852,0.8377,0.8361,0.8303,0.8136,0.8012,0.8008,0.7995,0.7988,0.8005,0.8208,0.8323,0.8337,0.8581,0.8696,0.8709,0.8864,0.9863,1.1166,1.1483,1.1846,1.1934,1.0502,1.1031,1.2288,1.2598,1.3596,1.4722,1.5015,1.5077,1.5189,1.5392,1.6612,1.7655,1.7511,1.8797,2.0045,2.0173,2.0173,2.0173,2.0173,2.0173,2.014,1.9846,1.982,1.9726,1.947,1.945,1.9457,1.943,1.945,1.945,1.9597,2.2266,2.5215,2.8067,2.8291,2.8291,2.8291,2.8291,2.8291,2.8291,2.8291,2.8291,2.8291,2.8291,2.8096,2.7777,2.7777,2.792,2.8291,2.8291,2.8291,2.8291,2.8291,2.8291,2.8291,2.8291,2.8291,2.8301,2.833,2.8369,2.8408,2.8408,2.8428,2.8516,0.0,0.1188,0.2578,0.3789,0.525,0.6589,0.7762,0.8211,0.8445,0.8474,0.8987,0.9395,0.9425,0.9663,0.9822,0.9822,0.972,0.9578,0.9395,0.9412,0.9401,0.9334,0.9272,0.9193,0.9163,0.8994,0.8868,0.8834,0.8834,0.8817,0.8835,0.8686,0.8615,0.8604,0.834,0.8221,0.8211,0.8092,0.7988,0.8005,0.8208,0.8323,0.8436,0.9709,1.0269,1.0498,1.1647,1.2466,1.3182,1.3571,1.3798,1.383,1.3587,1.3758,1.4331,1.5807,1.6504,1.7059,1.8607,1.8997,1.9009,1.9066,1.9562,1.9604,1.813,1.813,1.8735,1.9978,2.0173,2.0173,2.0173,2.0173,2.014,1.9846,1.9993,1.996,1.9497,1.9559,1.9626,1.9392,1.9573,2.0068,2.106,2.3813,2.6327,2.8174,2.8291,2.8291,2.8291,2.8291,2.8291,2.8291,2.8291,2.8291,2.8291,2.8291,2.8252,2.8154,2.8154,2.8203,2.8291,2.8291,2.8291,2.8291,2.8291,2.8291,2.8291,2.8291,2.8291,2.833,2.8662,2.8984,2.9297,2.9297,2.9502,2.9795,0.0902,0.2265,0.378,0.5291,0.6758,0.7986,0.8771,0.8885,0.8908,0.9032,0.9239,0.9408,0.9483,0.969,0.9822,0.9822,0.9754,0.9676,0.9595,0.9591,0.9561,0.9493,0.9412,0.9337,0.932,0.9117,0.9008,0.8885,0.8885,0.8885,0.8878,0.8781,0.871,0.8699,0.8472,0.837,0.8367,0.8286,0.8252,0.8265,0.8418,0.8895,0.9642,1.0679,1.154,1.2344,1.3197,1.4227,1.513,1.5336,1.5571,1.5709,1.4837,1.5345,1.637,1.7163,1.8046,1.8917,1.9938,2.0173,2.0267,2.0408,2.0561,2.0442,1.9464,1.9342,1.9629,2.0462,2.0648,2.0648,2.0648,2.0648,2.0555,2.0267,2.0347,2.0287,1.9846,1.9913,1.9953,1.98,1.9913,2.0523,2.1912,2.4171,2.6078,2.7314,2.8334,2.8721,2.831,2.8476,2.8496,2.8301,2.8291,2.8291,2.8291,2.8291,2.8291,2.8291,2.8291,2.8291,2.8291,2.8291,2.8398,2.8584,2.8379,2.8408,2.8574,2.8379,2.8291,2.831,2.8535,2.876,2.8984,2.9189,2.9531,2.9932,0.1961,0.3662,0.5257,0.6516,0.7931,0.8892,0.8971,0.8977,0.9028,0.9231,0.9323,0.9469,0.9595,0.9737,0.9822,0.9822,0.9822,0.9822,0.9822,0.9822,0.9768,0.9649,0.9622,0.9551,0.9422,0.9326,0.912,0.8977,0.8895,0.8885,0.8881,0.8808,0.875,0.8743,0.8587,0.852,0.852,0.8492,0.8482,0.8496,0.8648,0.9609,1.0971,1.1623,1.2766,1.4122,1.4689,1.5835,1.7044,1.7035,1.7378,1.7553,1.5969,1.6754,1.8258,1.8022,1.906,2.0321,2.0368,2.032,2.0441,2.0688,2.0755,2.0755,2.0755,2.0935,2.1109,2.1109,2.1109,2.1109,2.1109,2.1109,2.1015,2.0722,2.0722,2.0628,2.0281,2.0274,2.0287,2.0241,2.0173,2.0846,2.2438,2.3956,2.5357,2.6504,2.8445,2.9258,2.8545,2.8848,2.8877,2.8525,2.8516,2.8476,2.8398,2.8398,2.8359,2.8291,2.8291,2.8291,2.8291,2.8291,2.8476,2.8789,2.8447,2.8535,2.8887,2.8467,2.833,2.8398,2.832,2.834,2.8457,2.8955,2.9365,2.9736,0.2172,0.4466,0.6458,0.6682,0.7931,0.8981,0.9159,0.918,0.9234,0.933,0.9483,0.9588,0.9608,0.9737,0.9822,0.9822,0.9822,0.9822,0.9822,0.9822,0.9812,0.9791,0.9676,0.9598,0.9581,0.9429,0.9276,0.918,0.8998,0.8885,0.8885,0.8861,0.8851,0.8848,0.8747,0.8679,0.8669,0.8537,0.8482,0.8496,0.8648,0.9609,1.1074,1.2769,1.4311,1.5785,1.7357,1.8209,1.8667,1.8924,1.9226,1.9424,1.9206,1.9474,1.9963,2.0174,2.0458,2.0668,2.0922,2.0995,2.1002,2.1042,2.1049,2.1049,2.1049,2.1082,2.1109,2.1109,2.1109,2.1109,2.1109,2.1109,2.1015,2.0722,2.0882,2.0855,2.0307,2.0454,2.0521,2.02,2.0173,2.0929,2.2688,2.4099,2.5467,2.6936,2.8606,2.9577,2.946,2.9453,2.9453,2.946,2.9394,2.9219,2.8838,2.8838,2.8652,2.8291,2.8291,2.8291,2.8291,2.8291,2.832,2.8369,2.831,2.8535,2.8887,2.8467,2.8506,2.8799,2.8437,2.8516,2.8935,2.9736,3.0059,3.0176,0.429,0.5746,0.6974,0.7808,0.8491,0.8988,0.9187,0.921,0.9296,0.9479,0.9568,0.9639,0.972,0.9785,0.9822,0.9822,0.9822,0.9822,0.9822,0.9822,0.9822,0.9822,0.9761,0.9727,0.9727,0.9585,0.9476,0.9408,0.9259,0.9188,0.9184,0.91,0.9059,0.9052,0.8903,0.8838,0.8832,0.8767,0.8737,0.875,0.8899,1.0374,1.2588,1.3688,1.5564,1.7708,1.8638,1.9065,1.9192,1.9325,1.9666,2.0013,1.9853,2.0227,2.0715,2.0688,2.0795,2.0949,2.1076,2.1109,2.1109,2.1109,2.1109,2.1109,2.1109,2.1109,2.1109,2.1109,2.1109,2.1109,2.1109,2.1109,2.1069,2.0942,2.1029,2.1015,2.0762,2.0835,2.0869,2.0735,2.0722,2.1017,2.1818,2.4106,2.5661,2.604,2.8732,3.0088,2.9655,2.9795,2.9814,2.9636,2.9626,2.9365,2.8926,2.8916,2.8711,2.8291,2.8291,2.8291,2.8291,2.8291,2.8418,2.8643,2.8643,2.8887,2.9268,2.9082,2.9111,2.9238,2.8809,2.875,2.8994,2.9619,3.0,3.0264]},{"header":{"parameterUnit":"m.s-1","parameterCategory":1,"la1":30.6,"la2":28.766,"lo1":-90.7593,"lo2":-88.6598,"dy":0.0162,"dx":0.0183,"nx":116,"ny":114,"refTime":"2023-09-22T18:00:00:Z","depth":0,"parameterNumber":3,"parameterNumberName":"V-component_of_WINDS"},"data":[0.0,0.0,0.0,0.0,0.0,0.0,0.0,0.0,0.0,0.0,0.0,0.0,0.0,0.0,0.0,0.0,0.0,0.0,0.0,0.0,0.0,0.0,0.0,0.0,0.0,0.0,0.0,0.0,0.0,0.0,0.0,0.0,0.0,0.0,0.0,0.0,0.0,0.0,0.0,0.0,0.0,0.0,0.0,0.0,0.0,0.0,0.0,0.0,0.0,0.0,0.0,0.0,0.0,0.0,0.0,0.0,0.0,0.0,0.0,0.0,0.0,0.0,0.0,0.0,0.0,0.0,0.0,0.0,0.0,0.0,0.0,0.0,0.0,0.0,0.0,0.0,0.0,0.0,0.0,0.0,0.0,0.0,0.0,0.0,0.0,0.0,0.0,0.0,0.0,0.0,0.0,0.0,0.0,0.0,0.0,0.0,0.0,0.0,0.0,0.0,0.0,0.0,0.0,0.0,0.0,0.0,0.0,0.0,0.0,0.0,0.0,0.0,0.0,0.0,0.0,0.0,0.0,0.0,0.0,0.0,0.0,0.0,0.0,0.0,0.0,0.0,0.0,0.0,0.0,0.0,0.0,0.0,0.0,0.0,0.0,0.0,0.0,0.0,0.0,0.0,0.0,0.0,0.0,0.0,0.0,0.0,0.0,0.0,0.0,0.0,0.0,0.0,0.0,0.0,0.0,0.0,0.0,0.0,0.0,0.0,0.0,0.0,0.0,0.0,0.0,0.0,0.0,0.0,0.0,0.0,0.0,0.0,0.0,0.0,0.0,0.0,0.0,0.0,0.0,0.0,0.0,0.0,0.0,0.0,0.0,0.0,0.0,0.0,0.0,0.0,0.0,0.0,0.0,0.0,0.0,0.0,0.0,0.0,0.0,0.0,0.0,0.0,0.0,0.0,0.0,0.0,0.0,0.0,0.0,0.0,0.0,0.0,0.0,0.0,0.0,0.0,0.0,0.0,0.0,0.0,0.0,0.0,0.0,0.0,0.0,0.0,0.0,0.0,0.0,0.0,0.0,0.0,0.0,0.0,0.0,0.0,0.0,0.0,0.0,0.0,0.0,0.0,0.0,0.0,0.0,0.0,0.0,0.0,0.0,0.0,0.0,0.0,0.0,0.0,0.0,0.0,0.0,0.0,0.0,0.0,0.0,0.0,0.0,0.0,0.0,0.0,0.0,0.0,0.0,0.0,0.0,0.0,0.0,0.0,0.0,0.0,0.0,0.0,0.0,0.0,0.0,0.0,0.0,0.0,0.0,0.0,0.0,0.0,0.0,0.0,0.0,0.0,0.0,0.0,0.0,0.0,0.0,0.0,0.0,0.0,0.0,0.0,0.0,0.0,0.0,0.0,0.0,0.0,0.0,0.0,0.0,0.0,0.0,0.0,0.0,0.0,0.0,0.0,0.0,0.0,0.0,0.0,0.0,0.0,0.0,0.0,0.0,0.0,0.0,0.0,0.0,0.0,0.0,0.0,0.0,0.0,0.0,0.0,0.0,0.0,0.0,0.0,0.0,0.0,0.0,0.0,0.0,0.0,0.0,0.0,0.0,0.0,0.0,0.0,0.0,0.0,0.0,0.0,0.0,0.0,0.0,0.0,0.0,0.0,0.0,0.0,0.0,0.0,0.0,0.0,0.0,0.0,0.0,0.0,0.0,0.0,0.0,0.0,0.0,0.0,0.0,0.0,0.0,0.0,0.0,0.0,0.0,0.0,0.0,0.0,0.0,0.0,0.0,0.0,0.0,0.0,0.0,0.0,0.0,0.0,0.0,0.0,0.0,0.0,0.0,0.0,0.0,0.0,0.0,0.0,0.0,0.0,0.0,0.0,0.0,0.0,0.0,0.0,0.0,0.0,0.0,0.0,0.0,0.0,0.0,0.0,0.0,0.0,0.0,0.0,0.0,0.0,0.0,0.0,0.0,0.0,0.0,0.0,0.0,0.0,0.0,0.0,0.0,0.0,0.0,0.0,0.0,0.0,0.0,0.0,0.0,0.0,0.0,0.0,0.0,0.0,0.0,0.0,0.0,0.0,0.0,0.0,0.0,0.0,0.0,0.0,0.0,0.0,0.0,0.0,0.0,0.0,0.0,0.0,0.0,0.0,0.0,0.0,0.0,0.0,0.0,0.0,0.0,0.0,0.0,0.0,0.0,0.0,0.0,0.0,0.0,0.0,0.0,0.0,0.0,0.0,0.0,0.0,0.0,0.0,0.0,0.0,0.0,0.0,0.0,0.0,0.0,0.0,0.0,0.0,0.0,0.0,0.0,0.0,0.0,0.0,0.0,0.0,0.0,0.0,0.0,0.0,0.0,0.0,0.0,0.0,0.0,0.0,0.0,0.0,0.0,0.0,0.0,0.0,0.0,0.0,0.0,0.0,0.0,0.0,0.0,0.0,0.0,0.0,0.0,0.0,0.0,0.0,0.0,0.0,0.0,0.0,0.0,0.0,0.0,0.0,0.0,0.0,0.0,0.0,0.0,0.0,0.0,0.0,0.0,0.0,0.0,0.0,0.0,0.0,0.0,0.0,0.0,0.0,0.0,0.0,0.0,0.0,0.0,0.0,0.0,0.0,0.0,0.0,0.0,0.0,0.0,0.0,0.0,0.0,0.0,0.0,0.0,0.0,0.0,0.0,0.0,0.0,0.0,0.0,0.0,0.0,0.0,0.0,0.0,0.0,0.0,0.0,0.0,0.0,0.0,0.0,0.0,0.0,0.0,0.0,0.0,0.0,0.0,0.0,0.0,0.0,0.0,0.0,0.0,0.0,0.0,0.0,0.0,0.0,0.0,0.0,0.0,0.0,0.0,0.0,0.0,0.0,0.0,0.0,0.0,0.0,0.0,0.0,0.0,0.0,0.0,0.0,0.0,0.0,0.0,0.0,0.0,0.0,0.0,0.0,0.0,0.0,0.0,0.0,0.0,0.0,0.0,0.0,0.0,0.0,0.0,0.0,0.0,0.0,0.0,0.0,0.0,0.0,0.0,0.0,0.0,0.0,0.0,0.0,0.0,0.0,0.0,0.0,0.0,0.0,0.0,0.0,0.0,0.0,0.0,0.0,0.0,0.0,0.0,0.0,0.0,0.0,0.0,0.0,0.0,0.0,0.0,0.0,0.0,0.0,0.0,0.0,0.0,0.0,0.0,0.0,0.0,0.0,0.0,0.0,0.0,0.0,0.0,0.0,0.0,0.0,0.0,0.0,0.0,0.0,0.0,0.0,0.0,0.0,0.0,0.0,0.0,0.0,0.0,0.0,0.0,0.0,0.0,0.0,0.0,0.0,0.0,0.0,0.0,0.0,0.0,0.0,0.0,0.0,0.0,0.0,0.0,0.0,0.0,0.0,0.0,0.0,0.0,0.0,0.0,0.0,0.0,0.0,0.0,0.0,0.0,0.0,0.0,0.0,0.0,0.0,0.0,0.0,0.0,0.0,0.0,0.0,0.0,0.0,0.0,0.0,0.0,0.0,0.0,0.0,0.0,0.0,0.0,0.0,0.0,0.0,0.0,0.0,0.0,0.0,0.0,0.0,0.0,0.0,0.0,0.0,0.0,0.0,0.0,0.0,0.0,0.0,0.0,0.0,0.0,0.0,0.0,0.0,0.0,0.0,0.0,0.0,0.0,0.0,0.0,0.0,0.0,0.0,0.0,0.0,0.0,0.0,0.0,0.0,0.0,0.0,0.0,0.0,0.0,0.0,0.0,0.0,0.0,0.0,0.0,0.0,0.0,0.0,0.0,0.0,0.0,0.0,0.0,0.0,0.0,0.0,0.0,0.0,0.0,0.0,0.0,0.0,0.0,0.0,0.0,0.0,0.0,0.0,0.0,0.0,0.0,0.0,0.0,0.0,0.0,0.0,0.0,0.0,0.0,0.0,0.0,0.0,0.0,0.0,0.0,0.0,0.0,0.0,0.0,0.0,0.0,0.0,0.0,0.0,0.0,0.0,0.0,0.0,0.0,0.0,0.0,0.0,0.0,0.0,0.0,0.0,0.0,0.0,0.0,0.0,0.0,0.0,0.0,0.0,0.0,0.0,0.0,0.0,0.0,0.0,0.0,0.0,0.0,0.0,0.0,0.0,0.0,0.0,0.0,0.0,0.0,0.0,0.0,0.0,0.0,0.0,0.0,0.0,0.0,0.0,0.0,0.0,0.0,0.0,0.0,0.0,0.0,0.0,0.0,0.0,0.0,0.0,0.0,0.0,0.0,0.0,0.0,0.0,0.0,0.0,0.0,0.0,0.0,0.0,0.0,0.0,0.0,0.0,0.0,0.0,0.0,0.0,0.0,0.0,0.0,0.0,0.0,0.0,0.0,0.0,0.0,0.0,0.0,0.0,0.0,0.0,0.0,0.0,0.0,0.0,0.0,0.0,0.0,0.0,0.0,0.0,0.0,0.0,0.0,0.0,0.0,0.0,0.0,0.0,0.0,0.0,0.0,0.0,0.0,0.0,0.0,0.0,0.0,0.0,0.0,0.0,0.0,0.0,0.0,0.0,0.0,0.0,0.0,0.0,0.0,0.0,0.0,0.0,0.0,0.0,0.0,0.0,0.0,0.0,0.0,0.0,0.0,0.0,0.0,0.0,0.0,0.0,0.0,0.0,0.0,0.0,0.0,0.0,0.0,0.0,0.0,0.0,0.0,0.0,0.0,0.0,0.0,0.0,0.0,0.0,0.0,0.0,0.0,0.0,0.0,0.0,0.0,0.0,0.0,0.0,0.0,0.0,0.0,0.0,0.0,0.0,0.0,0.0,0.0,0.0,0.0,0.0,0.0,0.0,0.0,0.0,0.0,0.0,0.0,0.0,0.0,0.0,0.0,0.0,0.0,0.0,0.0,0.0,0.0,0.0,0.0,0.0,0.0,0.0,0.0,0.0,0.0,0.0,0.0,0.0,0.0,0.0,0.0,0.0,0.0,0.0,0.0,0.0,0.0,0.0,0.0,0.0,0.0,0.0,0.0,0.0,0.0,0.0,0.0,0.0,0.0,0.0,0.0,0.0,0.0,0.0,0.0,0.0,0.0,0.0,0.0,0.0,0.0,0.0,0.0,0.0,0.0,0.0,0.0,0.0,0.0,0.0,0.0,0.0,0.0,0.0,0.0,0.0,0.0,0.0,0.0,0.0,0.0,0.0,0.0,0.0,0.0,0.0,0.0,0.0,0.0,0.0,0.0,0.0,0.0,0.0,0.0,0.0,0.0,0.0,0.0,0.0,0.0,0.0,0.0,0.0,0.0,0.0,0.0,0.0,0.0,0.0,0.0,0.0,0.0,0.0,0.0,0.0,0.0,0.0,0.0,0.0,0.0,0.0,0.0,0.0,0.0,0.0,0.0,0.0,0.0,0.0,0.0,0.0,0.0,0.0,0.0,0.0,0.0,0.0,0.0,0.0,0.0,0.0,0.0,0.0,0.0,0.0,0.0,0.0,0.0,0.0,0.0,0.0,0.0,0.0,0.0,0.0,0.0,0.0,0.0,0.0,0.0,0.0,0.0,0.0,0.0,0.0,0.0,0.0,0.0,0.0,0.0,0.0,0.0,0.0,0.0,0.0,0.0,0.0,0.0,0.0,0.0,0.0,0.0,0.0,0.0,0.0,0.0,0.0,0.0,0.0,0.0,0.0,0.0,0.0,0.0,0.0,0.0,0.0,0.0,0.0,0.0,0.0,0.0,0.0,0.0,0.0,0.0,0.0,0.0,0.0,0.0,0.0,0.0,0.0,0.0,0.0,0.0,0.0,0.0,0.0,0.0,0.0,0.0,0.0,0.0,0.0,0.0,0.0,0.0,0.0,0.0,0.0,0.0,0.0,0.0,0.0,0.0,0.0,0.0,0.0,0.0,0.0,0.0,0.0,0.0,0.0,0.0,0.0,0.0,0.0,0.0,0.0,0.0,0.0,0.0,0.0,0.0,0.0,0.0,0.0,0.0,0.0,0.0,0.0,0.0,0.0,0.0,0.0,0.0,0.0,0.0,0.0,0.0,0.0,0.0,0.0,0.0,0.0,0.0,0.0,0.0,0.0,0.0,0.0,0.0,0.0,0.0,0.0,0.0,0.0,0.0,0.0,0.0,0.0,0.0,0.0,0.0,0.0,0.0,0.0,0.0,0.0,2.204,0.0,0.0,0.0,0.0,0.0,0.0,0.0,0.0,0.0,0.0,0.0,0.0,0.0,0.0,0.0,0.0,0.0,0.0,0.0,0.0,0.0,0.0,0.0,0.0,0.0,0.0,0.0,0.0,0.0,0.0,0.0,0.0,0.0,0.0,0.0,0.0,0.0,0.0,2.283,2.3916,2.387,2.2723,2.1096,1.8964,1.6456,0.0,0.0,0.0,0.0,0.0,0.0,0.0,0.0,0.0,0.0,0.0,0.0,0.0,0.0,0.0,0.0,0.0,0.0,0.0,0.0,0.0,0.0,0.0,0.0,0.0,0.0,0.0,0.0,0.0,0.0,0.0,0.0,0.0,0.0,0.0,0.0,0.0,0.0,0.0,0.0,0.0,0.0,0.0,0.0,0.0,0.0,0.0,0.0,0.0,0.0,0.0,0.0,0.0,0.0,0.0,0.0,0.0,0.0,0.0,0.0,0.0,0.0,0.0,0.0,0.0,0.0,0.0,0.0,0.0,0.0,0.0,2.3721,0.0,0.0,0.0,0.0,0.0,0.0,0.0,0.0,0.0,0.0,0.0,0.0,0.0,0.0,0.0,0.0,0.0,0.0,0.0,0.0,0.0,0.0,0.0,1.748,1.8278,1.9013,1.9195,1.8924,0.0,0.0,0.0,0.0,0.0,0.0,2.3853,2.3998,2.4274,2.4709,2.5669,2.6414,2.6911,2.5564,2.3805,2.1609,1.9121,0.0,0.0,0.0,0.0,0.0,0.0,0.0,0.0,0.0,0.0,0.0,0.0,0.0,0.0,0.0,0.0,0.0,0.0,0.0,0.0,0.0,0.0,0.0,0.0,0.0,0.0,0.0,0.0,0.0,0.0,0.0,0.0,0.0,0.0,0.0,0.0,0.0,0.0,0.0,0.0,0.0,0.0,0.0,0.0,0.0,0.0,0.0,0.0,0.0,0.0,0.0,0.0,0.0,0.0,0.0,0.0,0.0,0.0,0.0,0.0,0.0,0.0,0.0,3.4036,3.4065,3.3545,3.3994,3.3583,3.2312,2.9711,2.8053,2.7037,0.0,0.0,0.0,0.0,0.0,0.0,0.0,0.0,0.0,0.0,0.0,0.0,0.0,0.0,0.0,0.0,0.0,0.0,0.0,0.0,0.0,0.0,1.7499,1.8049,1.8171,1.8865,1.8918,1.8065,0.0,0.0,0.0,0.0,0.0,2.3233,2.3908,2.4315,2.4383,2.6226,2.8216,3.0463,3.4978,3.6918,3.602,2.3568,2.0736,2.5249,0.0,0.0,0.0,0.0,0.0,0.0,0.0,0.0,0.0,0.0,0.0,0.0,0.0,0.0,0.0,0.0,0.0,0.0,0.0,0.0,0.0,0.0,0.0,0.0,0.0,0.0,0.0,0.0,0.0,0.0,0.0,0.0,0.0,0.0,0.0,0.0,0.0,0.0,0.0,0.0,0.0,2.5702,2.7085,0.0,0.0,0.0,0.0,0.0,0.0,0.0,0.0,0.0,0.0,0.0,0.0,0.0,3.4724,3.5429,3.7252,3.7991,3.7625,3.8837,3.909,3.8466,3.854,3.8018,3.7065,3.6693,0.0,2.9776,2.9402,0.0,0.0,0.0,0.0,0.0,0.0,0.0,0.0,0.0,0.0,0.0,0.0,0.0,0.0,0.0,0.0,0.0,0.0,0.0,0.0,0.0,1.675,1.7471,1.7957,1.9986,2.1296,2.1419,2.1496,0.0,0.0,0.0,2.4191,2.3627,2.4372,2.5555,2.7181,3.0358,3.3096,3.5441,3.9959,4.2109,4.1753,3.3644,3.0609,3.1692,3.3638,0.0,0.0,0.0,0.0,0.0,0.0,0.0,0.0,0.0,0.0,0.0,0.0,0.0,0.0,0.0,0.0,0.0,0.0,0.0,0.0,0.0,0.0,0.0,0.0,0.0,0.0,0.0,0.0,0.0,0.0,0.0,0.0,0.0,0.0,0.0,0.0,0.0,0.0,0.0,2.5161,2.6876,2.7427,2.7617,2.7644,0.0,0.0,0.0,0.0,0.0,0.0,0.0,0.0,0.0,3.6399,3.7558,3.8442,3.9106,4.007,4.0561,4.0673,4.1257,4.1354,4.1055,4.0696,4.0316,3.9896,3.9527,3.8083,3.5787,3.3267,3.1754,3.083,0.0,0.0,0.0,0.0,2.9915,3.0751,0.0,0.0,0.0,0.0,0.0,0.0,0.0,0.0,0.0,0.0,0.0,0.0,1.7546,1.897,2.0051,1.9997,2.256,2.4495,2.5244,2.396,2.3602,2.4551,2.4486,2.4202,2.3778,2.5206,2.736,3.0236,3.3578,3.6662,3.9485,4.2452,4.3759,4.3556,4.155,3.9082,3.6763,4.0782,3.672,2.7458,0.0,0.0,0.0,0.0,0.0,0.0,0.0,0.0,0.0,0.0,0.0,0.0,0.0,0.0,0.0,0.0,0.0,0.0,0.0,0.0,0.0,0.0,0.0,0.0,0.0,0.0,0.0,0.0,0.0,0.0,0.0,0.0,0.0,0.0,0.0,0.0,0.0,2.7071,2.8705,2.839,2.9507,2.9955,0.0,0.0,0.0,0.0,0.0,0.0,3.5847,3.7026,3.8473,4.0383,4.1065,4.1713,4.2372,4.2387,4.2551,4.2905,4.2905,4.2815,4.2596,4.2102,4.1878,4.1848,4.1369,4.1055,4.0621,3.6874,3.4606,3.3423,3.2331,3.1795,3.1751,3.209,3.2745,3.3615,0.0,0.0,0.0,0.0,0.0,0.0,0.0,0.0,0.0,0.0,0.0,2.0535,2.2516,2.6569,2.812,2.5648,2.6899,2.8017,2.8432,2.6627,2.524,2.4638,2.4899,2.4464,2.3158,2.6536,2.9675,3.2446,3.3793,3.6813,4.1387,4.2387,4.2605,4.2138,4.3421,4.2189,3.9236,3.9969,3.5348,2.7812,3.0129,0.0,0.0,0.0,0.0,0.0,0.0,0.0,0.0,0.0,0.0,0.0,0.0,0.0,0.0,0.0,0.0,0.0,0.0,0.0,0.0,0.0,0.0,0.0,0.0,0.0,0.0,0.0,0.0,0.0,0.0,0.0,0.0,0.0,0.0,0.0,0.0,0.0,0.0,3.1599,3.4267,0.0,0.0,0.0,0.0,3.4611,3.5845,3.7695,4.0868,4.1122,4.2034,4.3967,4.4082,4.4436,4.5095,4.5095,4.4796,4.4212,4.4212,4.3883,4.3245,4.3215,4.3185,4.3185,4.317,4.2836,4.2141,4.0009,3.8346,3.7082,3.6455,3.5813,3.5245,3.5272,3.5723,3.6219,0.0,0.0,0.0,0.0,0.0,0.0,0.0,0.0,1.9836,1.9791,2.2032,2.4221,2.5886,2.8747,3.0485,3.0207,3.0568,3.0732,3.0534,2.8019,2.6478,2.6276,2.5646,2.5908,2.7172,2.8915,3.1134,3.3956,3.6216,3.8742,4.1547,4.319,4.4866,4.653,4.7053,4.6635,4.5573,4.574,4.188,3.558,3.454,3.2479,0.0,0.0,0.0,0.0,0.0,0.0,0.0,0.0,0.0,0.0,0.0,0.0,0.0,0.0,0.0,0.0,0.0,0.0,0.0,0.0,0.0,0.0,0.0,0.0,0.0,0.0,0.0,0.0,0.0,0.0,0.0,0.0,0.0,0.0,0.0,0.0,0.0,3.4619,3.6858,0.0,3.4966,3.3773,3.4108,3.6462,3.9293,4.1683,4.3424,4.4201,4.508,4.6202,4.6232,4.6142,4.5963,4.5963,4.5409,4.4317,4.4317,4.3932,4.329,4.2895,4.294,4.3275,4.2895,4.2821,4.2925,4.2198,4.0629,3.8691,3.8452,3.7704,3.6791,3.721,3.7509,3.7674,0.0,0.0,0.0,0.0,0.0,0.0,0.0,0.0,2.0875,2.049,2.3512,2.6163,2.7413,2.96,3.114,3.1632,3.1322,3.0993,3.0711,2.8444,2.7055,2.6974,2.6148,2.689,2.9429,3.0601,3.2436,3.5082,3.7564,3.9578,4.1066,4.2949,4.5131,4.7573,4.8558,4.8992,4.8983,4.9006,4.6146,4.136,3.8346,3.5666,3.3439,0.0,0.0,0.0,0.0,0.0,0.0,0.0,0.0,0.0,0.0,0.0,0.0,0.0,0.0,0.0,0.0,0.0,0.0,0.0,0.0,0.0,0.0,0.0,0.0,0.0,0.0,0.0,0.0,0.0,0.0,0.0,0.0,0.0,0.0,0.0,3.6189,3.6903,3.9996,4.1599,4.0442,4.0191,4.0245,4.0729,4.3184,4.4926,4.5526,4.6237,4.686,4.7294,4.7309,4.71,4.6651,4.6651,4.5978,4.4646,4.4646,4.4182,4.329,4.2895,4.2925,4.3275,4.288,4.294,4.3275,4.309,4.1848,4.0113,4.0322,3.9454,3.8167,3.8826,3.8931,3.8712,0.0,0.0,0.0,0.0,0.0,0.0,0.0,2.058,2.0214,2.1514,2.4005,2.6054,2.7068,2.939,3.0659,2.9984,2.9316,2.9021,2.9169,2.8024,2.7115,2.6592,2.6419,2.7378,2.9592,3.1482,3.3567,3.5841,3.7668,3.9102,4.0136,4.1568,4.3031,4.4603,4.7552,4.8866,4.8865,4.9045,4.7432,4.4474,4.1555,3.9231,3.7326,0.0,0.0,0.0,0.0,0.0,0.0,0.0,0.0,0.0,0.0,0.0,0.0,0.0,0.0,0.0,0.0,0.0,0.0,0.0,0.0,0.0,0.0,0.0,0.0,0.0,0.0,0.0,0.0,0.0,0.0,0.0,0.0,0.0,3.0484,3.3813,3.7291,3.8559,4.3801,4.73,4.7286,4.7292,4.7297,4.7289,4.7304,4.7297,4.7294,4.7309,4.7309,4.7309,4.7309,4.7309,4.7309,4.7309,4.6636,4.5289,4.5289,4.4601,4.329,4.329,4.329,4.329,4.329,4.329,4.3245,4.2665,4.2044,4.1505,4.2134,4.119,3.952,4.0201,4.0006,3.9334,0.0,0.0,0.0,0.0,0.0,0.0,0.0,2.1191,2.1005,2.1429,2.3474,2.5316,2.6429,2.9418,3.1649,3.2417,3.2318,3.1811,3.0914,2.9337,2.8318,2.7968,2.7688,2.9073,3.2337,3.2003,3.3411,3.6735,3.765,3.8781,4.0111,4.0515,4.0943,4.1471,4.4483,4.5814,4.6075,5.0274,5.0392,4.7734,4.6886,4.4294,4.0929,0.0,0.0,0.0,0.0,0.0,0.0,0.0,0.0,0.0,0.0,0.0,0.0,0.0,0.0,0.0,0.0,0.0,0.0,0.0,0.0,0.0,0.0,0.0,0.0,0.0,0.0,0.0,0.0,0.0,0.0,0.0,0.0,3.7336,3.8366,4.0199,4.1927,4.3278,4.5741,4.7284,4.728,4.7292,4.7287,4.7319,4.7291,4.7306,4.7294,4.7309,4.7309,4.7309,4.7309,4.7309,4.7309,4.7309,4.6636,4.5289,4.5289,4.4601,4.329,4.329,4.329,4.329,4.329,4.329,4.3324,4.3335,4.2962,4.2318,4.2011,4.1244,4.0462,4.1281,4.0808,3.966,0.0,0.0,0.0,0.0,0.0,0.0,0.0,2.1359,2.1282,2.1567,2.3476,2.5328,2.6669,2.9007,3.0735,3.1353,3.1612,3.0984,2.9165,2.8257,2.7837,2.7937,2.8504,2.9765,3.1739,3.1922,3.3478,3.6471,3.6777,3.8512,4.1524,4.1508,4.152,4.1598,4.3347,4.3596,4.3092,4.8766,5.0209,4.8816,5.0207,4.8494,4.5083,4.4947,4.3166,4.0515,3.8869,3.777,3.7026,3.6582,0.0,0.0,0.0,0.0,0.0,0.0,0.0,0.0,0.0,0.0,0.0,0.0,0.0,0.0,0.0,0.0,0.0,0.0,0.0,0.0,0.0,0.0,0.0,0.0,3.7425,4.0053,4.2953,4.4282,4.5262,4.604,4.6856,4.7309,4.7309,4.7309,4.7309,4.7309,4.7309,4.7309,4.7309,4.7309,4.7309,4.7309,4.7309,4.7309,4.7309,4.704,4.6683,4.6351,4.5748,4.5288,4.4971,4.4678,4.4502,0.0,4.4502,4.4502,4.4493,4.4388,4.3914,0.0,0.0,0.0,0.0,0.0,4.0582,3.9849,0.0,0.0,0.0,0.0,0.0,0.0,0.0,2.1322,2.1279,2.1953,2.3663,2.5416,2.6967,2.8175,2.8672,2.8178,2.8326,2.7688,2.5928,2.6031,2.6581,2.7479,2.92,2.9968,2.9599,3.1543,3.354,3.5588,3.5829,3.8347,4.2974,4.3317,4.3508,4.3487,4.349,4.2388,4.0799,4.5399,4.7737,4.8544,5.137,5.1297,4.9333,4.825,4.706,4.5518,4.2096,4.0219,3.9349,3.9226,0.0,0.0,0.0,0.0,0.0,0.0,0.0,0.0,0.0,0.0,0.0,0.0,0.0,0.0,0.0,0.0,0.0,0.0,0.0,0.0,0.0,0.0,0.0,0.0,4.0558,4.3369,4.5155,4.6501,4.73,4.7319,4.7289,4.7367,4.7557,4.7497,4.7568,4.7757,4.7697,4.7636,4.7533,0.0,0.0,0.0,0.0,4.777,4.777,4.7018,4.7037,4.7838,4.6493,4.6316,4.7137,4.6497,4.6208,4.6208,4.6208,4.6208,4.616,4.5594,4.4923,4.4248,4.4035,4.2799,4.1095,4.0357,4.0076,4.0034,0.0,0.0,0.0,0.0,0.0,0.0,0.0,2.17,2.1698,2.2725,2.3031,2.3582,2.4714,2.6364,2.6971,2.5925,2.42,2.4312,2.6965,2.6043,2.6608,2.9329,3.0444,3.0922,3.0841,3.1272,3.2857,3.5598,3.7275,3.8609,3.97,4.2293,4.3499,4.3505,4.3489,4.3266,4.2772,4.2008,4.424,4.8301,4.8337,4.9965,5.2236,5.0898,4.9529,4.8033,4.566,4.4225,4.3327,4.2512,4.1994,4.1347,3.9351,3.6625,0.0,0.0,0.0,0.0,0.0,0.0,0.0,0.0,0.0,0.0,0.0,0.0,0.0,0.0,0.0,0.0,0.0,0.0,0.0,4.0293,4.2921,4.505,4.5992,4.6796,4.7289,4.7306,4.7322,4.7847,4.9266,4.8877,4.9099,5.0603,5.0129,4.9537,4.8946,4.893,0.0,4.9773,5.0335,5.0588,5.0588,4.9346,4.8561,4.8179,0.0,0.0,4.6417,4.6272,4.6208,4.6208,4.6208,4.6208,4.6196,4.6237,4.5904,4.526,4.3948,4.3211,4.2842,4.2088,4.1449,4.0877,0.0,0.0,0.0,0.0,0.0,0.0,0.0,2.2041,2.2061,2.2623,2.2768,2.3288,2.4546,2.5329,2.5424,2.4632,2.3236,2.4149,2.829,2.7827,2.8874,3.2203,3.2039,3.2056,3.2493,3.1657,3.3136,3.7162,3.8191,3.8699,3.8762,4.1994,4.35,4.3497,4.3504,4.3505,4.3359,4.1075,4.1683,4.4228,4.4607,4.6337,4.8835,5.014,4.9897,4.873,4.7777,4.7165,4.6625,4.5371,4.4446,4.3418,4.0872,3.8774,3.6934,0.0,0.0,0.0,0.0,0.0,0.0,0.0,0.0,0.0,0.0,0.0,0.0,0.0,0.0,3.6658,0.0,0.0,4.1063,4.3015,4.4736,4.6037,4.6726,4.71,4.7309,4.7309,4.7309,4.7858,4.9207,4.9027,4.9169,5.0088,5.0317,5.0015,4.9111,4.9566,5.0176,5.0887,5.1926,5.211,5.1395,4.9576,4.9036,4.985,4.7702,4.7378,4.8696,4.7935,4.7589,4.7589,4.7589,4.7589,4.7622,4.7719,4.7282,4.6421,4.4639,4.3508,4.2726,4.1593,4.0976,4.0595,0.0,0.0,0.0,0.0,0.0,0.0,0.0,2.2301,2.23,2.2293,2.2572,2.3297,2.4604,2.4408,2.4044,2.3687,2.3482,2.499,2.8748,2.9472,3.1133,3.4242,3.3317,3.3289,3.4427,3.3499,3.4928,3.8861,3.8986,3.9045,3.9107,4.19,4.331,4.3487,4.3506,4.3503,4.3372,4.1541,4.0763,4.084,4.1565,4.2487,4.3812,4.7603,4.8556,4.8088,4.9372,4.946,4.8697,4.6625,4.5137,4.3695,4.1111,4.0214,3.9497,3.6369,3.5538,0.0,0.0,0.0,0.0,0.0,0.0,0.0,0.0,0.0,3.7793,3.7935,3.8323,3.9134,4.0688,4.2043,4.3534,4.5214,4.6172,4.6888,4.7521,4.7714,4.7757,4.7701,4.7634,4.8019,4.9081,4.9256,4.9527,5.0113,5.0307,5.0185,4.9742,5.055,5.1237,5.1798,5.292,5.2953,5.1815,4.9981,4.9837,5.1318,4.8233,4.8161,5.0728,4.9537,4.9001,4.9001,4.9001,4.8934,4.8795,4.8639,4.8009,4.6949,4.4935,4.3386,4.2134,4.0857,4.0265,4.0096,0.0,0.0,0.0,0.0,0.0,0.0,0.0,0.0,2.2306,2.2299,2.2334,2.2574,2.3099,2.3109,2.2991,2.2769,2.3782,2.511,2.6741,2.9008,3.1176,3.3123,3.3484,3.4651,3.676,3.8561,3.9479,3.9496,4.004,4.0297,4.0342,4.1581,4.2637,4.3513,4.349,4.3509,4.3488,4.3223,4.312,4.297,4.1093,4.0429,4.0862,4.3761,4.4947,4.5741,5.0891,5.1131,4.8361,4.4199,4.2695,4.2381,4.139,4.062,3.9851,3.8546,3.6953,3.584,3.6901,3.8366,4.0163,4.2534,3.9924,3.7975,0.0,0.0,4.1358,4.1972,4.2658,4.3045,4.2992,4.4077,4.5244,4.6082,4.7249,4.8196,4.8604,4.9145,4.9393,4.9111,4.8805,4.9153,5.0469,5.0892,5.2152,5.4744,5.2112,5.114,5.2889,5.3076,5.3178,5.3263,5.3415,5.3415,5.328,5.301,5.2347,5.119,4.9521,4.8892,4.9252,4.9069,4.9001,4.9001,4.9001,4.8646,4.7986,4.7336,4.6607,4.5698,4.343,4.2448,4.2245,4.1654,4.0866,4.0096,0.0,0.0,0.0,0.0,0.0,0.0,0.0,0.0,0.0,2.3305,2.3406,2.3247,2.2823,2.2784,2.2693,2.2459,2.4074,2.5623,2.6828,2.8949,3.1084,3.3147,3.3594,3.4748,3.6817,3.9236,4.0393,4.011,4.0378,4.0487,4.053,4.1529,4.2974,4.4688,4.3866,4.4024,4.4959,4.5901,4.5562,4.4315,4.3005,4.2163,4.1685,4.177,4.1343,4.1082,4.4196,4.6112,0.0,4.2433,4.1021,4.111,4.1662,4.1639,4.1128,3.9846,3.8867,3.8343,3.9008,3.9623,0.0,0.0,4.1435,4.2024,4.6212,4.653,4.578,4.5255,4.511,4.5049,4.4889,4.574,4.6681,0.0,4.8455,4.9074,4.8743,4.9659,5.0208,4.9707,4.933,4.948,5.0483,5.1059,5.2241,5.4278,5.3042,5.2302,5.2559,5.3144,5.3501,5.3501,5.3501,5.3517,5.3499,5.3507,5.3177,5.2514,5.0139,4.9001,4.9001,4.9001,4.8057,4.6491,4.7342,4.7379,4.6735,4.5879,4.5346,4.4874,4.3014,4.1794,4.1006,4.0798,4.0477,4.0146,0.0,0.0,0.0,0.0,0.0,0.0,0.0,0.0,0.0,0.0,2.4189,2.3869,2.3015,2.2865,2.276,2.2569,2.4461,2.6063,2.6948,2.8986,3.0917,3.2646,3.3611,3.486,3.6477,3.8821,4.0196,4.05,4.05,4.0503,4.0523,4.1745,4.3475,4.5568,4.4532,4.5253,4.7263,4.7992,4.7408,4.591,4.5015,4.3997,4.2826,4.1178,3.9804,3.8797,3.9388,4.1087,4.27,4.0307,3.9387,3.9521,4.0858,4.1467,4.1395,3.9929,3.9778,4.0105,4.0119,0.0,0.0,4.0919,4.298,4.5687,4.8396,4.9012,4.8679,4.7522,4.6991,4.6653,4.6515,4.6976,4.7679,4.8611,4.9554,5.0102,4.9853,5.0699,5.1177,5.055,4.9988,4.9847,5.0328,5.1365,5.238,5.3428,5.3498,5.3144,5.24,5.3076,5.3501,5.3501,5.3501,5.35,5.3495,5.2663,5.2267,5.2235,5.0051,4.9001,4.9001,4.9001,4.7676,4.544,4.6237,4.6333,4.5862,4.5163,4.466,4.413,4.2811,4.1619,4.0604,4.0398,4.0353,4.0444,0.0,0.0,0.0,0.0,0.0,0.0,0.0,0.0,0.0,0.0,0.0,0.0,0.0,2.3307,2.3194,2.3171,2.4948,2.6213,2.6507,2.9077,3.0698,3.0951,3.3468,3.5321,3.6287,3.7974,3.94,4.0508,4.0508,4.0494,4.0545,4.2253,4.3965,4.5605,4.5558,4.7395,5.0463,4.8937,4.8259,4.8057,4.6488,4.4916,4.3353,4.22,4.1365,4.0701,3.9882,3.8004,3.6109,3.7507,3.7617,3.7363,3.8384,3.9367,3.9874,3.8414,3.8983,4.0103,4.0105,0.0,4.3003,4.3031,4.4513,4.6482,4.8536,4.9006,4.8921,4.8613,4.8541,4.8342,4.777,4.7682,4.8146,4.9641,5.0401,5.1322,5.2691,5.2848,5.2616,5.2001,5.1042,5.047,0.0,5.2241,5.3428,5.3518,5.3484,5.3501,5.3467,5.3467,5.3501,5.3501,5.3501,5.35,5.3495,5.0604,4.9134,4.9154,4.9058,4.9001,4.9001,4.9001,4.8416,4.7363,4.6431,4.5887,4.572,4.5674,4.4807,4.3341,4.2591,4.2185,4.194,4.1151,4.1007,4.1134,0.0,0.0,0.0,0.0,0.0,0.0,0.0,0.0,0.0,0.0,0.0,0.0,0.0,0.0,0.0,0.0,2.4993,2.6116,2.6789,2.7903,2.8882,2.9664,3.1858,3.3916,3.5784,3.7422,3.904,4.0639,4.0537,4.0495,4.0505,4.1092,4.3038,4.6052,4.5742,4.6861,4.8944,4.8502,4.8443,4.8641,4.7832,4.631,4.4441,4.3346,4.1703,3.9904,0.0,3.7598,3.6375,3.6383,3.5594,3.4868,3.6182,3.6841,3.7413,3.8911,3.9708,4.0092,4.0096,0.0,4.4241,4.4879,4.6034,4.7342,4.8707,4.8998,4.8692,4.7634,4.6944,4.6271,4.5413,4.5426,4.6261,4.8301,4.9773,5.1355,5.3486,5.4045,5.3412,5.1274,5.1039,0.0,0.0,0.0,0.0,5.3399,5.301,5.2942,5.3467,5.3501,5.3501,5.3501,5.2505,5.1964,5.1992,4.9996,4.899,4.8993,4.9004,4.9001,4.9001,4.9006,4.828,4.701,4.6309,4.5915,4.5765,4.5608,4.4889,4.3847,4.3609,4.2835,4.1877,4.1596,4.1785,4.2175,0.0,0.0,0.0,0.0,0.0,0.0,0.0,0.0,0.0,0.0,0.0,0.0,0.0,0.0,0.0,0.0,0.0,2.611,2.6745,2.7278,2.7926,2.8705,3.055,3.245,3.4335,3.6202,3.832,4.0739,4.0642,4.0579,4.0507,4.0565,4.2636,4.6266,4.5428,4.6111,4.785,4.7548,4.7885,4.8559,4.7564,4.6324,4.498,4.3906,4.2155,0.0,3.8304,3.7376,3.6905,3.6347,3.5313,3.4597,3.6378,3.6302,3.6127,3.8812,4.122,4.3041,4.3038,4.453,4.6187,4.6525,4.7335,4.8146,4.8514,4.8815,4.8514,4.6759,4.5971,4.5263,4.4231,4.3997,4.4804,4.7409,4.874,5.0379,5.3154,5.3549,5.2959,5.1356,5.1245,0.0,0.0,0.0,0.0,5.296,5.2858,5.2959,5.3467,5.3501,5.3348,5.2977,5.1814,5.0939,5.0428,4.9457,4.8984,4.9001,4.9001,4.8955,4.8903,4.8873,4.8066,4.6636,4.6285,4.5995,4.5815,4.5998,4.5297,4.4089,4.4089,4.3283,4.2103,4.2029,4.2428,4.294,0.0,0.0,0.0,0.0,0.0,0.0,0.0,0.0,0.0,0.0,0.0,0.0,0.0,0.0,0.0,0.0,0.0,0.0,2.6337,2.7127,2.7706,2.7954,2.9573,3.0996,3.2094,3.4335,3.715,4.0551,4.0551,4.0457,4.0264,4.0459,4.2409,4.5722,4.449,4.5161,4.7175,4.6058,4.6533,4.7853,4.576,4.4979,4.4936,4.389,4.2718,4.1252,3.8577,3.7541,3.7414,3.722,3.6702,3.6554,3.8756,3.7801,3.629,3.8444,4.3322,4.8082,4.8267,4.8603,4.8705,4.7949,4.8379,4.8778,4.8071,4.8392,4.8223,4.6041,4.5534,4.5156,4.4031,0.0,4.3928,4.6914,4.7539,4.8746,5.1914,5.1775,5.1572,0.0,0.0,0.0,0.0,0.0,0.0,5.2315,0.0,5.345,5.3551,5.3568,5.3128,5.2162,5.1592,5.0632,4.9181,4.9114,4.9058,4.9073,4.9124,4.9009,4.8765,4.874,4.791,4.6509,4.6403,4.6152,4.59,4.6702,4.5891,4.4165,4.4183,4.3599,4.2732,4.2531,4.2905,4.3409,0.0,0.0,0.0,0.0,0.0,0.0,0.0,0.0,0.0,0.0,0.0,0.0,0.0,0.0,0.0,0.0,0.0,0.0,2.5716,2.5931,2.6085,2.6164,2.7829,2.9476,3.1047,3.2879,3.492,3.721,3.721,3.7204,3.7148,3.6934,3.7495,3.8726,4.079,4.245,4.3659,4.2862,4.3802,4.563,4.3561,4.3339,4.422,4.3716,4.3273,4.2895,4.2174,4.0883,3.9213,3.7149,3.7833,3.9791,4.1241,4.0708,4.0137,4.3177,4.4389,4.5287,4.7895,4.9437,5.0024,4.8878,4.8767,4.8758,4.8056,4.7208,4.6075,4.435,4.3115,4.1919,4.0536,0.0,0.0,4.5734,4.7882,0.0,5.2809,5.3044,0.0,5.235,0.0,5.2553,5.1589,5.2367,0.0,0.0,5.2812,5.3121,5.4261,5.4328,5.4181,5.3883,5.3183,5.2378,5.1389,5.0477,5.005,5.0043,5.0739,5.0637,4.9793,4.8975,4.8416,4.7942,4.6407,4.6023,4.6431,4.6061,4.5479,4.489,4.5293,4.4565,4.3286,4.3249,4.3338,4.3462,0.0,0.0,0.0,0.0,0.0,0.0,0.0,0.0,0.0,0.0,0.0,0.0,0.0,0.0,0.0,0.0,0.0,0.0,0.0,2.5539,2.5545,2.5545,2.648,2.7461,2.8476,3.0841,3.2549,3.3533,3.3538,3.3532,3.3561,3.4462,3.5533,3.6791,3.8874,4.071,4.2241,4.1657,4.2324,0.0,0.0,4.2492,4.3634,4.3446,4.3629,4.3942,4.3629,4.2735,4.1356,3.9109,0.0,4.2732,4.397,4.4247,4.4525,4.6389,0.0,4.7183,4.9391,5.0551,5.0856,4.9644,4.912,4.848,4.6809,4.5805,4.4502,4.1999,4.0815,0.0,3.8734,3.9703,0.0,0.0,0.0,0.0,5.1626,5.23,5.257,0.0,5.323,0.0,5.2748,5.3191,5.3775,0.0,5.3749,5.3845,5.5007,5.5072,5.477,5.404,5.3608,5.2874,5.1732,5.0716,5.0195,5.0195,5.036,5.0087,4.9442,4.8835,4.8517,4.8365,0.0,4.6292,4.6632,4.5704,4.5167,4.4947,4.5258,4.4597,4.3515,4.3515,4.3515,4.3515,0.0,0.0,0.0,0.0,0.0,0.0,0.0,0.0,0.0,0.0,0.0,0.0,0.0,0.0,0.0,0.0,0.0,0.0,0.0,0.0,2.5608,2.5588,2.5588,2.5603,2.567,2.8604,3.0311,3.062,3.0486,3.0422,3.0451,3.276,3.5014,3.716,3.7631,3.919,4.1416,4.0982,4.1208,4.1791,4.1336,4.1881,4.2974,0.0,4.3624,4.4347,4.3794,4.3618,4.3475,4.2421,4.3286,4.515,4.682,4.7996,4.8746,4.8745,4.9667,5.0831,5.1442,5.1691,5.1563,5.046,4.9477,4.8058,4.5356,4.4349,4.3014,3.9563,0.0,3.8481,3.7736,3.8362,3.9749,4.2066,0.0,4.6921,4.9949,5.0947,5.1894,5.3331,5.3584,5.3881,5.4544,5.4021,5.4221,5.5593,5.5004,5.4898,5.5677,5.5705,5.5086,5.3735,5.3478,5.2713,5.1386,5.0596,5.0179,5.0179,4.9355,4.8858,4.8659,4.8659,4.852,4.8251,0.0,0.0,4.6507,4.5352,4.4747,4.4544,4.4544,4.4103,4.3515,4.3515,4.3515,4.3515,0.0,0.0,0.0,0.0,0.0,0.0,0.0,0.0,0.0,0.0,2.5287,0.0,0.0,0.0,0.0,0.0,0.0,0.0,0.0,0.0,0.0,2.551,2.551,2.5515,2.5526,2.7017,2.9119,3.1806,3.0963,3.0502,3.0436,3.1799,3.327,3.4728,3.4917,3.6111,3.7959,3.7764,3.8536,3.9849,3.9421,4.021,4.1683,4.2118,0.0,0.0,4.3944,4.4219,4.4683,4.6445,4.6448,4.6278,4.9682,5.0882,5.1026,5.1028,5.0607,5.0356,5.1341,5.2254,5.2726,5.1909,4.9852,4.7537,4.5831,4.3065,0.0,0.0,3.7601,3.6948,3.614,3.7652,3.9918,4.276,0.0,0.0,0.0,0.0,5.2469,0.0,0.0,0.0,0.0,0.0,0.0,0.0,0.0,5.4868,5.5662,5.5705,5.5562,5.524,5.3945,5.3101,5.285,5.2047,5.1627,5.1627,5.0824,5.0081,4.9415,4.9415,4.8997,4.8233,4.6709,0.0,4.592,4.4397,4.3754,4.3699,4.3699,4.3608,4.3515,4.3515,4.3515,4.3515,0.0,0.0,0.0,0.0,0.0,0.0,0.0,0.0,0.0,2.5996,2.5895,2.5822,0.0,0.0,0.0,0.0,0.0,0.0,0.0,0.0,0.0,0.0,2.5398,2.541,2.5402,2.5919,2.7846,3.1226,0.0,2.9888,3.0427,3.1465,3.255,3.3657,3.4207,3.543,3.7036,3.6985,3.7887,3.9327,3.9141,4.0342,4.2259,0.0,0.0,0.0,0.0,4.501,4.5181,4.5656,4.6405,4.7684,5.0807,5.2091,5.2511,5.2941,5.3185,5.3285,5.3106,5.3531,5.3719,5.2421,5.0142,4.7627,4.534,0.0,0.0,0.0,3.7251,3.6786,3.6144,3.7552,0.0,0.0,0.0,0.0,0.0,0.0,0.0,0.0,0.0,0.0,0.0,0.0,0.0,0.0,0.0,5.4363,5.5574,5.5247,5.5003,5.4987,5.383,5.3004,5.2582,5.1775,5.1169,5.0749,4.9903,4.9297,4.8912,4.8912,4.8691,4.8214,4.6599,0.0,4.5773,4.4158,4.3515,4.3515,4.3515,4.3515,4.3515,4.3515,4.3614,4.3756,0.0,0.0,0.0,0.0,0.0,0.0,0.0,2.47,2.5134,2.6511,2.6156,2.605,2.6833,2.6664,2.6551,0.0,0.0,0.0,0.0,0.0,0.0,0.0,0.0,0.0,0.0,0.0,0.0,0.0,2.9511,0.0,0.0,0.0,0.0,0.0,3.4261,3.5389,3.6755,3.6713,3.7607,0.0,0.0,4.07,0.0,0.0,0.0,0.0,0.0,4.5543,4.5358,4.4706,4.606,4.8416,5.0655,5.1891,5.2779,5.4109,5.5187,5.5708,5.4473,5.4418,5.4312,5.2727,5.033,4.7659,4.4959,4.2285,0.0,0.0,3.7209,3.7058,3.6643,3.7516,3.8772,0.0,4.1408,0.0,0.0,0.0,0.0,0.0,0.0,0.0,0.0,0.0,0.0,0.0,0.0,0.0,5.5258,5.4583,5.4216,5.4399,5.3628,5.2821,5.1995,5.1206,5.0398,4.9592,4.8728,4.8306,4.8306,4.8306,4.8306,4.8214,4.6599,0.0,0.0,4.4158,4.3548,4.3614,4.3614,4.3662,4.3744,4.3744,4.3896,4.4117,0.0,0.0,0.0,0.0,0.0,0.0,0.0,2.4082,2.4327,2.502,2.5041,2.5846,2.8075,2.7611,2.6919,0.0,0.0,0.0,0.0,0.0,0.0,0.0,0.0,0.0,0.0,0.0,0.0,0.0,0.0,0.0,0.0,0.0,0.0,0.0,0.0,0.0,3.5986,3.5818,0.0,0.0,0.0,0.0,0.0,0.0,0.0,0.0,0.0,4.5333,4.5246,4.7063,0.0,4.7356,4.8746,4.9694,5.0877,5.3879,0.0,0.0,5.3539,5.3858,5.4213,5.3305,5.0335,4.7163,4.5479,0.0,3.9138,3.7528,3.7209,3.7173,3.7152,3.7239,3.8261,4.1081,4.1657,4.3627,0.0,0.0,0.0,0.0,0.0,0.0,0.0,0.0,0.0,0.0,0.0,0.0,5.4454,5.3757,5.3665,5.4381,5.3628,5.2821,5.1995,5.1206,5.0398,4.9592,4.8728,4.8306,4.8306,4.8306,4.8306,4.8214,4.6599,0.0,0.0,4.4158,4.3695,4.3955,4.3955,4.418,4.4501,4.4501,4.4514,4.454,0.0,0.0,0.0,0.0,0.0,0.0,0.0,2.3898,2.4428,2.6115,2.5612,2.6074,2.8708,2.8349,2.774,0.0,0.0,0.0,0.0,0.0,0.0,0.0,0.0,0.0,0.0,0.0,0.0,0.0,0.0,0.0,0.0,0.0,0.0,0.0,0.0,0.0,0.0,0.0,0.0,0.0,0.0,0.0,0.0,0.0,0.0,0.0,0.0,0.0,4.5419,0.0,0.0,0.0,4.5368,4.6426,0.0,0.0,5.2661,5.2986,5.3164,5.3456,5.3645,5.3305,4.9895,4.6494,4.5784,0.0,3.9423,3.8319,3.8083,3.816,3.8313,3.7954,3.8382,4.0722,4.0324,4.1234,0.0,0.0,0.0,0.0,0.0,0.0,0.0,0.0,0.0,0.0,0.0,0.0,5.3665,5.3369,5.3353,5.3683,5.2894,5.2087,5.1279,5.0472,4.9646,4.8802,4.8471,4.8306,4.8306,4.855,4.8255,4.7536,4.6861,0.0,0.0,4.4442,4.4091,4.4013,4.4261,4.446,4.4593,4.4593,4.4739,4.4896,0.0,0.0,0.0,0.0,0.0,0.0,2.3802,2.3649,2.4249,2.6189,2.5521,2.5917,2.8744,2.8522,2.8182,2.8258,0.0,0.0,0.0,0.0,0.0,0.0,0.0,0.0,0.0,0.0,0.0,3.0425,0.0,0.0,0.0,0.0,0.0,0.0,0.0,0.0,0.0,0.0,0.0,0.0,0.0,0.0,0.0,0.0,0.0,0.0,0.0,0.0,0.0,0.0,0.0,4.4348,4.3166,4.3793,4.5507,4.8218,5.0251,5.1775,5.2344,5.2868,5.3213,5.2917,4.9781,4.6553,0.0,0.0,4.0029,3.9221,3.8872,3.8834,3.9269,3.8676,3.8647,4.0215,3.9746,4.0353,4.3664,0.0,0.0,0.0,0.0,0.0,0.0,0.0,0.0,0.0,0.0,0.0,0.0,5.3185,5.3185,5.3185,5.2417,5.1673,5.0946,5.0155,4.9381,4.8639,4.8399,4.827,4.8269,4.8315,4.7955,4.7259,0.0,0.0,0.0,4.473,4.4433,4.4204,4.4606,4.4812,4.4908,4.4908,4.5052,4.5243,0.0,0.0,0.0,0.0,0.0,0.0,0.0,2.32,2.3513,2.4323,2.4194,2.5162,2.8169,2.7977,2.8007,2.9,0.0,0.0,0.0,0.0,0.0,0.0,0.0,0.0,0.0,0.0,2.9534,3.0505,3.3091,3.4873,0.0,0.0,0.0,0.0,0.0,0.0,0.0,0.0,0.0,0.0,0.0,0.0,0.0,0.0,0.0,0.0,0.0,0.0,0.0,0.0,0.0,0.0,0.0,4.2276,4.2058,4.4151,4.7645,5.082,5.082,5.1974,5.3002,5.2197,5.0141,4.7645,0.0,4.282,4.0857,4.0047,3.9239,3.8946,3.9735,3.9239,3.8949,3.979,4.0563,4.1904,4.4361,0.0,0.0,0.0,0.0,0.0,0.0,0.0,0.0,0.0,0.0,0.0,0.0,5.3185,5.3185,5.3185,5.2417,5.1759,5.1302,5.0501,4.9882,4.9489,4.8607,4.8211,4.8174,4.7372,4.7267,0.0,0.0,0.0,0.0,4.4974,4.4612,4.4618,4.4954,4.5302,4.5586,4.5586,4.5586,4.5586,0.0,0.0,0.0,0.0,0.0,0.0,0.0,2.32,2.3618,2.4795,2.4504,2.5128,2.7554,2.7803,2.7923,2.8255,0.0,0.0,0.0,0.0,0.0,0.0,0.0,0.0,0.0,0.0,3.0811,3.2343,3.442,3.5884,3.6806,3.7999,3.8495,0.0,0.0,0.0,0.0,0.0,0.0,0.0,0.0,0.0,0.0,0.0,0.0,0.0,0.0,0.0,0.0,0.0,0.0,0.0,0.0,0.0,0.0,4.2439,4.4306,4.6856,4.7957,4.8705,4.9228,4.9418,4.6879,4.4265,4.3942,4.1589,3.9386,3.9129,3.8891,3.8946,3.9753,3.9239,3.9331,4.1222,4.1295,4.1554,0.0,0.0,0.0,0.0,0.0,0.0,0.0,0.0,0.0,0.0,0.0,0.0,0.0,5.2472,5.2434,5.2715,5.1936,5.132,5.0895,5.0103,4.9634,4.9489,4.8622,4.8192,4.8188,4.7605,0.0,0.0,0.0,0.0,0.0,4.5209,4.515,4.4985,4.5312,4.5504,4.5594,4.5594,4.5594,4.5594,0.0,0.0,0.0,0.0,0.0,0.0,0.0,2.3311,2.3732,2.4626,2.4602,2.5273,2.731,2.7742,2.814,2.8794,0.0,0.0,0.0,0.0,0.0,0.0,0.0,0.0,0.0,3.0327,3.1926,3.3731,3.5529,3.6855,3.776,3.9003,3.9507,3.9378,3.9378,0.0,0.0,0.0,0.0,0.0,0.0,0.0,4.4969,0.0,0.0,0.0,0.0,0.0,0.0,0.0,0.0,0.0,0.0,0.0,0.0,0.0,4.2159,4.3755,4.5663,4.67,4.7322,4.7751,4.5567,0.0,4.3098,4.102,3.9148,3.9148,3.8909,3.8946,3.9753,3.9239,3.9294,4.1093,4.124,4.137,0.0,0.0,0.0,0.0,0.0,0.0,0.0,0.0,0.0,0.0,0.0,0.0,0.0,5.2051,5.1958,5.2035,5.142,5.1042,5.0936,5.0117,4.98,4.993,4.8738,4.8168,4.813,4.7193,0.0,0.0,0.0,0.0,0.0,4.5456,4.541,4.5129,4.5476,4.5594,4.5594,4.5594,4.5594,4.5594,0.0,0.0,0.0,0.0,0.0,0.0,0.0,0.0,0.0,0.0,2.45,2.5527,2.7427,2.7798,2.8563,0.0,0.0,0.0,0.0,0.0,0.0,0.0,0.0,0.0,0.0,3.1524,3.2898,3.4705,3.6445,3.7804,3.8828,4.0508,4.1226,4.1099,4.1099,0.0,0.0,0.0,0.0,0.0,4.5154,4.4873,0.0,0.0,0.0,0.0,0.0,0.0,0.0,0.0,0.0,0.0,0.0,0.0,0.0,0.0,0.0,0.0,0.0,4.5553,4.6764,4.6764,0.0,0.0,4.2488,4.0928,0.0,3.9808,3.9221,3.8946,3.9753,3.9239,3.8982,3.9845,4.0616,0.0,0.0,0.0,0.0,0.0,0.0,0.0,0.0,0.0,0.0,0.0,0.0,0.0,0.0,5.182,5.1632,5.1274,5.084,5.0827,5.1249,5.0441,5.024,5.0596,4.8856,4.8009,4.7971,4.6336,0.0,0.0,0.0,0.0,0.0,4.5658,4.5419,4.5169,4.5485,4.5594,4.5594,4.5594,4.5594,4.5594,0.0,0.0,0.0,0.0,0.0,0.0,0.0,0.0,0.0,0.0,2.4818,2.5684,2.7618,2.7874,2.8563,0.0,0.0,0.0,0.0,0.0,0.0,0.0,0.0,0.0,0.0,3.2204,3.3866,3.5663,3.7421,3.9062,4.0605,4.1641,4.2109,4.2068,4.2068,4.1952,0.0,0.0,0.0,0.0,4.4298,4.4513,0.0,0.0,0.0,0.0,4.3778,4.3695,0.0,0.0,0.0,0.0,0.0,0.0,0.0,0.0,4.139,4.1649,4.1396,0.0,4.3442,4.3442,4.269,4.1682,0.0,3.9698,3.8982,3.8982,3.8836,3.8946,3.9753,3.9239,3.9166,4.0581,4.0967,0.0,0.0,0.0,0.0,0.0,0.0,0.0,0.0,0.0,0.0,0.0,0.0,0.0,0.0,5.1142,5.093,5.0832,5.0097,5.0078,5.0832,4.9997,4.9605,4.9683,4.799,4.7173,4.7163,4.6086,0.0,0.0,0.0,0.0,4.5649,4.5599,4.5559,4.5495,4.5568,4.5594,4.5594,4.5594,4.5594,4.5594,0.0,0.0,0.0,0.0,0.0,0.0,0.0,0.0,0.0,0.0,0.0,0.0,0.0,0.0,0.0,0.0,0.0,0.0,0.0,0.0,0.0,0.0,0.0,3.1597,3.3143,3.365,3.4745,3.6494,3.7828,3.9177,4.0538,4.1379,4.1988,4.2402,4.2717,4.2757,0.0,0.0,0.0,0.0,4.3918,0.0,0.0,0.0,0.0,0.0,4.3435,4.3515,0.0,4.3515,4.3515,4.3441,0.0,0.0,0.0,0.0,4.0747,4.0877,4.0408,4.1557,4.2837,4.2837,4.1974,4.0985,4.0561,3.9551,3.8707,3.8707,0.0,3.8836,3.9276,3.9294,3.9706,4.1105,4.1635,0.0,0.0,0.0,0.0,0.0,0.0,0.0,0.0,0.0,0.0,0.0,0.0,0.0,0.0,5.0449,5.0087,5.0087,4.926,4.9221,5.0087,4.924,4.8798,4.8798,4.7509,4.6904,4.6865,4.599,4.5594,0.0,0.0,0.0,4.5594,4.5594,4.5594,4.5594,4.5594,4.5594,4.5603,4.5673,4.5685,4.57,0.0,0.0,0.0,0.0,0.0,0.0,0.0,0.0,0.0,0.0,0.0,0.0,0.0,0.0,0.0,0.0,0.0,0.0,0.0,0.0,0.0,0.0,0.0,3.3665,3.5737,3.4986,3.5477,3.7288,3.7972,3.8919,4.0116,4.0859,4.1621,4.242,4.3218,4.3432,0.0,0.0,0.0,0.0,4.3737,0.0,0.0,0.0,0.0,0.0,0.0,0.0,0.0,4.3368,4.3331,4.3167,4.2378,0.0,0.0,0.0,0.0,0.0,4.0189,4.1869,4.3496,4.3513,4.2468,4.1332,4.0857,3.9774,3.8854,0.0,0.0,0.0,3.9093,3.9632,0.0,0.0,0.0,0.0,0.0,0.0,0.0,0.0,0.0,0.0,0.0,0.0,0.0,0.0,0.0,0.0,0.0,4.9683,4.9202,4.9202,4.8375,4.8279,4.9009,4.8298,4.7932,4.7913,4.7086,4.6701,4.6682,4.5932,4.5594,0.0,0.0,0.0,4.5594,4.5594,4.5594,4.5594,4.561,4.5627,4.5651,4.5776,4.5821,4.582,0.0,0.0,0.0,0.0,0.0,0.0,0.0,0.0,0.0,0.0,0.0,0.0,0.0,0.0,0.0,0.0,0.0,0.0,0.0,0.0,0.0,0.0,3.3478,3.3674,3.4703,3.458,3.5697,3.8111,3.8236,3.9546,4.1896,4.2032,4.2173,4.237,4.3724,4.3905,4.3279,0.0,0.0,4.4976,4.348,0.0,0.0,0.0,0.0,0.0,0.0,0.0,0.0,4.2708,4.2488,4.2341,4.1535,0.0,0.0,0.0,0.0,0.0,4.0044,4.1869,4.3513,4.3508,4.3304,4.2425,3.9692,3.9412,3.9515,0.0,0.0,0.0,0.0,4.0924,0.0,0.0,0.0,0.0,0.0,0.0,0.0,0.0,0.0,0.0,0.0,0.0,0.0,0.0,0.0,0.0,0.0,4.8779,4.8298,4.8298,4.7509,4.7154,4.7278,4.7154,4.7077,4.7058,4.6201,4.5806,4.5806,4.5671,4.5594,0.0,0.0,4.5594,4.5594,4.5594,4.5594,4.5612,4.5718,4.5775,4.5783,4.5861,4.5872,4.5896,0.0,0.0,0.0,0.0,0.0,0.0,0.0,0.0,0.0,0.0,0.0,0.0,0.0,0.0,0.0,0.0,0.0,0.0,0.0,0.0,0.0,3.5629,3.5238,3.4995,3.4939,3.4759,3.555,3.7337,3.7719,3.8897,4.0762,4.2211,4.2613,4.222,4.4289,4.4671,4.386,4.4728,4.5007,4.4724,0.0,0.0,0.0,0.0,0.0,0.0,0.0,0.0,0.0,0.0,4.1772,4.1761,4.0929,0.0,0.0,0.0,0.0,0.0,3.9668,4.1343,4.3617,4.6113,4.5233,4.333,4.158,4.1148,4.0989,0.0,0.0,0.0,0.0,0.0,0.0,0.0,0.0,0.0,0.0,0.0,0.0,0.0,0.0,0.0,0.0,0.0,0.0,0.0,0.0,0.0,0.0,0.0,4.7451,4.7451,4.6644,4.6201,4.6201,4.6201,4.6201,4.6182,4.5787,4.5594,4.5594,4.5594,4.5594,4.5594,0.0,4.5594,4.5603,4.568,4.5708,4.573,4.5813,4.585,4.5866,4.5967,4.6047,4.6115,0.0,0.0,0.0,0.0,0.0,0.0,0.0,0.0,0.0,0.0,0.0,0.0,0.0,0.0,0.0,0.0,0.0,0.0,0.0,0.0,3.682,3.6778,3.645,3.5917,3.5181,3.4917,3.5312,3.6362,3.6924,3.7874,3.9251,4.1981,4.264,4.168,4.4497,4.519,4.4241,4.485,4.4943,4.4625,0.0,0.0,0.0,0.0,0.0,0.0,0.0,0.0,0.0,0.0,0.0,0.0,0.0,0.0,0.0,3.9788,3.9599,3.9606,3.9637,4.1029,4.3322,4.6954,4.5817,4.3938,4.4378,4.3567,4.2743,0.0,0.0,0.0,0.0,0.0,0.0,0.0,0.0,0.0,0.0,0.0,0.0,0.0,0.0,0.0,0.0,0.0,0.0,0.0,0.0,0.0,0.0,0.0,4.6605,4.6605,4.5951,4.5594,4.5594,4.5594,4.5594,4.5594,4.5594,4.5594,4.5594,4.5594,4.5594,4.5594,4.5627,4.5651,4.5668,4.577,4.582,4.5838,4.5914,4.5974,4.6021,4.6113,4.6203,4.6308,0.0,0.0,0.0,0.0,0.0,0.0,0.0,0.0,0.0,0.0,0.0,0.0,0.0,0.0,0.0,0.0,0.0,0.0,0.0,0.0,3.6739,3.7574,3.6295,3.5319,3.4755,3.4725,3.5122,3.5927,3.6012,3.689,3.8619,4.1495,4.1905,4.0396,4.4006,4.4987,4.3983,4.4773,4.5085,4.5041,4.4638,0.0,0.0,0.0,0.0,0.0,0.0,0.0,0.0,0.0,0.0,0.0,0.0,0.0,3.9675,3.9618,3.9599,3.9769,4.0488,4.1361,4.2189,4.2835,4.3133,4.4101,4.7299,4.617,0.0,4.5464,0.0,0.0,0.0,0.0,0.0,0.0,0.0,0.0,0.0,0.0,0.0,0.0,0.0,0.0,0.0,0.0,0.0,0.0,0.0,0.0,0.0,0.0,0.0,4.5691,4.5633,4.5594,4.5594,4.5594,4.5594,4.5594,4.5594,4.5594,4.5594,4.5594,4.5594,4.5603,4.5725,4.5783,4.5796,4.5852,4.5885,4.5918,4.6036,4.6152,4.6269,4.6289,4.6289,4.6308,0.0,0.0,0.0,0.0,0.0,0.0,0.0,0.0,0.0,0.0,0.0,0.0,0.0,0.0,0.0,0.0,0.0,0.0,0.0,3.6329,3.6687,3.73,3.6156,3.5311,3.4903,3.4396,3.4374,3.4832,3.6208,3.7784,3.9537,4.1587,4.2354,4.2126,4.4312,4.5158,4.4977,4.5275,4.5302,4.5085,4.4954,4.4466,0.0,0.0,0.0,0.0,0.0,0.0,0.0,0.0,3.9914,4.0117,3.9815,3.9934,4.0157,4.0157,4.0157,4.0233,4.053,4.2001,4.3454,4.3599,4.4164,4.5175,0.0,4.7108,4.6878,4.7195,4.8236,0.0,0.0,0.0,0.0,0.0,0.0,0.0,0.0,0.0,0.0,0.0,0.0,0.0,0.0,0.0,0.0,0.0,0.0,0.0,0.0,0.0,0.0,4.5711,4.5718,4.5729,4.5782,4.5782,4.5782,4.5782,4.5729,4.5718,4.5737,4.5777,4.5782,4.5788,4.5845,4.5866,4.5876,4.5974,4.6011,4.6039,4.6174,4.6267,4.6308,4.6308,4.6308,4.6308,0.0,0.0,0.0,0.0,0.0,0.0,0.0,0.0,0.0,0.0,0.0,0.0,0.0,0.0,0.0,0.0,0.0,0.0,3.5616,3.6077,3.6614,3.7318,3.6152,3.5478,3.5422,3.4357,3.3889,3.4062,3.6123,3.79,3.9449,4.1293,4.2651,4.3592,4.4638,4.5494,4.6106,4.5754,4.5476,4.5253,4.5253,4.4603,0.0,0.0,0.0,0.0,0.0,0.0,0.0,0.0,3.9819,4.0101,4.0101,4.0276,4.0496,4.0496,4.0689,4.0912,4.0912,4.2181,4.3585,4.3855,4.4547,4.5624,4.7317,4.8125,4.8817,4.9894,5.0202,0.0,0.0,0.0,0.0,0.0,0.0,0.0,0.0,0.0,0.0,0.0,0.0,0.0,0.0,0.0,0.0,0.0,0.0,0.0,0.0,0.0,0.0,0.0,4.5814,4.585,4.5899,4.5899,4.5899,4.5899,4.5891,4.5864,4.5825,4.5881,4.5899,4.5903,4.5936,4.5951,4.5978,4.6113,4.6152,4.6174,4.6268,4.6308,4.6308,4.6308,4.6308,4.6308,0.0,0.0,0.0,0.0,0.0,0.0,0.0,0.0,0.0,0.0,0.0,0.0,0.0,0.0,0.0,0.0,0.0,0.0,3.5893,3.593,3.6464,3.7802,3.6323,3.5718,3.6266,3.4669,3.3825,3.3825,3.5495,3.6882,3.7983,4.0458,4.258,4.4329,4.4859,4.5905,4.7201,4.6075,4.5594,4.5594,4.5594,4.5075,4.4165,0.0,0.0,0.0,0.0,0.0,0.0,0.0,3.9819,4.0101,4.0101,4.0295,4.0516,4.0496,4.1123,4.1788,4.1788,4.1788,4.2019,4.2893,0.0,0.0,4.8644,4.9413,5.0375,5.378,5.176,4.9394,0.0,0.0,0.0,0.0,0.0,0.0,0.0,0.0,0.0,0.0,0.0,0.0,0.0,0.0,0.0,0.0,0.0,0.0,0.0,0.0,0.0,0.0,4.5857,4.5884,4.5903,4.5884,4.5884,4.5884,4.602,4.6017,4.5903,4.5903,4.5903,4.5912,4.6042,4.6091,4.6115,4.6247,4.6308,4.6308,4.6308,4.6308,4.6308,4.6308,4.6308,4.6308,0.0,0.0,0.0,0.0,0.0,0.0,0.0,0.0,0.0,0.0,0.0,0.0,0.0,0.0,0.0,0.0,0.0,0.0,3.2838,3.3495,3.4292,3.5261,3.4343,3.4429,3.5722,3.5253,3.4999,3.4999,3.658,3.8122,3.9643,4.1505,4.2858,4.3778,4.4455,4.5071,4.562,4.5602,4.5594,4.5594,4.5594,4.4748,4.3423,0.0,0.0,0.0,0.0,0.0,0.0,0.0,0.0,0.0,4.0381,4.0864,4.1296,4.0689,4.1123,4.1681,4.1046,4.1777,0.0,4.3739,0.0,0.0,0.0,5.026,0.0,0.0,5.1356,0.0,0.0,0.0,0.0,0.0,0.0,0.0,0.0,0.0,0.0,0.0,0.0,0.0,0.0,0.0,0.0,0.0,0.0,0.0,0.0,0.0,0.0,0.0,4.4559,4.489,4.6175,4.4965,4.4653,4.5258,4.4681,4.4982,4.6042,4.6144,4.6175,4.6177,4.6224,4.6246,4.6247,4.6289,4.6308,4.6308,4.6308,4.6308,4.6308,4.6308,4.6308,4.6308,0.0,0.0,0.0,0.0,0.0,0.0,0.0,0.0,0.0,0.0,0.0,0.0,0.0,0.0,0.0,0.0,0.0,0.0,0.0,3.2533,3.3617,3.4475,3.4018,3.4354,3.5629,3.6156,3.6418,3.6418,3.7594,3.8897,4.033,4.1833,4.3208,4.4408,4.4537,4.482,4.5205,4.5486,4.5402,4.5114,4.546,4.4613,4.3104,0.0,0.0,0.0,0.0,0.0,0.0,0.0,0.0,0.0,4.0496,4.0854,4.1258,4.1066,4.1393,4.1835,4.197,4.2547,0.0,4.497,4.649,4.8201,5.0477,0.0,0.0,0.0,0.0,0.0,0.0,0.0,0.0,0.0,0.0,0.0,0.0,0.0,0.0,0.0,0.0,0.0,0.0,0.0,0.0,0.0,0.0,0.0,0.0,0.0,0.0,0.0,4.3881,4.4152,4.5254,4.4219,4.3965,4.4473,4.3945,4.4217,4.5141,4.5233,4.5469,4.5801,4.6152,4.6308,4.6308,4.6308,4.6308,4.6308,4.6308,4.6308,4.6308,4.6308,4.6308,4.6308,0.0,0.0,0.0,0.0,0.0,0.0,0.0,0.0,0.0,0.0,2.4861,0.0,0.0,0.0,0.0,0.0,0.0,0.0,0.0,0.0,3.3766,3.4706,3.4844,3.5327,3.6211,3.7363,3.797,3.7984,3.8613,3.9431,4.0455,4.182,4.3615,4.5649,4.4883,4.4863,4.5425,4.5393,4.4921,4.4259,4.5056,4.4355,4.2854,4.2854,0.0,0.0,0.0,0.0,0.0,0.0,0.0,0.0,4.0504,4.0554,4.0766,4.147,4.1731,4.2135,4.3662,4.3605,4.372,4.625,4.7134,0.0,4.9555,5.2833,0.0,0.0,0.0,0.0,0.0,0.0,0.0,0.0,0.0,0.0,0.0,0.0,0.0,0.0,0.0,0.0,0.0,0.0,0.0,0.0,0.0,0.0,0.0,0.0,0.0,4.3517,4.3472,4.3555,4.3691,4.3555,4.3516,0.0,4.3516,4.3476,4.3476,4.3633,4.418,4.5039,4.584,4.623,4.6289,4.6211,4.623,4.6289,4.6211,4.623,4.6308,4.6289,4.6289,4.6289,0.0,0.0,0.0,0.0,0.0,0.0,0.0,0.0,0.0,0.0,0.0,0.0,0.0,0.0,0.0,0.0,0.0,0.0,0.0,0.0,3.1841,3.2704,3.5212,3.7251,3.8693,3.8986,3.9246,3.9445,4.0219,4.0835,4.1356,4.29,4.4076,4.4832,4.4234,4.4054,4.416,4.3796,4.3528,4.3374,4.3566,4.2604,4.1054,4.1054,4.0439,0.0,0.0,0.0,0.0,0.0,0.0,0.0,4.0523,4.0969,4.1431,4.0931,4.1258,4.1885,4.2239,4.272,0.0,0.0,4.896,5.1262,5.2345,5.3344,0.0,0.0,0.0,0.0,0.0,0.0,0.0,0.0,0.0,0.0,0.0,0.0,0.0,0.0,0.0,0.0,0.0,0.0,0.0,0.0,0.0,0.0,0.0,0.0,0.0,4.2693,4.205,4.2363,4.3691,4.2402,4.2051,0.0,4.2031,4.1738,4.1777,4.3105,4.418,4.5019,4.5195,4.5664,4.625,4.5566,4.5683,4.623,4.5547,4.5703,4.6289,4.6177,4.6145,4.612,0.0,0.0,0.0,0.0,0.0,0.0,0.0,0.0,0.0,0.0,0.0,0.0,0.0,0.0,0.0,0.0,0.0,0.0,0.0,0.0,3.1903,3.365,3.611,3.7892,3.8905,3.9514,3.9894,4.003,4.0758,4.1261,4.1642,4.3252,4.4304,4.4811,4.4113,4.369,4.3455,4.3208,4.2854,4.2489,4.2489,4.1681,4.0458,4.0073,3.969,3.9354,3.9389,0.0,0.0,0.0,0.0,0.0,0.0,0.0,4.0725,4.1151,4.0965,4.1014,4.2647,0.0,0.0,4.6932,0.0,5.165,5.1739,5.1827,0.0,0.0,0.0,0.0,0.0,0.0,0.0,0.0,0.0,0.0,0.0,0.0,0.0,0.0,0.0,0.0,0.0,0.0,0.0,0.0,0.0,0.0,0.0,4.2832,4.2695,4.1855,4.1426,4.1621,4.248,4.1641,4.1406,4.1816,4.1406,4.1191,4.123,4.25,4.332,4.3789,4.4199,4.4648,4.5058,4.5019,4.4999,4.4991,4.4972,4.4944,4.4944,4.5298,4.5436,4.5469,0.0,0.0,0.0,0.0,0.0,0.0,0.0,0.0,0.0,0.0,0.0,0.0,0.0,0.0,0.0,0.0,0.0,0.0,0.0,0.0,0.0,3.5357,3.6978,3.799,3.842,3.9586,4.0167,4.0167,4.0784,4.1261,4.1623,4.3158,4.4269,4.4942,4.4206,4.3503,4.2874,4.272,4.2143,4.1354,4.1192,4.0623,3.9785,3.9302,3.9142,3.919,3.9218,3.9822,4.0609,4.0609,0.0,0.0,0.0,0.0,3.9504,4.0997,4.0499,4.0045,4.2871,0.0,4.4396,4.7689,4.961,0.0,4.9917,0.0,0.0,0.0,0.0,0.0,0.0,0.0,0.0,0.0,0.0,0.0,0.0,0.0,0.0,0.0,0.0,0.0,0.0,0.0,0.0,0.0,0.0,0.0,4.2285,4.2324,4.2031,4.123,4.1055,4.0976,4.0976,4.0976,4.0976,4.0976,4.1133,4.1191,4.1211,4.1874,4.2246,4.2441,4.3144,4.3534,4.3729,4.4274,4.4124,4.3621,4.4187,4.3997,4.3479,4.4178,4.4534,4.4763,0.0,0.0,0.0,0.0,0.0,0.0,0.0,0.0,0.0,0.0,0.0,0.0,0.0,0.0,0.0,0.0,0.0,0.0,2.5391,0.0,0.0,3.5308,3.6944,3.815,3.8888,3.9752,4.0111,3.9932,4.073,4.1261,4.1637,4.2833,4.3757,4.4407,4.4292,4.3378,4.1931,4.1162,4.0381,3.9565,3.8815,3.7988,3.7291,3.8059,3.836,3.8389,3.8494,3.9106,3.985,3.985,3.9343,0.0,0.0,0.0,3.8486,3.8735,3.9159,3.9656,4.0051,0.0,4.5098,0.0,4.8764,4.8981,0.0,0.0,0.0,0.0,0.0,0.0,0.0,0.0,0.0,0.0,0.0,0.0,0.0,0.0,0.0,0.0,0.0,0.0,0.0,0.0,0.0,0.0,0.0,0.0,4.1445,4.2012,4.2031,4.123,4.0469,4.0078,4.0078,4.0078,4.0078,4.0078,4.084,4.1191,4.1191,4.1197,4.1629,4.2402,4.2466,4.2921,4.3542,4.2808,4.2866,4.3366,4.2719,4.2848,4.3393,4.3391,4.3883,4.4537,0.0,0.0,0.0,0.0,0.0,0.0,0.0,0.0,0.0,0.0,0.0,0.0,0.0,0.0,0.0,2.3437,2.4536,2.5824,2.7283,2.9565,3.1936,3.4397,3.5612,3.6628,3.7462,3.7826,3.8412,3.9239,3.9129,4.0188,4.229,4.2528,4.3384,4.4729,4.3967,4.322,4.242,4.0651,3.9653,3.9184,3.7941,3.7486,3.7492,3.6993,3.7432,3.8267,0.0,0.0,0.0,3.9074,3.8839,3.8564,3.894,0.0,0.0,0.0,3.8365,3.8678,4.0604,4.2888,4.5244,0.0,4.8415,4.8682,4.8194,0.0,0.0,0.0,0.0,0.0,0.0,0.0,0.0,0.0,0.0,0.0,0.0,0.0,0.0,0.0,0.0,0.0,0.0,0.0,0.0,0.0,0.0,4.2441,4.1269,4.1543,4.1562,4.1211,4.0351,3.9902,3.9902,3.9414,3.9414,3.9902,4.0209,4.0612,4.1081,4.0955,4.1154,4.1607,4.1501,4.1682,4.2032,4.2073,4.2017,4.1898,4.1995,4.1928,4.1828,4.2258,4.2975,4.3778,0.0,0.0,0.0,0.0,0.0,0.0,0.0,0.0,0.0,0.0,0.0,0.0,0.0,0.0,0.0,0.0,2.4594,2.6304,2.893,2.9654,3.1042,3.3395,3.427,3.5096,3.5954,3.6193,3.689,3.8083,3.7694,3.9073,4.2054,4.2002,4.3044,4.495,4.4106,4.3374,4.2632,4.0604,0.0,3.9198,3.7626,3.7354,3.7802,3.7014,3.7549,3.866,0.0,0.0,0.0,0.0,0.0,0.0,0.0,0.0,0.0,0.0,0.0,0.0,0.0,0.0,4.4045,4.6093,4.7266,4.7793,0.0,0.0,0.0,0.0,0.0,0.0,0.0,0.0,0.0,0.0,0.0,0.0,0.0,0.0,0.0,0.0,0.0,0.0,0.0,0.0,0.0,0.0,0.0,4.1738,4.0918,4.1074,4.0996,4.0547,3.9902,3.9453,3.9238,3.8573,3.8787,3.9841,3.9731,4.0116,4.0952,4.0824,4.0821,4.0922,4.0813,4.0775,4.0814,4.1432,4.1277,4.072,4.1371,4.1156,4.0573,4.1239,4.2162,4.3181,0.0,0.0,0.0,0.0,0.0,0.0,0.0,0.0,0.0,0.0,0.0,0.0,2.1576,2.2308,2.3143,2.4246,2.4859,2.6304,2.893,2.9142,3.0202,3.2557,3.344,0.0,3.5059,3.5881,3.634,3.6413,3.7144,3.8389,4.0058,4.1126,4.2701,4.4644,4.5227,4.4124,4.1805,0.0,0.0,0.0,0.0,0.0,0.0,0.0,0.0,0.0,0.0,0.0,0.0,0.0,0.0,0.0,0.0,0.0,0.0,0.0,0.0,0.0,0.0,4.0098,0.0,4.3281,4.4551,0.0,0.0,0.0,0.0,0.0,0.0,0.0,0.0,0.0,0.0,0.0,0.0,0.0,0.0,0.0,0.0,0.0,0.0,0.0,0.0,0.0,0.0,0.0,0.0,4.0879,4.0019,4.0742,4.0449,3.8789,3.8691,3.8262,3.7441,3.733,3.8092,3.9708,3.9633,4.0038,4.0805,4.0736,4.0715,4.0721,4.0715,4.0709,4.0697,4.0619,4.0539,4.0512,4.055,4.0543,4.0516,4.0554,4.1643,4.3104,0.0,0.0,0.0,0.0,0.0,0.0,0.0,0.0,0.0,0.0,0.0,0.0,0.0,2.3069,2.3824,2.5297,2.6317,2.7284,2.8279,2.9748,3.0959,3.1799,3.3091,3.3935,3.4215,3.4541,3.4945,3.5463,3.6303,3.7551,3.9163,4.0517,4.1519,4.2203,4.3188,4.3253,4.2524,4.0759,0.0,0.0,0.0,0.0,0.0,0.0,0.0,0.0,0.0,0.0,0.0,0.0,0.0,0.0,0.0,0.0,0.0,0.0,0.0,0.0,0.0,0.0,0.0,4.2226,4.3105,0.0,0.0,0.0,0.0,0.0,0.0,0.0,0.0,0.0,0.0,0.0,0.0,0.0,0.0,0.0,0.0,0.0,0.0,0.0,0.0,0.0,0.0,0.0,0.0,0.0,4.0742,4.1035,4.0664,3.9473,3.8887,3.7889,3.6411,3.685,3.7653,3.8789,3.8166,3.8865,4.0717,4.0101,4.0079,4.0581,4.0581,4.0581,4.0574,4.0527,4.0496,4.0496,4.0496,4.0496,4.0496,4.0496,4.1239,4.2354,0.0,0.0,0.0,0.0,0.0,0.0,0.0,0.0,0.0,0.0,0.0,0.0,0.0,0.0,2.4725,2.6231,2.7491,2.8339,2.8653,3.0125,3.1234,3.1781,3.3091,3.3807,3.3807,3.4064,3.4325,3.4601,3.5459,3.6728,3.8456,3.9705,4.0676,4.14,4.1884,4.2317,0.0,0.0,0.0,3.9733,0.0,0.0,4.0026,0.0,0.0,0.0,0.0,0.0,0.0,0.0,0.0,0.0,0.0,0.0,0.0,0.0,0.0,0.0,3.7402,0.0,0.0,0.0,0.0,0.0,0.0,0.0,0.0,0.0,0.0,0.0,0.0,0.0,0.0,0.0,0.0,0.0,0.0,0.0,0.0,0.0,0.0,0.0,0.0,0.0,0.0,0.0,0.0,0.0,4.0781,4.0762,4.0214,3.904,3.8141,3.7094,3.5858,3.63,3.6968,3.7832,3.7445,3.8163,3.9786,3.9459,3.9592,4.0092,4.0092,4.0246,4.0496,4.0496,4.0496,4.0496,4.0496,4.0496,4.0496,4.0496,4.1046,4.1923,0.0,0.0,0.0,0.0,0.0,0.0,0.0,0.0,0.0,2.1843,0.0,0.0,0.0,0.0,0.0,2.7125,2.8349,2.9403,3.0172,3.0269,3.0983,3.2533,3.3416,3.3852,3.3852,3.4642,3.4642,3.3852,3.4679,3.6029,3.7895,3.8747,4.0302,4.2387,4.1625,4.1456,4.1728,0.0,4.074,4.0657,0.0,3.9556,4.123,0.0,0.0,0.0,4.2676,4.1808,0.0,0.0,0.0,0.0,0.0,0.0,0.0,0.0,0.0,0.0,0.0,0.0,0.0,0.0,0.0,0.0,0.0,0.0,0.0,0.0,0.0,0.0,0.0,0.0,0.0,0.0,0.0,0.0,0.0,0.0,0.0,0.0,0.0,0.0,0.0,0.0,0.0,0.0,0.0,4.082,3.998,3.9883,3.9039,3.725,3.6368,3.5853,3.5703,3.565,3.6065,3.6892,3.761,3.795,3.8027,3.8854,3.9246,3.9304,3.9304,3.9765,4.0496,4.0496,4.0496,4.0496,4.0496,4.0496,4.0496,4.0496,4.1046,4.1885,0.0,0.0,0.0,0.0,0.0,0.0,0.0,0.0,2.354,0.0,0.0,0.0,2.6747,2.8017,2.9137,2.9981,3.0643,3.1029,3.1002,3.186,3.2536,3.2863,3.4259,3.5124,3.5308,3.5552,3.5552,3.5319,3.6122,3.6794,3.7356,3.9039,4.0169,4.0749,4.0725,4.0779,4.085,4.0759,0.0,0.0,3.9741,4.0435,0.0,0.0,0.0,0.0,0.0,4.2038,0.0,0.0,4.0326,3.9073,0.0,0.0,0.0,0.0,0.0,0.0,3.5996,0.0,0.0,0.0,0.0,0.0,0.0,0.0,0.0,0.0,0.0,0.0,0.0,0.0,0.0,0.0,0.0,0.0,0.0,0.0,0.0,0.0,0.0,0.0,0.0,0.0,0.0,0.0,4.1641,4.1053,4.0704,3.9442,3.8221,3.7091,3.6763,3.6298,3.5626,3.6141,3.6517,3.6749,3.6374,3.6834,3.7988,3.7603,3.8104,3.9304,3.9304,3.9765,4.0496,4.0496,4.0496,4.0496,4.0496,4.0496,4.0496,4.0496,4.065,4.1066,0.0,0.0,0.0,0.0,0.0,0.0,0.0,0.0,2.6016,0.0,0.0,0.0,2.85,3.079,3.219,3.2002,3.2678,3.2949,3.2618,3.3296,3.3642,3.3506,3.5099,3.5974,3.5903,3.6594,3.6782,3.6434,3.6896,3.7394,3.7886,3.9042,3.9843,4.0267,0.0,0.0,0.0,0.0,0.0,0.0,3.998,0.0,0.0,4.0371,4.1269,0.0,0.0,0.0,4.3815,4.2167,4.0749,0.0,0.0,0.0,0.0,0.0,0.0,0.0,0.0,0.0,0.0,0.0,0.0,0.0,3.9915,4.0151,0.0,0.0,0.0,0.0,0.0,0.0,0.0,0.0,0.0,0.0,0.0,0.0,0.0,0.0,0.0,0.0,0.0,0.0,0.0,4.2402,4.1599,4.0743,3.9911,3.8871,3.7716,3.6468,3.6387,3.6102,3.5556,3.5977,3.6192,3.6192,3.6058,3.6346,3.6949,3.6769,3.7257,3.8238,3.8604,3.9227,4.0035,4.0362,4.0496,4.0496,4.0496,4.0496,4.0535,4.0912,4.1046,4.1296,0.0,0.0,0.0,0.0,0.0,0.0,0.0,0.0,0.0,0.0,2.8914,2.9501,3.0728,3.3578,3.4931,3.3722,3.4535,3.5005,3.4808,3.4599,3.4428,3.4391,3.5912,3.6564,3.6147,3.768,3.8144,3.7437,3.7437,3.7956,3.8944,3.9039,3.9585,4.0496,0.0,0.0,0.0,0.0,0.0,4.0754,4.0038,4.0862,0.0,0.0,4.2656,0.0,4.3828,4.405,4.4347,4.1957,3.9796,0.0,0.0,0.0,0.0,0.0,3.7161,0.0,0.0,0.0,0.0,0.0,0.0,0.0,4.0264,3.9482,3.8641,0.0,0.0,0.0,0.0,0.0,0.0,0.0,0.0,0.0,0.0,0.0,0.0,0.0,0.0,0.0,0.0,4.3046,4.2499,4.2381,4.1495,4.017,3.8381,3.8268,3.7437,3.5648,3.5585,3.5556,3.55,3.55,3.55,3.5519,3.6212,3.6192,3.5519,3.6231,3.6615,3.6731,3.7526,3.8411,3.9361,4.0073,4.0419,4.0496,4.0496,4.0496,4.0612,4.1489,4.1788,4.2038,0.0,0.0,0.0,0.0,0.0,0.0,0.0,0.0,3.0486,2.951,3.082,3.2307,3.3642,3.5233,3.6333,3.6686,3.6504,3.6602,3.719,3.5754,3.5093,3.5547,3.6545,3.7269,3.7578,3.8602,3.9051,3.8887,3.8887,3.8999,3.925,3.9884,4.0311,4.0504,4.061,0.0,0.0,0.0,0.0,4.0935,4.0675,0.0,4.3281,4.1777,4.1914,4.2871,4.2659,4.3511,4.4571,0.0,4.0674,3.8181,0.0,0.0,0.0,0.0,0.0,0.0,0.0,0.0,0.0,0.0,0.0,0.0,3.8723,3.9085,3.9202,0.0,0.0,0.0,0.0,0.0,0.0,0.0,0.0,0.0,0.0,0.0,0.0,0.0,0.0,0.0,0.0,4.3883,4.3027,4.2211,4.1289,4.0024,3.8321,3.8117,3.7269,3.5573,3.5515,3.5515,3.55,3.55,3.55,3.55,3.5654,3.5654,3.5519,3.5654,3.6096,3.6712,3.6885,3.7853,3.9304,3.9477,3.9919,4.0496,4.0496,4.0496,4.0612,4.1489,4.1788,4.2038,0.0,0.0,0.0,0.0,0.0,0.0,0.0,0.0,3.2887,3.224,3.3636,3.4959,3.5623,3.7047,3.7942,3.7942,3.8528,3.8554,3.7754,0.0,3.6291,3.5916,3.6442,3.7135,3.7981,3.8854,3.9496,3.99,3.99,3.99,3.9919,4.0304,4.0311,3.9965,4.0487,0.0,0.0,0.0,4.1383,4.2206,4.1273,0.0,4.2363,4.1523,4.1699,4.2402,4.2357,4.2834,4.3224,4.1755,4.039,0.0,0.0,3.849,3.8191,0.0,3.8524,3.8233,0.0,0.0,0.0,3.9306,0.0,0.0,0.0,3.9135,3.9193,0.0,0.0,0.0,0.0,0.0,0.0,0.0,0.0,0.0,0.0,0.0,0.0,0.0,0.0,0.0,0.0,4.4033,4.3097,4.2121,4.1208,3.9932,3.8196,3.8045,3.7238,3.5558,3.55,3.55,3.55,3.55,3.55,3.55,3.55,3.55,3.55,3.55,3.5712,3.6115,3.6519,3.7199,3.8065,3.8931,3.9534,3.9938,4.0342,4.0766,4.1219,4.1788,4.2347,4.2967,3.0592,0.0,0.0,0.0,0.0,0.0,0.0,0.0,3.4913,3.5084,3.6336,3.7239,3.7213,3.8819,0.0,0.0,4.0456,4.0414,0.0,0.0,0.0,0.0,3.6559,3.7171,3.7981,3.9008,3.9842,4.0496,4.0496,4.0496,4.0496,4.0534,4.0216,3.9673,4.025,0.0,0.0,0.0,0.0,4.3256,0.0,4.1534,4.1894,4.1562,4.1836,4.2381,4.2359,4.2115,4.1621,4.0275,0.0,4.0084,3.8981,3.9161,0.0,0.0,0.0,0.0,0.0,0.0,0.0,0.0,0.0,4.0496,0.0,0.0,0.0,3.82,0.0,0.0,0.0,0.0,0.0,0.0,0.0,0.0,0.0,0.0,0.0,0.0,0.0,0.0,0.0,4.349,4.2537,4.1764,4.1061,3.996,3.8342,3.8084,3.7296,3.5788,3.5577,3.55,3.55,3.55,3.55,3.55,3.55,3.55,3.55,3.55,3.5577,3.5769,3.6361,3.6807,3.721,3.8553,3.9216,3.9427,4.0148,4.0855,4.1511,4.1824,4.2594,4.3588,3.1282,3.2324,0.0,0.0,0.0,0.0,0.0,0.0,3.5725,3.6399,3.7837,3.8801,0.0,0.0,0.0,0.0,0.0,0.0,4.2727,0.0,0.0,0.0,0.0,0.0,3.8,3.9554,4.0419,4.0496,4.0496,4.0496,4.0496,4.0623,4.0622,4.0535,4.0032,0.0,0.0,0.0,4.1698,0.0,4.2324,4.3183,0.0,4.2851,4.228,4.2307,4.2172,4.1581,4.0934,0.0,4.0687,3.9534,0.0,3.8818,0.0,0.0,0.0,0.0,0.0,0.0,0.0,0.0,4.1085,0.0,0.0,0.0,3.9919,3.8334,0.0,0.0,0.0,0.0,0.0,0.0,0.0,0.0,0.0,0.0,0.0,0.0,0.0,0.0,0.0,0.0,4.0788,4.0688,4.0585,4.0115,3.9207,3.8411,3.7565,3.6596,3.5865,3.55,3.55,3.55,3.55,3.55,3.55,3.55,3.55,3.55,3.5885,3.657,3.6408,3.7201,3.8556,3.8452,3.8877,3.9602,3.9994,4.0196,4.0349,4.0865,4.1581,4.2403,3.2479,3.3359,0.0,0.0,0.0,0.0,0.0,0.0,3.7669,3.7995,3.8991,0.0,0.0,0.0,0.0,0.0,0.0,4.2705,0.0,0.0,0.0,0.0,0.0,0.0,0.0,0.0,4.0068,4.0616,4.0616,4.0649,4.0685,4.0738,4.0526,4.0123,4.0348,0.0,4.0951,0.0,4.2383,0.0,0.0,0.0,0.0,4.2538,4.1634,4.1512,4.1352,4.1025,4.0608,0.0,3.982,0.0,0.0,0.0,0.0,0.0,0.0,0.0,0.0,0.0,0.0,0.0,0.0,0.0,0.0,0.0,4.0304,0.0,0.0,0.0,0.0,0.0,0.0,0.0,0.0,0.0,0.0,0.0,0.0,0.0,0.0,0.0,0.0,0.0,0.0,0.0,0.0,3.9938,3.8623,3.82,3.7603,3.6731,3.5923,3.5712,3.6192,3.6192,3.6192,3.6192,3.6192,3.6108,3.5965,3.5965,3.633,3.6929,3.6813,3.716,3.7842,3.8158,3.852,3.8897,3.9333,3.9947,4.0528,4.0125,4.1048,4.2505,3.3271,0.0,0.0,0.0,0.0,0.0,0.0,0.0,0.0,0.0,0.0,0.0,4.1711,4.1985,0.0,0.0,0.0,4.4396,0.0,0.0,4.1773,0.0,0.0,0.0,0.0,0.0,0.0,4.0721,4.0721,4.0752,4.0797,4.0847,4.0577,4.0077,0.0,4.0656,4.0644,0.0,0.0,4.334,4.3261,4.347,4.3595,4.2016,4.12,4.0883,4.0713,4.0655,4.0443,3.9136,3.9361,0.0,3.8007,0.0,0.0,0.0,0.0,0.0,4.0035,0.0,0.0,0.0,0.0,0.0,0.0,0.0,0.0,0.0,0.0,0.0,0.0,0.0,0.0,0.0,0.0,0.0,0.0,0.0,0.0,0.0,0.0,0.0,0.0,0.0,0.0,4.0246,4.0169,3.965,3.8411,3.8123,3.7719,3.7084,3.6481,3.6346,3.6692,3.6942,3.7017,3.6919,3.6919,3.678,3.6521,3.6521,3.6848,3.742,3.7359,3.7437,3.7699,3.8209,3.8415,3.8465,3.9082,3.9852,4.0521,3.9744,4.0817,4.26,3.3271,3.3981,0.0,0.0,0.0,0.0,0.0,0.0,0.0,0.0,0.0,0.0,0.0,0.0,0.0,0.0,0.0,4.6984,4.6947,0.0,4.2982,0.0,0.0,4.1855,0.0,0.0,0.0,0.0,4.0793,4.0793,4.0801,4.0925,4.0975,4.0939,4.025,4.082,4.2266,4.1543,4.1699,4.2441,4.2363,4.178,4.1007,0.0,4.1443,4.0692,4.0559,0.0,0.0,4.0439,3.9938,0.0,0.0,0.0,0.0,0.0,0.0,0.0,0.0,0.0,0.0,4.0496,0.0,0.0,0.0,0.0,4.1527,0.0,0.0,0.0,0.0,0.0,0.0,0.0,0.0,0.0,0.0,0.0,0.0,0.0,0.0,0.0,0.0,0.0,0.0,3.94,3.9342,3.9323,3.9265,3.845,3.7988,3.7969,3.793,3.7526,3.6712,3.7546,3.7805,3.746,3.746,3.7337,3.7073,3.7073,3.7517,3.8241,3.7985,3.8322,3.9024,3.8774,3.8683,3.8775,3.9564,3.9895,3.9929,3.9892,4.0905,4.2303,0.0,0.0,0.0,0.0,0.0,0.0,0.0,3.9725,0.0,0.0,0.0,0.0,0.0,0.0,4.855,0.0,0.0,4.804,4.7901,4.6437,0.0,0.0,0.0,4.331,0.0,0.0,0.0,0.0,0.0,4.0986,4.1076,4.1105,4.1128,4.1129,0.0,4.1074,0.0,0.0,0.0,0.0,0.0,4.1945,4.1546,0.0,0.0,4.068,4.0545,4.0496,0.0,3.9219,3.9046,3.9111,3.795,3.7969,3.8373,3.8084,3.8584,0.0,0.0,0.0,4.0362,3.9842,0.0,0.0,0.0,0.0,0.0,0.0,0.0,0.0,0.0,0.0,0.0,0.0,0.0,0.0,0.0,0.0,0.0,0.0,0.0,0.0,0.0,0.0,0.0,3.77,3.8104,3.818,3.7603,3.7853,3.8007,3.8007,3.8007,3.8142,3.8411,3.8493,3.8467,3.8366,3.8141,3.7894,3.763,3.763,3.7962,3.8558,3.8467,3.8575,3.8829,3.875,3.8707,3.8781,3.9588,4.023,4.0689,4.0689,4.1387,4.2378,3.6452,0.0,0.0,0.0,0.0,0.0,0.0,0.0,0.0,0.0,4.6377,0.0,5.035,0.0,5.03,0.0,5.0315,4.9125,4.855,4.7188,0.0,4.559,4.4726,0.0,0.0,0.0,0.0,0.0,0.0,4.1399,4.1191,4.1191,4.1191,4.1191,0.0,4.1191,4.123,0.0,4.1973,0.0,0.0,4.1568,0.0,0.0,4.0768,4.1092,0.0,4.0496,4.0323,3.9238,3.9065,3.9111,3.7988,3.818,3.8719,3.8161,3.8546,3.8969,3.8219,3.8565,0.0,3.8892,3.9154,0.0,3.9819,0.0,0.0,0.0,0.0,0.0,0.0,0.0,0.0,0.0,0.0,0.0,0.0,3.6865,0.0,0.0,0.0,0.0,0.0,0.0,3.8584,3.6827,3.7219,3.743,0.0,0.0,3.8142,3.845,3.8738,3.8958,3.9128,3.9212,3.9135,3.8899,3.8696,3.8433,3.8178,3.8178,3.8379,3.8707,3.8707,3.8707,3.8707,3.8707,3.8707,3.8781,3.9588,4.0396,4.1132,4.1407,4.2047,4.28,0.0,0.0,0.0,0.0,4.0344,0.0,0.0,0.0,4.5503,0.0,4.7766,4.9882,5.1358,5.1376,5.1823,5.3213,5.1828,0.0,4.9091,4.7499,0.0,0.0,4.5194,4.5058,4.4777,0.0,0.0,0.0,0.0,0.0,4.1269,4.1211,4.1191,4.1191,4.1191,0.0,4.1191,4.1191,4.1191,4.115,4.0905,4.0704,4.0569,4.0516,4.113,4.1859,4.086,4.0496,4.0496,4.0458,3.9938,3.9304,3.9304,3.8719,3.8065,3.8065,3.7507,3.7038,3.7723,3.7377,3.6986,3.7709,0.0,0.0,0.0,0.0,3.9626,0.0,0.0,0.0,0.0,0.0,0.0,0.0,0.0,0.0,0.0,0.0,0.0,0.0,0.0,0.0,0.0,3.9169,3.8469,3.6769,3.6628,3.7012,0.0,0.0,3.8377,3.9215,4.005,3.9944,3.8842,3.9642,3.9731,3.9112,3.9122,3.8984,3.8707,3.8744,3.8744,3.8707,3.8707,3.8707,3.8707,3.8744,3.8762,3.8836,3.968,4.0506,4.1297,4.2084,4.2837,4.3515,3.9204,4.098,4.2391,0.0,4.2158,4.2014,0.0,0.0,0.0,0.0,5.0722,5.2747,5.4333,5.3935,5.3709,5.407,5.2867,0.0,0.0,0.0,0.0,4.695,4.6646,4.6221,4.5603,4.5056,0.0,4.4336,0.0,0.0,4.207,4.1484,4.1191,4.1191,0.0,0.0,4.1191,4.1191,4.1081,4.088,4.0767,4.1083,0.0,0.0,4.113,4.1859,4.086,4.0496,4.0419,3.9804,3.9477,3.9304,3.9304,3.915,3.8977,3.8977,3.9227,3.9119,3.7234,3.7517,3.8027,3.6749,3.6871,3.7361,0.0,0.0,0.0,0.0,0.0,0.0,0.0,0.0,0.0,0.0,0.0,0.0,0.0,0.0,0.0,3.8159,0.0,0.0,0.0,3.7373,3.6923,3.5885,3.5619,3.5867,0.0,0.0,0.0,3.854,3.9633,3.9938,3.941,3.9368,3.9264,3.9099,3.9505,3.9347,3.8726,3.9313,3.9276,3.8707,3.8707,3.8707,3.8762,3.935,3.9588,3.9735,4.113,4.2176,4.291,4.3112,4.3331,4.3515,4.0363,0.0,0.0,4.4017,0.0,0.0,4.469,0.0,0.0,5.001,5.1993,0.0,5.4454,5.4612,5.4535,5.4183,5.2994,0.0,0.0,0.0,0.0,4.7348,4.709,4.6671,4.6004,4.5211,0.0,4.4433,0.0,0.0,4.1875,4.1406,4.1191,4.1191,0.0,4.1191,4.1191,4.1148,4.1207,4.1338,4.0876,0.0,0.0,4.0715,4.0841,4.1273,4.0696,4.0496,4.0439,3.9977,3.9823,3.9823,3.9823,3.9823,3.9823,3.9823,3.953,3.8884,3.7294,3.6957,3.6796,3.5661,3.5631,3.5987,3.637,3.6728,3.7069,0.0,0.0,0.0,0.0,0.0,0.0,0.0,0.0,0.0,0.0,0.0,0.0,0.0,0.0,0.0,0.0,3.6773,3.6262,3.5231,3.5429,3.5768,0.0,0.0,0.0,3.8335,3.967,4.008,3.9396,3.992,3.9946,3.9474,4.0102,4.0194,3.9756,4.023,3.9992,3.9221,3.9221,3.9221,3.9258,3.9698,4.0102,4.0543,4.1809,4.258,4.302,4.3369,4.3515,4.3515,0.0,0.0,0.0,0.0,0.0,0.0,0.0,4.785,0.0,5.1002,0.0,5.3488,5.3378,5.4201,5.4466,5.3776,0.0,5.1367,5.0088,4.9303,4.8325,4.7047,4.7023,4.6731,4.6106,4.5256,0.0,0.0,0.0,0.0,4.1348,4.125,4.1191,4.1191,0.0,0.0,0.0,4.1026,4.1337,4.1846,4.1009,4.0603,4.0496,4.0496,4.0496,4.0496,4.0496,4.0496,4.0496,4.0496,4.0496,4.0496,4.0496,4.0496,4.0496,4.0496,3.9301,3.7922,3.7677,3.6445,3.5179,3.4912,3.4722,3.4792,3.5557,3.5502,3.5537,3.6404,3.731,3.7707,0.0,0.0,0.0,0.0,0.0,0.0,0.0,0.0,0.0,0.0,0.0,0.0,0.0,0.0,3.6383,3.5121,3.5742,0.0,0.0,0.0,0.0,3.827,3.9869,4.0239,3.9198,0.0,4.1033,4.0065,4.0873,4.1187,4.1095,4.1205,4.0818,4.0065,4.0065,4.0065,4.0065,4.0157,4.0689,4.148,4.2176,4.2451,4.2543,4.3239,4.3515,4.3515,0.0,0.0,0.0,0.0,0.0,4.8022,4.9802,5.1863,5.3362,5.3797,5.4685,5.5008,5.4349,5.3816,5.3473,5.3306,5.2158,0.0,0.0,0.0,0.0,4.7066,4.7115,4.6824,4.6128,4.5342,4.4902,0.0,0.0,0.0,4.2187,4.1504,4.1191,4.1191,0.0,0.0,4.1025,4.0883,0.0,4.092,4.064,4.0527,4.0496,4.0496,4.0496,4.0496,4.0496,4.0496,4.0496,4.0496,4.0496,4.0496,4.0496,4.0496,4.0496,4.0496,4.0261,3.964,3.8046,3.7879,3.7776,3.6108,3.6184,3.671,3.6861,3.6866,3.7047,3.7859,3.8188,3.8463,3.893,0.0,0.0,0.0,0.0,0.0,0.0,0.0,0.0,0.0,0.0,0.0,0.0,0.0,0.0,0.0,0.0,0.0,0.0,0.0,0.0,0.0,3.944,0.0,0.0,0.0,4.1084,4.0893,4.1717,4.1754,4.1113,4.1791,4.1662,4.0875,4.0875,4.0875,4.093,4.1607,4.2341,4.3075,4.3222,4.3277,4.3296,4.346,4.3515,4.3515,0.0,0.0,0.0,0.0,0.0,0.0,0.0,5.4441,0.0,5.4012,5.3799,5.3632,5.3251,5.3383,5.3352,5.2921,5.1712,5.0629,4.9756,4.9086,4.8235,4.7142,4.7165,0.0,4.6219,4.4979,4.4336,4.4336,0.0,0.0,0.0,0.0,0.0,4.1191,0.0,4.1277,0.0,0.0,0.0,4.1317,4.0733,4.0496,4.0496,4.0496,4.0496,4.0496,4.0496,4.0496,4.0496,4.0496,4.0496,4.0496,4.0496,4.0496,4.0496,4.0496,4.0098,3.9461,3.8534,3.8147,3.7792,3.6816,3.6879,3.7192,3.7192,3.7192,3.7305,3.77,3.8104,3.8659,3.9448,3.929,0.0,0.0,0.0,0.0,0.0,0.0,0.0,0.0,0.0,0.0,0.0,0.0,0.0,0.0,0.0,0.0,0.0,0.0,0.0,0.0,0.0,0.0,0.0,0.0,0.0,4.1735,4.2543,4.2708,4.2359,4.2745,4.2488,4.1735,4.1735,4.1735,4.1791,4.2598,4.3149,4.3515,4.3515,4.3515,4.3515,4.3515,4.3515,4.3515,0.0,4.6449,0.0,0.0,5.1371,0.0,5.4075,5.5645,5.6064,5.424,5.3291,5.2793,5.2793,5.3314,5.3423,5.2792,5.1318,5.0048,4.9183,4.8317,4.7569,4.6955,4.6925,4.6729,4.6308,4.459,4.3613,0.0,0.0,0.0,0.0,0.0,0.0,0.0,0.0,0.0,0.0,0.0,4.1073,4.1603,4.0815,4.0496,4.0496,4.0496,4.0496,4.0496,4.0496,4.0496,4.0496,4.0496,4.0496,4.0496,4.0496,4.0496,4.0496,4.0496,3.9893,3.9209,3.9037,3.8442,3.7859,3.7688,3.7764,3.7897,3.7897,3.7897,3.7897,3.7897,3.8357,3.8956,3.9588,3.9645,0.0,0.0,0.0,0.0,0.0,0.0,0.0,0.0,0.0,0.0,0.0,0.0,0.0,0.0,0.0,0.0,0.0,0.0,0.0,0.0,0.0,4.0799,4.0157,0.0,4.3167,0.0,4.3185,4.3515,4.3515,4.3515,4.3149,4.2561,4.2561,4.2561,4.2598,4.3239,4.3515,4.3515,4.3515,4.3515,4.3497,4.3375,4.3321,4.3303,0.0,0.0,0.0,0.0,0.0,0.0,0.0,5.4741,5.6019,5.656,5.5887,5.5338,5.5338,5.4092,5.3238,5.3161,5.0913,4.9144,4.8279,4.7471,4.6719,4.6046,4.6016,4.6108,4.6308,4.459,4.3301,0.0,0.0,0.0,0.0,0.0,0.0,0.0,0.0,0.0,0.0,4.0742,4.0675,4.0623,4.0543,4.0496,4.0496,4.0496,4.0496,4.0496,4.0496,4.0496,4.0496,4.0496,4.0496,4.0496,4.0496,4.0496,4.0496,4.0496,4.0423,4.0185,3.9465,3.9727,4.0018,3.9288,3.9653,4.0191,4.0191,4.0191,4.0191,4.0191,4.0059,3.9966,4.0042,3.9797,3.9505,0.0,0.0,0.0,0.0,0.0,0.0,0.0,0.0,0.0,0.0,0.0,0.0,0.0,0.0,0.0,0.0,0.0,0.0,3.6303,0.0,4.1058,4.0985,4.2653,4.346,4.3404,4.346,4.3515,4.3515,4.3515,4.346,4.3404,4.3404,4.3404,4.3404,4.3478,4.3515,4.3515,4.3515,4.3515,4.3444,4.2958,4.277,4.2693,0.0,0.0,0.0,0.0,0.0,0.0,0.0,5.5468,5.596,5.6289,5.5961,5.5703,5.5703,5.4203,5.3203,5.3203,5.0875,4.924,4.8894,4.767,4.6874,4.6687,4.6251,4.6113,4.6308,4.5098,4.4043,0.0,0.0,0.0,0.0,0.0,0.0,0.0,0.0,4.1304,4.1333,4.08,4.0853,4.1239,4.0708,4.0496,4.0496,4.0496,4.0496,4.0496,4.0496,4.0496,4.0496,4.0496,4.0496,4.0496,4.0496,4.0496,4.0496,4.0496,4.0496,4.0439,4.0112,4.0265,4.0419,4.0092,4.0265,4.0496,4.0496,4.0496,4.0457,4.0285,4.0013,3.9742,3.9541,3.9777,3.9925,0.0,0.0,0.0,0.0,0.0,0.0,0.0,0.0,0.0,0.0,0.0,0.0,0.0,0.0,0.0,0.0,0.0,0.0,3.7734,0.0,4.1334,4.1827,4.2928,4.3515,4.3515,4.3515,4.3515,4.3515,4.3515,4.3515,4.3515,4.3515,4.3515,4.3515,4.3515,4.3515,4.3515,4.3515,4.3303,4.2995,4.2788,4.2747,4.2778,4.7677,0.0,4.9958,0.0,5.4035,5.4673,5.6006,5.6078,5.5988,5.5988,5.5902,5.5731,5.5378,5.4068,5.3106,5.2837,5.0721,4.9432,4.9465,4.7917,4.7086,4.7245,4.6513,0.0,4.6308,4.5449,4.455,4.3668,4.3372,0.0,0.0,0.0,0.0,0.0,4.0939,4.1174,4.1393,4.1027,4.1239,4.175,4.1123,4.0873,4.0854,4.0593,4.0496,4.0496,4.0496,4.0496,4.0496,4.0496,4.0496,4.0496,4.0496,4.0496,4.0496,4.0496,4.0496,4.0496,4.0496,4.0496,4.0496,4.0496,4.0496,4.0496,4.0496,4.0496,4.0414,4.0148,3.9746,3.9452,3.9437,3.9858,4.0204,4.0241,0.0,0.0,0.0,0.0,0.0,0.0,0.0,3.6578,3.5481,0.0,0.0,0.0,0.0,0.0,0.0,0.0,0.0,0.0,0.0,0.0,0.0,4.3094,4.3515,4.3515,4.3515,4.3515,4.3515,4.3515,4.3515,4.3515,4.3515,4.3515,4.3515,4.3515,4.341,4.3268,4.3268,4.2921,4.2438,4.2509,4.2583,4.2663,4.8808,5.0177,5.1666,5.4235,5.5508,5.6172,5.6191,5.6191,5.6191,5.6191,5.6186,5.5773,5.463,5.3722,5.2856,5.1981,5.0375,4.9465,4.9596,4.7977,4.7118,0.0,0.0,4.6152,4.6308,4.5449,4.4546,4.3606,0.0,0.0,4.0839,0.0,4.1549,4.073,4.1458,4.1316,4.0573,4.1431,4.1788,4.1788,4.1788,4.1769,4.1692,4.0843,4.0496,4.0496,4.0496,4.0496,4.0496,4.0496,4.0496,4.0496,4.0496,4.0496,4.0496,4.0496,4.0496,4.0496,4.0496,4.0496,4.0496,4.0496,4.0496,4.0496,4.0496,4.0496,4.0414,4.0148,3.9576,3.9354,4.0133,4.0085,4.0173,4.0948,0.0,0.0,0.0,0.0,0.0,0.0,3.8193,3.8046,3.6431,0.0,0.0,0.0,0.0,0.0,0.0,0.0,0.0,3.8707,4.1038,0.0,4.2304,4.3094,4.3515,4.3515,4.3515,4.3515,4.3515,4.3515,4.3515,4.3515,4.3515,4.3515,4.3515,4.3515,4.3196,4.2711,4.2711,4.2342,4.1835,4.2015,4.2109,4.2116,4.8058,4.9327,5.0848,5.3493,5.4781,5.5688,5.638,5.6408,5.6331,5.6331,5.6266,5.5847,5.4893,5.3999,5.3352,0.0,5.1535,5.0584,0.0,4.9634,4.8828,4.8311,4.7544,4.6816,4.6173,4.5898,4.5287,4.4347,0.0,0.0,0.0,4.2027,4.1407,4.0566,4.0808,4.1085,4.1393,4.1673,4.2143,4.2701,4.2701,4.2335,4.1769,4.1489,4.1008,4.0496,4.0496,4.0496,4.0496,4.0496,4.0496,4.0496,4.0496,4.0496,4.0496,4.0496,4.0496,4.0496,4.0496,4.0496,4.0496,4.0496,4.0496,4.0496,4.0496,4.0175,3.9951,4.0183,3.9933,3.9899,4.0698,4.1229,4.1625,4.1882,4.2378,0.0,0.0,0.0,0.0,0.0,3.7731,3.7474,0.0,3.7514,0.0,0.0,0.0,0.0,0.0,0.0,0.0,0.0,4.1607,0.0,4.3112,4.3369,4.3515,4.3497,4.3142,4.2733,4.2346,4.2346,4.258,4.2958,4.2958,4.316,4.3462,4.3105,4.3153,4.3408,4.2989,4.2816,4.277,4.2816,4.2918,4.2993,4.7731,4.8945,5.0497,5.3137,5.4476,5.5494,5.6445,5.6536,5.6483,5.6483,5.6391,5.615,5.5607,5.4473,0.0,5.3147,5.1872,5.1113,5.1137,5.0413,4.9618,4.8745,4.7948,4.705,4.6053,0.0,0.0,4.5103,4.5202,4.4338,4.2604,4.2038,4.1335,4.0496,4.0496,4.0969,4.1808,4.2162,4.2777,4.3547,4.3547,4.322,4.2681,4.2038,4.147,4.095,4.0631,4.0496,4.0496,4.0496,4.0496,4.0496,4.0496,4.0496,4.0496,4.0496,4.0496,4.0496,4.0496,4.0433,4.0347,4.0347,4.0488,4.0692,4.0998,4.0685,4.0433,4.0728,4.0547,4.0598,4.1405,4.1974,4.2396,4.269,4.291,4.2598,4.1279,0.0,0.0,0.0,0.0,0.0,0.0,3.867,0.0,0.0,0.0,0.0,0.0,0.0,0.0,4.1535,4.2134,0.0,4.3178,4.2959,4.2847,4.2865,4.2789,4.2427,4.181,4.209,4.2284,4.2362,4.2362,4.256,4.2847,4.2501,4.2685,4.3127,4.2758,4.2717,4.2911,4.316,4.3327,4.3426,4.7778,4.8961,0.0,0.0,5.4455,0.0,5.6387,5.6562,5.6601,5.6601,5.6601,5.6601,5.6582,5.5078,5.3625,5.2493,0.0,0.0,0.0,5.0492,4.9663,4.8728,4.7901,4.6989,4.5929,4.589,4.5861,4.5783,4.4789,4.3508,4.1962,4.1846,4.1373,4.0593,4.0535,4.095,4.1769,4.2701,4.3528,4.422,4.4335,4.4355,4.4124,4.2566,4.1942,4.1777,4.0969,4.0689,4.0689,4.0689,4.0689,4.0689,4.0689,4.0689,4.0669,4.0535,4.0496,4.0496,4.0481,4.0334,4.0186,4.0147,4.0517,4.1079,4.1814,4.1785,4.1622,4.1649,4.1403,4.1425,4.2231,4.2378,4.2635,4.3386,4.2818,4.2029,4.1205,0.0,0.0,0.0,0.0,0.0,0.0,4.027,4.115,0.0,0.0,0.0,0.0,0.0,4.229,4.2235,4.2558,4.2707,4.2707,4.2205,4.1931,4.1905,4.2591,4.2533,4.1858,4.2542,4.2511,4.1905,4.1905,4.1927,4.1948,4.1927,4.2028,4.2241,4.2192,4.2303,4.2523,4.3234,4.3477,4.3578,0.0,0.0,4.9614,5.2154,5.3557,5.4609,5.5469,5.6172,5.6601,5.6601,5.6601,5.656,5.6456,5.5493,5.4413,5.3379,5.2089,5.1287,5.1219,5.1022,5.0217,4.8616,4.8355,4.7485,4.5865,4.582,4.5776,4.5651,4.4735,4.4105,4.3682,4.2412,4.1692,4.147,4.0804,4.0612,4.092,4.245,4.3201,4.3508,4.4786,4.4893,4.4259,4.3855,4.3335,4.2777,4.2566,4.247,4.247,4.247,4.247,4.247,4.247,4.247,4.222,4.09,4.0496,4.0457,4.0241,4.0597,4.0945,4.07,4.1177,4.1701,4.1693,4.1642,4.1698,4.2057,4.2077,4.2268,4.3057,4.3222,4.3277,4.3478,4.2818,4.2029,4.1205,4.093,0.0,0.0,4.0341,4.0728,4.0545,4.1442,4.1772,0.0,0.0,0.0,0.0,4.2249,4.2303,4.1633,4.2427,4.285,4.285,4.3262,4.327,4.288,4.3054,4.2787,4.2176,4.2347,4.2607,4.288,4.288,4.3104,4.3451,4.3028,4.3235,4.3731,4.327,4.3488,4.409,4.4231,4.4316,4.4333,4.7778,4.8309,4.9303,5.1862,5.3242,5.4297,5.5176,5.5992,5.6511,5.6511,5.6456,5.6386,5.6317,5.5529,5.4628,5.3687,5.2503,5.162,5.119,5.078,4.9921,4.8463,4.8055,4.7184,4.5734,4.5708,4.5673,4.5594,4.5133,4.4682,4.4259,4.2989,4.2181,4.175,4.0893,4.0727,4.1181,4.2527,4.3316,4.3758,4.5075,4.5325,4.4855,4.4451,4.4028,4.3605,4.3239,4.3104,4.3104,4.3104,4.3104,4.3104,4.3104,4.3104,4.2876,4.1747,4.1405,4.1378,4.1236,4.1301,4.145,4.1488,4.1818,4.2203,4.2418,4.2479,4.2546,4.2796,4.2837,4.2983,4.3423,4.3515,4.3386,4.3002,4.258,4.2029,4.1205,4.1095,0.0,4.0506,4.1167,4.1515,4.1132,4.2158,4.2506,4.1717,4.28,0.0,4.2045,4.2171,4.2067,4.1602,4.2194,4.2531,4.2531,4.2977,4.3076,4.28,4.3117,4.2935,4.2303,4.2642,4.2794,4.28,4.28,4.2943,4.3207,4.2893,4.3228,4.3861,4.3539,4.3893,4.4615,4.4615,4.4615,4.4615,4.7827,4.8366,4.9289,5.171,5.3171,5.4258,5.498,5.5842,5.6408,5.6408,5.6273,5.6186,5.6164,5.5491,5.4702,5.381,5.2943,5.2041,5.1136,5.0388,4.9512,4.8517,4.7685,4.68,4.5825,4.5671,4.5594,4.5594,4.5594,4.5229,4.447,4.3662,4.2893,4.2143,4.1277,4.1296,4.2038,4.2912,4.3682,4.4374,4.5248,4.5594,4.5518,4.4778,4.4489,4.4412,4.372,4.347,4.347,4.347,4.347,4.3462,4.3427,4.34,4.3308,4.2933,4.2767,4.2677,4.243,4.2039,4.1831,4.2351,4.2488,4.2653,4.3332,4.3515,4.3533,4.3644,4.3571,4.3551,4.3644,4.3588,4.3277,4.2598,4.2378,4.2066,4.137,0.0,4.1334,4.1444,4.2176,4.2451,4.1866,4.3057,4.3571,4.2892,4.3391,4.3488,4.2938,4.2334,4.1952,4.1864,4.2043,4.2233,4.2475,4.2593,4.2642,4.2642,4.3284,4.325,4.2658,4.3301,4.325,4.2642,4.2642,4.2642,4.2642,4.2642,4.3014,4.3589,4.3589,4.3995,4.4615,4.4733,4.4784,4.4784,4.8097,4.8565,4.924,5.1052,5.2839,5.4043,5.418,5.545,5.6408,5.6408,5.6273,5.6141,5.5966,5.5827,5.5368,5.4439,5.3571,5.2457,5.1022,5.0796,5.029,4.9276,4.8391,4.7545,4.6721,4.597,4.5594,4.5594,4.5594,4.5537,4.5383,4.4509,4.4047,4.3874,4.3066,4.2777,4.2951,4.3778,4.4182,4.4374,4.5248,4.5594,4.5594,4.546,4.5402,4.5383,4.5267,4.521,4.521,4.521,4.521,4.5155,4.487,4.4798,4.4726,4.4378,4.4033,4.3469,4.2104,4.1957,4.2369,4.3129,4.3296,4.3349,4.3478,4.3515,4.3681,4.4378,4.3975,4.3699,4.4397,4.3956,4.346,4.3331,4.2745,4.2268,4.2139,0.0,4.2378,4.3039,4.3846,4.4562,4.5094,4.5369,4.548,4.5351,4.4978,4.45,4.3912,4.3296,4.2748,4.2253,4.2243,4.2887,4.4194,4.4247,4.4242,4.4242,4.4378,4.4361,4.4259,4.4378,4.4361,4.4242,4.4242,4.4242,4.4242,4.4242,4.4327,4.4401,4.4401,4.4496,4.4682,4.5297,4.5534,4.5618,4.816,4.8617,4.9235,5.0911,5.2354,5.3301,5.3301,5.4606,5.5595,5.5595,5.5793,5.5896,5.5808,5.5789,5.5432,5.4579,5.4126,5.3195,5.1554,5.0578,4.9686,4.874,4.7894,4.7067,4.622,4.5806,4.5594,4.5594,4.5594,4.5594,4.5575,4.4701,4.4297,4.4259,4.3451,4.3104,4.3143,4.3951,4.4297,4.4374,4.5248,4.5594,4.5594,4.5594,4.5594,4.5594,4.5594,4.5594,4.5577,4.54,4.5332,4.5263,4.4931,4.4837,4.4757,4.4387,4.415,4.3788,4.2884,4.2785,4.3039,4.3423,4.3828,4.4158,4.4158,4.447,4.4892,4.5278,4.5039,4.4911,4.5278,4.469,4.4158,4.4158,4.3461,0.0,0.0,4.3314,4.3736,4.4103,4.4856,4.5498,4.5865,4.5902,4.5902,4.5902,4.5356,4.4734,4.4134,4.3522,4.3099,4.2905,4.2895,4.3436,4.4598,4.4615,4.4615,4.4615,4.4615,4.4615,4.4615,4.4615,4.4615,4.4615,4.4615,4.4615,4.4615,4.4615,4.4615,4.4615,4.4615,4.4852,4.5229,4.5568,4.5957,4.6346,4.8252,4.8674,4.9272,5.0949,5.2045,5.2695,5.2695,5.3777,5.4669,5.4877,5.52,5.5491,5.5684,5.5703,5.5453,5.4818,5.4607,5.3857,5.2288,5.0818,4.9606,4.874,4.7721,4.6778,4.5913,4.571,4.5594,4.5594,4.5594,4.5594,4.5594,4.4921,4.4605,4.4586,4.3951,4.3682,4.372,4.4335,4.4605,4.4662,4.5325,4.5594,4.5594,4.5594,4.5594,4.5594,4.5594,4.5594,4.5568,4.5312,4.515,4.5041,4.4714,4.4593,4.4565,4.436,4.4502,4.4561,4.382,4.3824,4.4003,4.3905,4.4515,4.5088,4.5002,4.5461,4.5957,4.614,4.6177,4.625,4.6416,4.581,4.526,4.526,0.0,0.0,0.0,4.4599,4.5057,4.5241,4.581,4.625,4.6434,4.6452,4.6397,4.6266,4.5683,4.5061,4.4454,4.386,4.3579,4.3673,4.369,4.3978,4.4598,4.4615,4.4699,4.4869,4.4682,4.4699,4.4869,4.4682,4.4615,4.4615,4.4615,4.4615,4.4615,4.4801,4.4869,4.4886,4.5055,4.5449,4.5974,4.616,4.6583,4.7073,4.8534,4.8886,4.9414,5.1093,5.2109,5.2695,5.2695,5.3273,5.3988,5.478,5.4724,5.4876,5.5607,5.5703,5.5684,5.5607,5.4934,5.4107,5.3164,5.2231,5.1356,5.0539,4.8894,4.7625,4.6817,4.6009,4.5594,4.5594,4.5594,4.5594,4.5594,4.5537,4.5498,4.5498,4.5441,4.5421,4.5421,4.5479,4.5498,4.5518,4.5575,4.5594,4.5594,4.5594,4.5594,4.5594,4.5594,4.5594,4.5605,4.5568,4.5352,4.5041,4.4714,4.4593,4.4678,4.5081,4.5992,4.6454,4.4483,4.4776,4.5543,4.5161,4.5736,4.6269,4.59,4.5865,4.6104,4.6856,4.7003,4.7241,4.7994,4.7461,4.6911,4.6911,0.0,0.0,4.5718,4.5773,4.6104,4.6837,4.6984,4.7296,4.8049,4.8122,4.7892,4.7328,4.6663,4.6015,4.5423,4.4827,4.4518,4.4513,4.4513,4.4547,4.4615,4.4615,4.4925,4.5618,4.4925,4.4942,4.5602,4.4891,4.4615,4.4615,4.4615,4.4615,4.4649,4.5331,4.5618,4.5703,4.6363,4.6667,4.6802,4.7496,4.7753,4.7936,4.8555,4.8906,4.9433,5.1113,5.168,5.1894,5.1894,5.2411,5.3107,5.3977,5.4329,5.4799,5.5607,5.5241,5.4953,5.4953,5.4684,5.3895,5.2481,5.2577,5.1856,4.9971,4.874,4.7721,4.6923,4.6586,4.6144,4.5594,4.5594,4.5594,4.5594,4.5594,4.5594,4.5594,4.5594,4.5594,4.5594,4.5594,4.5594,4.5594,4.5594,4.5594,4.5594,4.5594,4.5594,4.5594,4.5594,4.5594,4.5568,4.5352,4.5211,4.5117,4.5281,4.5347,4.5504,4.621,4.6895,4.7238,4.6455,4.6422,4.6706,4.7076,4.7588,4.8098,4.8485,4.8772,4.904,4.9334,4.9388,4.9499,4.9793,4.9169,4.8765,4.9315,0.0,4.7572,4.8123,4.8177,4.8325,4.86,4.9095,4.9517,4.9829,4.945,4.9082,4.8846,4.7815,4.7117,4.6888,4.5862,4.506,4.4615,4.4615,4.4615,4.4615,4.4615,4.4959,4.5703,4.5415,4.5669,4.6363,4.6075,4.5703,4.5314,4.5754,4.5686,4.5331,4.6075,4.638,4.6413,4.6684,4.7073,4.753,4.7817,4.8176,4.8629,4.8613,4.9121,4.9746,5.1152,5.1406,5.1406,5.1406,5.169,5.2329,5.3452,5.3895,5.4491,5.5568,5.5203,5.4876,5.4876,5.4645,5.3991,5.2788,5.275,5.1895,4.9894,4.8971,4.8259,4.7702,4.7432,4.6855,4.6009,4.6009,4.5883,4.5594,4.5594,4.5594,4.5594,4.5594,4.5594,4.5594,4.5594,4.5594,4.5594,4.5594,4.5594,4.5594,4.5594,4.5594,4.5594,4.5594,4.5787,4.5972,4.5734,4.5764,4.5989,4.6594,4.6948,4.7334,4.8321,4.8769,4.9004,4.9272,4.9193,4.8998,4.8952,4.9412,4.9994,5.0474,5.0694,5.0802,5.0802,5.1004,5.1187,5.1187,5.0692,5.0472,5.1077,4.9994,4.9297,4.9884,4.9996,4.9996,4.9996,5.0453,5.0802,5.0802,5.0134,4.9617,4.9433,4.8363,4.7617,4.743,4.6538,4.5805,4.5326,4.5309,4.5309,4.5309,4.4835,4.5077,4.6041,4.5821,4.621,4.7141,4.6904,4.6515,4.6075,4.6583,4.6498,4.6109,4.6836,4.7141,4.7175,4.7394,4.78,4.8257,4.8257,4.8578,4.9035,4.873,4.9609,5.0449,5.1269,5.1406,5.1406,5.1406,5.1224,5.1706,5.3369,5.3354,5.3837,5.5511,5.5684,5.5684,5.5684,5.4953,5.4491,5.4472,5.2856,5.1529,5.0731,4.9875,4.9413,4.9394,4.8548,4.7721,4.6904,4.6904,4.6471,4.5614,4.5614,4.5614,4.5614,4.5594,4.5594,4.5594,4.5594,4.5594,4.5594,4.5594,4.5594,4.5594,4.5594,4.5594,4.5614,4.5614,4.6163,4.6904,4.6904,4.7211,4.7762,4.8659,4.948,5.0371,5.1563,5.1904,5.2096,5.2962,5.3192,5.2707,5.0653,5.1071,5.1902,5.1513,5.1101,5.082,5.082,5.1444,5.1995,5.1995,5.1995,5.1995,5.1995,5.1334,5.082,5.082,5.082,5.082,5.082,5.082,5.082,5.082,5.013,4.9475,4.8834,4.8137,4.7447,4.6844,4.6802,4.6802,4.6786,4.6786,4.6786,4.6786,4.5359,4.5331,4.6786,4.6075,4.6498,4.7872,4.7141,4.6802,4.6802,4.6802,4.6802,4.6853,4.7614,4.7889,4.7973,4.8731,4.9018,4.9018,4.9018,4.9018,4.912,4.873,4.9609,5.0428,5.1135,5.1265,5.1234,5.12,5.1063,5.1334,5.242,5.294,5.3626,5.4741,5.4857,5.4857,5.4857,5.4087,5.3337,5.2722,5.1664,5.0952,5.0712,5.0462,5.0029,4.9413,4.9144,4.8586,4.774,4.774,4.7605,4.7336,4.6778,4.6509,4.649,4.5874,4.5594,4.5594,4.5594,4.5594,4.5594,4.5594,4.5594,4.5594,4.5594,4.597,4.6509,4.6509,4.7048,4.774,4.774,4.8231,4.9113,5.0553,5.1589,5.2297,5.2379,5.2389,5.2379,5.2306,5.2731,5.3188,5.3188,5.3225,5.3324,5.3537,5.3232,5.2804,5.2534,5.2674,5.2839,5.2839,5.2839,5.2839,5.2839,5.2637,5.2491,5.2491,5.2491,5.2491,5.2491,5.2491,5.2285,5.176,5.1084,5.0396,4.9682,4.8993,4.8299,4.7614,4.7581,4.7344,4.6802,4.6786,4.6786,4.6786,4.6346,4.6616,4.7581,4.7361,4.7767,4.8663,4.8443,4.8071,4.7614,4.8122,4.8054,4.7631,4.8376,4.868,4.8748,4.9475,4.9763,4.9763,4.9763,4.9763,4.9796,4.873,4.9568,5.0358,5.1072,5.118,5.1156,5.1103,5.0985,5.1199,5.1985,5.2741,5.353,5.4395,5.478,5.4972,5.4972,5.4491,5.3683,5.2481,5.2279,5.1895,5.1202,5.1164,5.0779,4.9933,4.9913,4.949,4.8606,4.8606,4.8432,4.8086,4.7278,4.6904,4.6846,4.599,4.5594,4.5594,4.5594,4.5594,4.5633,4.597,4.6105,4.6144,4.6471,4.6913,4.7375,4.7375,4.7799,4.8438,4.8735,4.9865,5.1354,5.2546,5.3157,5.3464,5.3563,5.3234,5.2845,5.2911,5.3302,5.3917,5.4751,5.4624,5.4346,5.4629,5.4597,5.4447,5.4207,5.4161,5.4161,5.4161,5.4161,5.4051,5.3739,5.3683,5.3573,5.3243,5.3185,5.3185,5.3185,5.3185,5.302,5.2576,5.1661,5.0689,4.9664,4.9243,4.8815,4.8376,4.8359,4.8139,4.7682,4.7665,4.7665,4.7665,4.7665,4.775,4.7889,4.7889,4.8308,4.9001,4.9001,4.8765,4.8376,4.8815,4.8748,4.8392,4.8832,4.9001,4.9035,4.9492,4.9661,4.9661,4.9661,4.9661,4.9712,4.873,4.9497,5.0243,5.1057,5.1137,5.1088,5.1078,5.0953,5.1149,5.1885,5.2684,5.351,5.4299,5.5164,5.5703,5.5703,5.5626,5.4914,5.3318,5.3933,5.3683,5.2096,5.1942,5.1568,5.0827,5.075,5.0308,4.951,4.951,4.9106,4.8317,4.7509,4.7115,4.7086,4.6144,4.5729,4.571,4.5633,4.5594,4.5691,4.6547,4.6904,4.6981,4.7751,4.8087,4.8164,4.8116,4.8479,4.9098,4.9987,5.1827,5.383,5.4346,5.4221,5.403,5.4841,5.428,5.354,5.4371,5.4597,5.4769,5.5503,5.5415,5.5153,5.5117,5.5373,5.564,5.5614,5.5614,5.5614,5.5614,5.5614,5.5335,5.4528,5.4454,5.4197,5.3314,5.3259,5.3277,5.3203,5.3259,5.3259,5.3121,5.1825,5.0435,4.9107,4.9001,4.9001,4.9001,4.9001,4.9001,4.9001,4.9001,4.9001,4.9001,4.9001,4.8663,4.799,4.799,4.8359,4.9001,4.9001,4.9001,4.9001,4.9001,4.9001,4.9001,4.9001,4.9001,4.9018,4.9069,4.9137,4.9204,4.9204,4.9238,4.939,4.873,4.9497,5.0246,5.0992,5.102,5.0903,5.0797,5.0766,5.0807,5.098,5.23,5.328,5.3453,5.4799,5.5703,5.5703,5.5126,5.4318,5.328,5.3376,5.3318,5.2933,5.225,5.1808,5.1635,5.101,5.0616,5.0423,5.0423,5.0327,5.0106,4.926,4.8856,4.8798,4.7298,4.6624,4.6567,4.5893,4.5594,4.5691,4.6547,4.6904,4.6943,4.7454,4.8056,4.8606,4.8283,4.9086,5.0515,5.2008,5.2878,5.3475,5.4242,5.4421,5.4434,5.4898,5.4836,5.4727,5.521,5.5367,5.5404,5.557,5.6018,5.6335,5.6006,5.6006,5.5992,5.5643,5.5614,5.5614,5.5614,5.5614,5.5335,5.4528,5.4932,5.484,5.3387,5.3739,5.3922,5.328,5.3775,5.3676,5.2454,5.1068,4.9907,4.9046,4.9001,4.9001,4.9001,4.9001,4.9001,4.9001,4.9001,4.9001,4.9001,4.9001,4.8934,4.8765,4.8765,4.8849,4.9001,4.9001,4.9001,4.9001,4.9001,4.9001,4.9001,4.9001,4.9001,4.9069,4.9644,5.0202,5.0744,5.0744,5.1099,5.1606,4.8644,4.9401,5.0131,5.0878,5.0901,5.0782,5.0712,5.0712,5.0846,5.1221,5.2395,5.3356,5.378,5.4953,5.5703,5.5703,5.5318,5.4876,5.4414,5.4395,5.4222,5.3837,5.3376,5.2953,5.2519,5.1702,5.1087,5.0712,5.0712,5.0712,5.0673,4.9798,4.9394,4.9336,4.8048,4.7471,4.7451,4.699,4.6797,4.6874,4.774,4.7991,4.7926,4.8926,4.9493,4.9741,4.9905,5.0657,5.1699,5.2615,5.3421,5.4114,5.442,5.4867,5.5263,5.5063,5.5129,5.5332,5.5533,5.5614,5.5684,5.6069,5.6492,5.6742,5.6528,5.6776,5.7008,5.6797,5.673,5.673,5.673,5.673,5.6473,5.5684,5.5904,5.5739,5.4528,5.4711,5.4821,5.4399,5.4711,5.4527,5.3393,5.228,5.1181,5.0176,5.0079,4.9746,4.9035,4.9323,4.9357,4.9018,4.9001,4.9001,4.9001,4.9001,4.9001,4.9001,4.9001,4.9001,4.9001,4.9001,4.9187,4.9509,4.9154,4.9204,4.9492,4.9154,4.9001,4.9035,4.9424,4.9813,5.0202,5.0557,5.115,5.1843,4.8554,4.9278,5.0017,5.0775,5.0791,5.075,5.0875,5.0914,5.1202,5.2019,5.2876,5.3703,5.4414,5.5222,5.5703,5.5703,5.5703,5.5703,5.5703,5.5703,5.5395,5.4722,5.4568,5.4164,5.3433,5.2558,5.1722,5.0914,5.077,5.0712,5.0693,4.9952,4.9625,4.9586,4.8702,4.8317,4.8317,4.8163,4.8105,4.8182,4.9048,4.9147,4.8982,5.0596,5.0964,5.0707,5.144,5.1998,5.2457,5.2624,5.3683,5.4837,5.4567,5.523,5.5985,5.5466,5.5551,5.5831,5.5959,5.6018,5.6161,5.684,5.7024,5.7024,5.7024,5.7519,5.7997,5.7997,5.7997,5.7997,5.7997,5.7997,5.774,5.6932,5.6932,5.6675,5.5721,5.5702,5.5739,5.5611,5.5614,5.5386,5.4845,5.3964,5.2866,5.1599,5.1315,5.0676,4.9441,4.9965,5.0016,4.9407,4.939,4.9323,4.9187,4.9187,4.912,4.9001,4.9001,4.9001,4.9001,4.9001,4.9323,4.9864,4.9272,4.9424,5.0033,4.9306,4.9069,4.9187,4.9052,4.9086,4.9289,5.0152,5.0862,5.1505,4.8526,4.9192,4.9896,5.0753,5.0791,5.0933,5.1615,5.1731,5.2038,5.2914,5.378,5.4376,5.4491,5.5222,5.5703,5.5703,5.5703,5.5703,5.5703,5.5703,5.5645,5.553,5.4876,5.4434,5.4337,5.3472,5.2606,5.1731,5.1029,5.0712,5.0712,5.0577,5.0519,5.05,4.9606,4.9221,4.9163,4.8413,4.8105,4.8182,4.9048,4.9147,4.8938,5.0279,5.0532,5.0255,5.0767,5.1422,5.2171,5.2888,5.3734,5.4472,5.4425,5.4993,5.5794,5.6382,5.6591,5.6785,5.7483,5.7685,5.7703,5.7813,5.7831,5.7831,5.7831,5.7923,5.7997,5.7997,5.7997,5.7997,5.7997,5.7997,5.774,5.6932,5.7373,5.7299,5.5794,5.6198,5.6381,5.5688,5.5614,5.5606,5.5629,5.4286,5.3095,5.2299,5.1606,5.11,5.0898,5.1014,5.1014,5.0898,5.0913,5.0608,4.9949,4.9949,4.9627,4.9001,4.9001,4.9001,4.9001,4.9001,4.9052,4.9137,4.9035,4.9424,5.0033,4.9306,4.9373,4.9881,4.9255,4.939,5.0118,5.1505,5.2063,5.2266,4.8424,4.9472,5.0418,5.0731,5.074,5.0971,5.1769,5.1904,5.2385,5.376,5.426,5.4664,5.5126,5.5491,5.5703,5.5703,5.5703,5.5703,5.5703,5.5703,5.5703,5.5703,5.5357,5.5164,5.5164,5.4357,5.3741,5.3356,5.251,5.2106,5.2087,5.1606,5.1375,5.1337,5.0491,5.0125,5.0087,4.9721,4.9548,4.9625,5.0471,5.0428,5.0022,5.1533,5.1712,5.1245,5.1912,5.238,5.2729,5.3096,5.4032,5.4987,5.4546,5.5574,5.6914,5.684,5.7134,5.7556,5.7905,5.7997,5.7997,5.7997,5.7997,5.7997,5.7997,5.7997,5.7997,5.7997,5.7997,5.7997,5.7997,5.7997,5.7886,5.7538,5.7776,5.774,5.7042,5.7244,5.7336,5.6969,5.6932,5.6969,5.7023,5.5605,5.4409,5.3686,5.2918,5.2114,5.1236,5.1606,5.164,5.1202,5.1185,5.0862,5.0101,5.0084,4.9729,4.9001,4.9001,4.9001,4.9001,4.9001,4.9221,4.961,4.961,5.0033,5.0693,5.0371,5.0422,5.0642,4.9898,4.9796,5.0219,5.1302,5.1961,5.2418]}]]